[[{"header":{"parameterUnit":"m.s-1","parameterCategory":1,"la1":30.6,"la2":29.2853,"lo1":-89.7004,"lo2":-87.6739,"dy":0.0162,"dx":0.0183,"nx":112,"ny":82,"refTime":"2025-04-07T12:00:00:Z","depth":0,"parameterNumber":2,"parameterNumberName":"U-component_of_WINDS"},"data":[0.0,0.0,0.0,0.0,0.0,0.0,0.0,0.0,0.0,0.0,0.0,0.0,0.0,0.0,0.0,0.0,0.0,0.0,0.0,0.0,0.0,0.0,0.0,0.0,0.0,0.0,0.0,0.0,0.0,0.0,0.0,0.0,0.0,0.0,0.0,0.0,0.0,0.0,0.0,0.0,0.0,0.0,0.0,0.0,0.0,0.0,0.0,0.0,0.0,0.0,0.0,0.0,0.0,0.0,0.0,0.0,0.0,0.0,0.0,0.0,0.0,0.0,0.0,0.0,0.0,0.0,0.0,0.0,0.0,0.0,0.0,0.0,0.0,0.0,0.0,0.0,0.0,0.0,0.0,0.0,0.0,0.0,0.0,0.0,0.0,0.0,0.0,0.0,0.0,0.0,0.0,3.7764,3.8736,3.9424,3.9424,3.932,3.8736,3.7494,0.0,0.0,0.0,0.0,0.0,0.0,0.0,0.0,0.0,0.0,0.0,0.0,0.0,0.0,0.0,0.0,0.0,0.0,0.0,0.0,0.0,0.0,0.0,0.0,0.0,0.0,0.0,0.0,0.0,0.0,0.0,0.0,0.0,0.0,0.0,0.0,0.0,0.0,0.0,0.0,0.0,0.0,0.0,0.0,0.0,0.0,0.0,0.0,0.0,0.0,0.0,0.0,0.0,0.0,0.0,0.0,0.0,0.0,0.0,0.0,0.0,0.0,0.0,0.0,0.0,0.0,0.0,0.0,0.0,0.0,0.0,0.0,0.0,0.0,0.0,0.0,0.0,0.0,0.0,0.0,0.0,0.0,0.0,0.0,0.0,0.0,0.0,0.0,0.0,0.0,0.0,0.0,0.0,0.0,0.0,0.0,0.0,0.0,0.0,0.0,0.0,0.0,0.0,0.0,3.7958,3.9005,3.9305,3.9424,3.9424,3.8886,3.8212,3.7464,0.0,0.0,0.0,0.0,0.0,0.0,0.0,0.0,0.0,0.0,0.0,0.0,0.0,0.0,0.0,0.0,0.0,0.0,0.0,0.0,0.0,0.0,0.0,0.0,0.0,0.0,0.0,0.0,0.0,0.0,0.0,0.0,0.0,0.0,0.0,0.0,0.0,0.0,0.0,0.0,0.0,0.0,0.0,0.0,0.0,0.0,0.0,0.0,0.0,0.0,0.0,0.0,0.0,0.0,0.0,0.0,0.0,0.0,0.0,0.0,0.0,0.0,0.0,0.0,0.0,0.0,0.0,0.0,0.0,0.0,0.0,0.0,0.0,0.0,0.0,0.0,0.0,0.0,0.0,0.0,0.0,0.0,0.0,0.0,0.0,0.0,0.0,0.0,0.0,0.0,0.0,0.0,0.0,0.0,0.0,0.0,0.0,0.0,0.0,0.0,0.0,0.0,0.0,3.727,3.7928,3.9275,3.9424,3.9424,3.9424,3.9125,3.8512,3.7479,3.7404,0.0,0.0,0.0,0.0,0.0,0.0,0.0,0.0,0.0,0.0,0.0,0.0,0.0,0.0,0.0,0.0,0.0,0.0,0.0,0.0,0.0,0.0,0.0,0.0,0.0,0.0,0.0,0.0,0.0,0.0,0.0,0.0,0.0,0.0,0.0,0.0,0.0,0.0,0.0,0.0,0.0,0.0,0.0,0.0,0.0,0.0,0.0,0.0,0.0,0.0,0.0,0.0,0.0,0.0,0.0,0.0,0.0,0.0,0.0,0.0,0.0,0.0,0.0,0.0,0.0,0.0,0.0,0.0,0.0,0.0,0.0,0.0,0.0,0.0,0.0,0.0,0.0,0.0,0.0,0.0,0.0,0.0,0.0,0.0,0.0,0.0,0.0,0.0,0.0,0.0,0.0,0.0,0.0,0.0,0.0,0.0,0.0,0.0,0.0,0.0,0.0,0.0,3.7898,3.8272,3.9305,3.9424,3.9424,3.9424,3.9275,3.8676,3.7479,3.727,0.0,0.0,0.0,0.0,0.0,0.0,0.0,0.0,0.0,0.0,0.0,0.0,0.0,0.0,0.0,0.0,0.0,0.0,0.0,0.0,0.0,0.0,0.0,0.0,0.0,0.0,0.0,0.0,0.0,0.0,0.0,0.0,0.0,0.0,0.0,0.0,0.0,0.0,0.0,0.0,0.0,0.0,0.0,0.0,0.0,0.0,0.0,0.0,0.0,0.0,0.0,0.0,0.0,0.0,0.0,0.0,0.0,0.0,0.0,0.0,0.0,0.0,0.0,0.0,0.0,0.0,0.0,0.0,0.0,0.0,0.0,0.0,0.0,0.0,0.0,0.0,0.0,0.0,0.0,0.0,0.0,0.0,0.0,0.0,0.0,0.0,0.0,0.0,0.0,0.0,0.0,0.0,0.0,0.0,0.0,0.0,0.0,0.0,0.0,0.0,0.0,0.0,3.8182,3.932,3.9409,3.9424,3.9424,3.9424,3.8841,3.8153,3.7464,3.6866,0.0,0.0,0.0,0.0,0.0,0.0,0.0,0.0,0.0,0.0,0.0,0.0,0.0,0.0,0.0,0.0,0.0,0.0,0.0,0.0,0.0,0.0,0.0,0.0,0.0,0.0,0.0,0.0,0.0,0.0,0.0,0.0,0.0,0.0,0.0,0.0,0.0,0.0,0.0,0.0,0.0,0.0,0.0,0.0,0.0,0.0,0.0,0.0,0.0,0.0,0.0,0.0,0.0,0.0,0.0,0.0,0.0,0.0,0.0,0.0,0.0,0.0,0.0,0.0,0.0,0.0,0.0,0.0,0.0,0.0,0.0,0.0,0.0,0.0,0.0,0.0,0.0,0.0,0.0,0.0,0.0,0.0,0.0,0.0,0.0,0.0,0.0,0.0,0.0,0.0,0.0,0.0,0.0,0.0,0.0,0.0,0.0,0.0,0.0,0.0,0.0,0.0,3.7823,3.8945,0.0,3.9424,3.9424,3.9424,3.8796,3.7943,3.6896,0.0,0.0,0.0,0.0,0.0,0.0,0.0,0.0,0.0,0.0,0.0,0.0,0.0,0.0,0.0,0.0,0.0,0.0,0.0,0.0,0.0,0.0,0.0,0.0,0.0,0.0,0.0,0.0,0.0,0.0,0.0,0.0,0.0,0.0,0.0,0.0,0.0,0.0,0.0,0.0,0.0,0.0,0.0,0.0,0.0,0.0,0.0,0.0,0.0,0.0,0.0,0.0,0.0,0.0,0.0,0.0,0.0,0.0,0.0,0.0,0.0,0.0,0.0,0.0,0.0,0.0,0.0,0.0,0.0,0.0,0.0,0.0,0.0,0.0,0.0,0.0,0.0,0.0,0.0,0.0,0.0,0.0,0.0,0.0,0.0,0.0,0.0,0.0,0.0,0.0,0.0,0.0,0.0,0.0,0.0,0.0,0.0,0.0,0.0,0.0,0.0,0.0,3.6058,3.7659,3.8901,0.0,3.9424,3.9424,3.9424,3.8601,3.7629,3.6552,0.0,0.0,0.0,0.0,0.0,0.0,0.0,0.0,0.0,0.0,0.0,0.0,0.0,0.0,0.0,0.0,0.0,0.0,0.0,0.0,0.0,0.0,0.0,0.0,0.0,0.0,0.0,0.0,0.0,0.0,0.0,0.0,0.0,0.0,0.0,0.0,0.0,0.0,0.0,0.0,0.0,0.0,0.0,0.0,0.0,0.0,0.0,0.0,0.0,0.0,0.0,0.0,0.0,0.0,0.0,0.0,0.0,0.0,0.0,0.0,0.0,0.0,0.0,0.0,0.0,0.0,0.0,0.0,0.0,0.0,0.0,0.0,0.0,0.0,0.0,0.0,0.0,0.0,0.0,0.0,0.0,0.0,0.0,0.0,0.0,0.0,0.0,0.0,0.0,0.0,0.0,0.0,0.0,0.0,0.0,0.0,0.0,0.0,0.0,0.0,0.0,0.0,3.5504,3.7793,3.9424,3.9424,3.9424,3.9424,3.9424,3.8182,3.715,0.0,0.0,0.0,0.0,0.0,0.0,0.0,0.0,0.0,0.0,0.0,0.0,0.0,0.0,0.0,0.0,0.0,0.0,0.0,0.0,0.0,0.0,0.0,0.0,0.0,0.0,0.0,0.0,0.0,0.0,0.0,0.0,0.0,0.0,0.0,0.0,0.0,0.0,0.0,0.0,0.0,0.0,0.0,0.0,0.0,0.0,0.0,0.0,0.0,0.0,0.0,0.0,0.0,0.0,0.0,0.0,0.0,0.0,0.0,0.0,0.0,0.0,0.0,0.0,0.0,0.0,0.0,0.0,0.0,0.0,0.0,0.0,0.0,0.0,0.0,0.0,0.0,0.0,0.0,0.0,0.0,0.0,0.0,0.0,0.0,0.0,0.0,0.0,0.0,0.0,0.0,0.0,0.0,0.0,0.0,0.0,0.0,0.0,0.0,0.0,0.0,0.0,0.0,3.5504,3.7793,3.9424,3.9424,3.9424,3.9424,3.9424,3.8182,3.6941,3.5863,0.0,0.0,0.0,0.0,0.0,0.0,0.0,0.0,0.0,0.0,0.0,0.0,0.0,0.0,0.0,0.0,0.0,0.0,0.0,0.0,0.0,0.0,0.0,0.0,0.0,0.0,0.0,0.0,0.0,0.0,0.0,0.0,0.0,0.0,0.0,0.0,0.0,0.0,0.0,0.0,0.0,0.0,0.0,0.0,0.0,0.0,0.0,0.0,0.0,0.0,0.0,0.0,0.0,0.0,0.0,0.0,0.0,0.0,0.0,0.0,0.0,0.0,0.0,0.0,0.0,0.0,0.0,0.0,0.0,0.0,0.0,0.0,0.0,0.0,0.0,0.0,0.0,0.0,0.0,0.0,0.0,0.0,0.0,0.0,0.0,0.0,0.0,0.0,0.0,0.0,0.0,0.0,0.0,0.0,0.0,0.0,0.0,0.0,0.0,0.0,0.0,0.0,3.5504,3.7793,3.9424,3.9424,3.9424,3.9424,3.9424,3.8182,3.6866,3.5594,0.0,0.0,0.0,0.0,0.0,0.0,0.0,0.0,0.0,0.0,0.0,0.0,0.0,0.0,0.0,0.0,0.0,0.0,0.0,0.0,0.0,0.0,0.0,0.0,0.0,0.0,0.0,0.0,0.0,0.0,0.0,0.0,0.0,0.0,0.0,0.0,0.0,0.0,0.0,0.0,0.0,0.0,0.0,0.0,0.0,0.0,0.0,0.0,0.0,0.0,0.0,0.0,0.0,0.0,0.0,0.0,0.0,0.0,0.0,0.0,0.0,0.0,0.0,0.0,0.0,0.0,0.0,0.0,0.0,0.0,0.0,0.0,0.0,0.0,0.0,0.0,0.0,0.0,0.0,0.0,0.0,0.0,0.0,0.0,0.0,0.0,0.0,0.0,0.0,0.0,0.0,0.0,0.0,0.0,0.0,0.0,0.0,0.0,0.0,0.0,0.0,0.0,3.5504,3.7793,3.9424,3.9424,3.9424,3.9394,3.9334,3.8153,3.6866,3.5594,0.0,0.0,0.0,0.0,0.0,0.0,0.0,0.0,0.0,0.0,0.0,0.0,0.0,0.0,0.0,0.0,0.0,0.0,0.0,0.0,0.0,0.0,0.0,0.0,0.0,0.0,0.0,0.0,0.0,0.0,0.0,0.0,0.0,0.0,0.0,0.0,0.0,0.0,0.0,0.0,0.0,0.0,0.0,0.0,0.0,0.0,0.0,0.0,0.0,0.0,0.0,0.0,0.0,0.0,0.0,0.0,0.0,0.0,0.0,0.0,3.8332,0.0,0.0,0.0,0.0,0.0,0.0,0.0,0.0,0.0,0.0,0.0,0.0,0.0,0.0,0.0,0.0,0.0,0.0,0.0,0.0,0.0,0.0,0.0,0.0,0.0,0.0,0.0,0.0,0.0,0.0,0.0,0.0,0.0,0.0,0.0,0.0,0.0,0.0,0.0,0.0,0.0,3.5504,3.7793,3.9424,3.9424,3.9424,3.92,3.8661,3.7868,3.6866,3.5594,3.4113,0.0,0.0,0.0,0.0,0.0,0.0,0.0,0.0,0.0,0.0,0.0,0.0,0.0,0.0,0.0,0.0,0.0,0.0,0.0,0.0,0.0,0.0,0.0,0.0,0.0,0.0,0.0,0.0,0.0,0.0,0.0,0.0,0.0,0.0,0.0,0.0,0.0,0.0,0.0,0.0,0.0,0.0,0.0,0.0,0.0,0.0,0.0,0.0,0.0,0.0,0.0,0.0,0.0,0.0,0.0,0.0,0.0,0.0,0.0,0.0,3.8781,0.0,0.0,0.0,0.0,0.0,0.0,0.0,0.0,0.0,0.0,0.0,0.0,0.0,0.0,0.0,0.0,0.0,0.0,0.0,0.0,0.0,0.0,0.0,0.0,0.0,0.0,0.0,0.0,0.0,0.0,0.0,0.0,0.0,0.0,0.0,0.0,0.0,0.0,0.0,0.0,3.5938,3.7988,3.9424,3.9424,3.9424,3.914,3.8452,3.7793,3.6866,3.5594,3.4233,0.0,0.0,0.0,0.0,0.0,0.0,0.0,0.0,0.0,0.0,0.0,0.0,0.0,0.0,0.0,0.0,0.0,0.0,0.0,0.0,0.0,0.0,0.0,0.0,0.0,0.0,0.0,0.0,0.0,0.0,0.0,0.0,0.0,0.0,0.0,0.0,0.0,0.0,0.0,0.0,0.0,0.0,0.0,0.0,0.0,0.0,0.0,0.0,0.0,0.0,0.0,0.0,0.0,3.8571,3.8571,3.8571,3.8571,3.8571,3.8571,3.8571,3.8901,3.9424,0.0,0.0,0.0,0.0,0.0,0.0,0.0,0.0,0.0,0.0,0.0,0.0,0.0,0.0,0.0,0.0,0.0,0.0,0.0,0.0,0.0,0.0,0.0,0.0,0.0,3.6252,3.6193,0.0,0.0,0.0,0.0,0.0,0.0,0.0,0.0,0.0,0.0,0.0,0.0,3.6402,3.8197,3.9424,3.9424,3.9424,3.9095,3.8287,3.7719,3.6866,3.5594,3.4352,3.3185,0.0,0.0,0.0,0.0,0.0,0.0,0.0,0.0,0.0,0.0,0.0,0.0,0.0,0.0,0.0,0.0,0.0,0.0,0.0,0.0,0.0,0.0,0.0,0.0,0.0,0.0,0.0,0.0,0.0,0.0,0.0,0.0,3.9424,3.9424,0.0,0.0,0.0,0.0,0.0,0.0,0.0,0.0,0.0,0.0,0.0,0.0,0.0,3.8766,3.9275,3.929,3.929,3.929,3.929,3.929,3.929,3.929,3.929,3.929,3.929,0.0,3.9424,3.9424,0.0,0.0,0.0,0.0,0.0,0.0,0.0,0.0,0.0,0.0,0.0,0.0,0.0,0.0,0.0,0.0,0.0,0.0,0.0,0.0,0.0,0.0,3.7868,3.73,3.7225,3.721,0.0,3.6088,3.513,3.4367,3.4292,0.0,0.0,0.0,0.0,0.0,0.0,0.0,3.6402,3.8197,3.9424,3.9424,3.9424,3.8916,3.7644,3.7464,3.6866,3.5594,3.4786,3.4262,3.4098,3.1643,0.0,0.0,0.0,0.0,0.0,0.0,0.0,0.0,0.0,0.0,0.0,0.0,0.0,0.0,0.0,0.0,0.0,0.0,0.0,0.0,0.0,0.0,0.0,0.0,0.0,0.0,0.0,0.0,0.0,3.9424,3.9424,3.9424,3.9424,3.9424,0.0,0.0,0.0,0.0,0.0,0.0,0.0,0.0,0.0,3.9409,3.9125,3.911,3.9424,3.9424,3.9424,3.9424,3.9424,3.9424,3.9424,3.9424,3.9424,3.9424,3.9424,3.9424,3.9424,3.9424,3.9424,3.9379,0.0,0.0,0.0,0.0,3.7973,3.7524,3.8272,3.8287,0.0,0.0,0.0,0.0,0.0,0.0,0.0,0.0,0.0,0.0,0.0,0.0,0.0,3.8512,3.8542,3.8542,3.8542,3.8108,3.7285,0.0,3.5893,3.5564,3.3799,0.0,0.0,0.0,0.0,0.0,3.7434,3.8646,3.9424,3.9424,3.9424,3.902,3.8033,3.7958,3.7419,3.6133,3.5774,3.5265,3.4502,3.3309,3.1936,0.0,0.0,0.0,0.0,0.0,0.0,0.0,0.0,0.0,0.0,0.0,0.0,0.0,0.0,0.0,0.0,0.0,0.0,0.0,0.0,0.0,0.0,0.0,0.0,0.0,0.0,0.0,0.0,3.9574,3.9604,3.9439,3.9574,3.9604,0.0,0.0,0.0,0.0,0.0,0.0,3.9424,3.9424,3.9424,3.9424,3.9424,3.9424,3.9424,3.9424,3.9424,3.9424,3.9424,3.9424,3.9424,3.9424,3.9424,3.9424,3.9424,3.9424,3.9424,3.9424,3.9424,3.9364,3.8856,3.8661,3.8661,3.8661,3.8347,3.8063,3.9065,3.908,3.8661,3.8661,0.0,3.7569,3.7105,0.0,0.0,0.0,0.0,3.7808,3.8482,3.8661,3.8781,3.929,3.9424,3.9424,3.9424,3.9424,3.8931,0.0,3.7345,3.6985,3.4861,0.0,0.0,0.0,0.0,3.712,3.8242,3.899,3.9424,3.9424,3.9424,3.914,3.8452,3.8392,3.7913,3.6791,3.6716,3.6201,3.4925,3.436,3.2948,3.0602,0.0,0.0,0.0,0.0,0.0,0.0,0.0,0.0,0.0,0.0,0.0,0.0,0.0,0.0,0.0,0.0,0.0,0.0,0.0,0.0,0.0,0.0,0.0,0.0,0.0,0.0,0.0,0.0,0.0,3.9499,3.9963,0.0,0.0,0.0,0.0,3.9424,3.9424,3.9424,3.9424,3.9424,3.9424,3.9424,3.9424,3.9424,3.9424,3.9424,3.9424,3.9424,3.9424,3.9424,3.9424,3.9424,3.9424,3.9424,3.9424,3.9424,3.9424,3.9424,3.9424,3.9424,3.9379,3.9364,3.9364,3.9364,3.9349,3.9334,3.9394,3.9394,3.9364,3.9364,3.8901,3.8332,3.8302,3.7853,0.0,0.0,3.8347,3.8497,3.9185,3.9364,3.9379,3.9409,3.9424,3.9424,3.9424,3.9424,3.92,0.0,3.8317,3.8108,3.7345,0.0,3.6582,3.718,3.7315,3.7614,3.8302,3.899,3.9424,3.9424,3.9424,3.914,3.8452,3.8392,3.8093,3.7404,3.736,3.6902,3.5884,3.3931,3.2338,3.1156,2.819,0.0,0.0,0.0,0.0,0.0,0.0,0.0,0.0,0.0,0.0,0.0,0.0,0.0,0.0,0.0,0.0,0.0,0.0,0.0,0.0,0.0,0.0,0.0,0.0,0.0,0.0,0.0,0.0,4.0083,4.0636,0.0,4.0711,4.0681,4.0681,4.0681,4.0681,4.0681,4.0681,4.0681,4.0681,4.0681,4.0277,4.0053,4.0053,3.9634,3.9424,3.9424,3.9424,3.9424,3.9424,3.9424,3.9424,3.9424,3.9424,3.9424,3.9424,3.9424,3.9424,3.9424,3.9424,3.9424,3.9424,3.9424,3.9424,3.9424,3.9424,3.9424,3.9424,3.9424,3.9245,3.905,3.905,3.8886,3.8751,3.899,3.905,3.911,3.9349,3.9424,3.9424,3.9424,3.9424,3.9424,3.9424,3.9424,3.9349,3.9095,3.905,3.8706,3.7599,3.7584,3.7644,3.7434,3.7764,3.8287,3.896,3.9275,3.9424,3.9424,3.9424,3.932,3.9065,3.905,3.8766,3.8078,3.8033,3.7405,3.5971,3.4825,3.3294,3.1254,2.9366,2.7726,0.0,0.0,0.0,0.0,0.0,0.0,0.0,0.0,0.0,0.0,0.0,0.0,0.0,0.0,0.0,0.0,0.0,0.0,0.0,0.0,0.0,0.0,0.0,0.0,0.0,0.0,4.0726,4.0726,4.1309,4.1624,4.1399,4.1384,4.1384,4.1384,4.1384,4.1384,4.1384,4.1384,4.1384,4.1384,4.0965,4.0621,4.0397,3.9963,3.9634,3.9424,3.9424,3.9424,3.9424,3.9017,3.887,3.8855,3.8457,3.8294,3.8294,3.8294,3.8294,3.8368,3.9104,3.9424,3.9424,3.9424,3.9424,3.9424,3.9424,3.9424,3.9424,3.9424,3.9424,3.9424,3.9424,3.9424,3.9424,3.9424,3.9424,3.9424,3.9424,3.9424,3.9424,3.9424,3.9424,3.9424,3.9424,3.9424,3.9424,3.9424,3.9424,3.914,3.8242,3.8452,3.8586,3.8153,3.8452,3.8901,3.9364,3.9424,3.9424,3.9424,3.9424,3.9424,3.9424,3.92,3.8871,3.8422,3.8182,3.7264,3.5508,3.4868,3.3384,3.1057,2.9658,2.8248,2.6798,0.0,0.0,0.0,0.0,0.0,0.0,0.0,0.0,0.0,0.0,0.0,0.0,0.0,0.0,0.0,0.0,0.0,0.0,0.0,0.0,0.0,0.0,0.0,4.0397,4.0995,4.1414,4.1414,4.1998,4.2132,4.1504,4.1444,4.1444,4.1444,4.1444,4.1444,4.1444,4.1444,4.1444,4.1444,4.1414,4.11,4.0442,4.0412,4.0068,3.9424,3.9337,3.9337,3.9337,3.8234,3.7753,3.7677,3.6682,3.6198,3.6198,3.6198,3.6198,3.6448,3.8457,3.9337,3.9337,3.9337,3.9337,3.9424,3.9424,3.9424,3.9424,3.9424,3.9424,3.9424,3.9424,3.9424,3.9424,3.9424,3.9424,3.9424,3.9424,3.9424,3.9424,3.9424,3.9424,3.9424,3.9424,3.9424,3.9424,3.9424,3.9424,3.9424,3.9424,3.9424,3.9424,3.9424,3.9424,0.0,3.9424,3.9424,3.9424,3.9424,3.9424,3.9424,3.9424,3.8796,3.8392,3.8392,3.7764,3.6512,3.4505,3.385,3.2656,3.0608,2.9001,2.7883,2.7331,0.0,0.0,0.0,0.0,0.0,0.0,0.0,0.0,0.0,0.0,0.0,0.0,0.0,0.0,0.0,0.0,0.0,0.0,0.0,0.0,0.0,0.0,4.0397,4.0397,4.1384,4.2087,4.2087,4.2671,4.2985,4.2821,4.2791,4.2791,4.2791,4.2791,4.2791,4.2791,4.2791,4.2791,4.2791,4.2342,4.1773,4.1115,4.0636,4.0068,3.9424,3.862,3.8234,3.8219,3.7098,3.6604,3.6604,3.6369,3.6198,3.6198,3.6198,3.6198,3.6277,3.6838,3.7572,3.8234,3.8234,3.8708,3.9424,3.9424,3.9424,3.9424,3.9424,3.9424,3.9424,3.9424,3.9424,3.9424,3.9424,3.9424,3.9424,3.9424,3.9424,3.9424,3.9424,3.9424,3.9424,3.9424,3.9424,3.9424,3.9424,3.9424,3.9424,3.9424,3.9424,3.9424,3.9424,3.9424,0.0,3.9424,3.9424,3.9424,3.9424,3.9424,3.9424,3.9424,3.8796,3.8392,3.8392,3.7161,3.597,3.5065,3.3829,3.2358,3.062,2.9767,2.9051,0.0,0.0,0.0,0.0,0.0,0.0,0.0,0.0,0.0,0.0,0.0,0.0,0.0,0.0,0.0,0.0,0.0,0.0,0.0,0.0,0.0,0.0,4.104,4.122,4.122,4.1878,4.2462,4.2746,4.3105,4.3329,4.3329,4.3329,4.3329,4.3329,4.3329,4.3329,4.3329,4.3329,4.3329,4.3329,4.297,4.2327,4.1384,4.0995,4.0337,3.9424,3.8308,3.7829,3.7753,3.6225,3.5588,0.0,3.5116,3.487,3.487,3.487,3.487,0.0,0.0,0.0,0.0,0.0,3.8055,3.9337,3.887,3.8708,3.8782,3.9265,3.9104,3.8782,3.9265,3.9424,3.9424,3.9424,3.9424,3.9265,3.887,3.9031,3.9265,3.8855,3.9104,3.9424,3.9424,3.9424,3.9424,3.9424,3.9424,0.0,3.9424,3.9424,3.9424,3.9424,3.9424,3.9424,3.9424,3.9424,3.9424,3.9424,3.9424,3.9424,3.9424,3.8796,0.0,0.0,0.0,3.5416,3.4326,3.3028,0.0,0.0,0.0,0.0,0.0,0.0,0.0,0.0,2.9503,2.988,0.0,0.0,0.0,0.0,0.0,0.0,0.0,0.0,0.0,0.0,0.0,0.0,0.0,0.0,0.0,0.0,4.1983,4.2387,4.2462,4.2476,4.2686,4.3269,4.3329,4.3329,4.3329,4.3329,4.3329,4.3329,4.3329,4.3329,4.3329,0.0,0.0,0.0,0.0,4.2626,4.1384,4.1309,4.0651,3.9424,3.8308,3.7753,3.751,3.5615,3.4664,3.4511,3.3471,3.3081,3.3081,3.3081,3.3081,3.3313,3.5265,3.6053,3.6053,3.6119,3.7405,3.8929,3.7979,0.0,0.0,3.8708,3.8383,3.7829,3.8782,3.9017,3.9017,3.9017,3.9104,3.9017,3.8069,3.862,3.9177,3.8234,3.8708,3.9424,3.9424,3.9424,3.9424,3.9424,3.9424,3.9424,3.9424,3.9424,3.9424,3.9424,3.9424,3.9424,3.9424,3.9424,3.9424,3.9424,0.0,0.0,3.9424,3.8796,3.7994,3.707,3.6273,3.4915,3.2843,3.2,3.1549,3.1486,3.1486,3.1486,3.1486,3.1976,3.1989,3.1562,3.0545,3.057,0.0,0.0,0.0,0.0,0.0,0.0,0.0,0.0,0.0,0.0,0.0,0.0,0.0,0.0,0.0,4.2073,4.2359,4.2551,4.3075,4.315,4.3195,4.3329,4.3329,4.3329,4.3329,4.3329,4.3329,4.3329,4.3329,4.3329,4.3329,4.3329,0.0,4.3329,4.2821,4.2177,4.1384,4.0846,4.0187,3.9424,0.0,0.0,3.6448,3.5292,3.4191,3.3398,3.3154,3.3081,3.3081,3.3081,3.3081,3.324,3.4498,3.4979,3.5047,3.5894,3.6448,3.676,3.6604,3.6526,3.6526,3.676,3.6682,3.6526,3.676,3.6838,0.0,3.6838,3.742,3.8069,3.7829,3.862,3.9337,3.9104,3.9265,3.9424,3.9424,3.9424,3.9424,3.9424,3.9424,3.9424,3.9424,3.9424,3.9424,3.9424,3.9424,3.9424,3.9424,3.9424,3.9424,3.9424,3.9424,3.9424,3.9424,3.8796,3.8307,3.808,3.6379,3.4465,3.2441,3.2575,3.2528,3.2064,3.2051,3.2051,3.2051,3.2164,3.2403,3.2729,3.2064,3.1851,0.0,0.0,0.0,0.0,0.0,0.0,0.0,0.0,0.0,0.0,0.0,4.0606,0.0,0.0,4.2087,4.2746,4.2851,4.297,4.3284,4.3329,4.3329,4.3329,4.3329,4.3329,4.3329,4.3329,4.3329,4.3329,4.3329,4.3329,4.3329,4.3329,4.3329,4.3329,4.2701,4.2043,4.1384,4.0726,4.0068,3.9424,3.8308,3.7266,3.6212,3.5129,3.4108,3.3081,3.3081,3.3081,3.3081,3.3081,3.3081,3.3154,3.3713,3.4191,3.4664,3.465,3.5346,3.6132,3.5588,3.544,3.5507,3.6053,3.5894,3.5507,3.6053,3.6604,3.6852,3.6369,3.7329,3.8234,3.6646,3.7434,3.8308,3.7281,3.7829,3.862,3.862,3.9017,3.9424,3.9424,3.9424,3.9424,3.9424,3.9424,3.9424,3.9424,3.9424,3.9424,3.9424,3.9424,3.9424,3.9424,3.9424,3.9424,3.9424,3.8135,3.731,3.731,3.5312,3.3762,3.2726,3.2918,3.2943,3.2654,3.2641,3.2641,3.2641,3.2641,3.2792,3.3068,3.278,3.2641,0.0,0.0,0.0,0.0,0.0,0.0,0.0,0.0,3.9798,4.0457,4.0696,4.11,4.2162,4.2476,4.2716,4.324,4.3329,4.3329,4.3329,4.3329,4.3329,4.3329,4.3329,4.3329,4.3329,4.3329,4.3329,4.3329,4.3329,4.3329,4.3329,4.3329,4.3329,4.3329,4.2581,4.1923,4.1384,4.0606,3.9948,3.9424,3.8308,3.7266,3.6212,3.5129,3.4108,3.3081,3.3081,3.3081,3.3081,3.3081,3.3081,3.3081,3.3081,3.3641,3.4275,3.3398,3.4178,3.5507,3.4664,3.4428,3.4498,3.5346,3.5047,3.4498,3.5346,3.6225,3.6724,3.5814,3.7021,3.7904,3.5386,3.6081,3.7035,3.5373,3.6397,3.7829,3.7829,3.862,3.9424,3.9424,3.9424,3.9424,3.9424,3.9424,3.9424,3.9424,3.9424,3.9424,3.9424,3.9424,3.9424,3.9424,3.9424,3.9424,3.9424,3.7648,3.6448,3.6198,3.4415,3.3313,3.3081,3.3081,3.3081,3.3081,3.3081,3.3081,3.3081,3.3081,3.3081,3.3081,3.3081,3.3081,4.0337,3.9918,0.0,3.9439,3.9424,3.9574,0.0,0.0,4.0472,4.113,4.1728,4.2192,4.2327,4.2836,4.324,4.3329,4.3329,4.3329,4.3329,4.3329,4.3329,4.3329,4.3329,4.3329,4.3329,4.3329,4.3329,4.3329,4.3329,4.3329,4.3329,4.3329,4.3329,4.3329,4.2132,4.1459,4.1384,4.0142,3.9484,3.9424,3.8308,3.7266,3.6212,3.5129,3.4108,3.3081,3.3081,3.3081,3.3081,3.3081,3.3081,3.3081,3.3081,3.3154,3.324,3.3154,3.324,3.3386,3.3313,3.3326,3.3313,3.3386,3.3398,3.3313,3.3386,3.3556,3.3641,3.3471,3.4275,3.5142,3.4828,3.5521,3.629,3.6132,3.6944,3.7829,3.7829,3.862,3.9424,3.9424,3.9424,3.9424,3.9424,3.9424,3.9424,3.9424,3.9424,3.9424,3.9424,3.9424,3.9424,3.9424,3.9424,3.9424,3.9424,3.8308,3.7175,3.6277,3.5129,3.4108,3.3154,3.3081,3.3081,3.3081,3.3081,3.3081,3.3081,3.3081,3.3081,3.3081,3.3081,3.3081,4.0502,0.0,0.0,0.0,4.0277,4.0636,4.0905,4.0965,4.116,4.1818,4.2162,4.2476,4.2865,4.315,4.3329,0.0,4.3329,4.3329,4.3329,4.3329,4.3329,4.3329,4.3329,4.3329,4.3329,4.3329,4.3329,4.3329,4.3329,4.3329,4.3329,4.3329,4.3329,4.3329,4.2058,4.1384,4.1384,4.0083,3.9424,3.9424,3.8308,3.7266,3.6212,3.5129,3.4108,3.3081,3.3081,3.3081,3.3081,3.3081,3.3081,3.3081,3.3081,3.3081,3.3081,3.3081,3.3081,3.3081,3.3081,3.3081,3.3081,3.3081,3.3081,3.3081,3.3081,3.3556,3.3869,3.3326,3.4249,3.5278,3.4108,3.4581,3.5359,3.5359,3.6146,3.7021,3.7677,3.862,3.9424,3.9424,3.9424,3.9424,3.9424,3.9424,3.9424,3.9424,3.9424,3.9424,3.9424,3.9424,3.9424,3.9424,3.9424,3.9424,3.9424,3.8383,3.7343,3.629,3.5292,3.4191,3.3154,3.3081,3.3081,3.3081,3.3081,3.3081,3.3081,3.3081,3.3081,3.3081,3.3081,3.3081,4.0531,0.0,0.0,4.0621,4.1025,4.1429,4.1609,4.1654,4.1833,4.2491,4.2626,4.2776,4.324,4.3329,0.0,4.3329,4.3329,4.3329,4.3329,4.3329,4.3329,4.3329,4.3329,4.3329,4.3329,4.3329,4.3329,4.3329,4.3329,4.3329,4.3329,4.3329,4.3329,4.3329,4.2237,4.1654,4.1654,4.0352,3.9694,3.9679,3.8396,3.742,3.6604,3.5292,3.4108,3.3081,3.3081,3.3081,3.3081,3.3081,3.3081,3.3081,3.3081,3.3081,3.3081,3.3081,3.3081,3.3081,3.3081,3.3081,3.3081,3.3081,3.3081,3.3081,3.3081,3.3641,3.4108,3.3313,3.4178,3.5034,3.3471,3.3713,3.4345,3.4664,3.544,3.6526,3.7587,3.862,3.9424,3.9424,3.9424,3.9424,3.9424,3.9424,3.9424,3.9424,3.9424,3.9424,3.9424,3.9424,3.9424,3.9424,3.9424,3.9424,3.9424,3.8383,3.7343,3.629,3.5292,3.4191,3.3154,3.3081,3.3081,3.3081,3.3081,3.3081,3.3081,3.3081,3.3081,3.3081,3.3081,3.3156,0.0,0.0,4.0546,4.119,4.1369,4.1549,4.2192,4.2327,4.2521,4.3165,4.3299,4.3314,4.3329,4.3329,4.3329,4.3329,4.3329,4.3329,4.3329,4.3329,4.3329,4.3329,4.3329,4.3329,0.0,4.3329,4.3329,4.3329,4.3329,4.3329,4.3329,4.3329,4.3329,4.3329,4.2686,4.2327,4.2327,4.1025,4.0367,4.0367,3.86,3.7753,3.7663,3.5615,3.4108,3.3081,3.3081,3.3081,3.3081,3.3081,3.3081,3.3081,3.3081,3.3081,3.3081,3.3081,3.3081,3.3081,3.3081,3.3081,3.3081,3.3081,3.3081,3.3081,3.3081,3.3167,3.3154,3.3081,3.3154,3.3154,3.3167,3.3167,3.3398,3.4428,3.544,3.6526,3.7587,3.862,3.9424,3.9424,3.9424,3.9424,3.9424,3.9424,3.9424,3.9424,3.9424,3.9424,3.9424,3.9424,3.9424,3.9424,3.9424,3.9424,3.9424,3.8383,3.7343,3.629,3.5292,3.4191,3.3154,3.3081,3.3081,3.3081,3.3081,3.3081,3.3081,3.3081,3.3081,3.3081,3.3081,3.337,0.0,0.0,4.1758,4.1983,4.2357,4.2731,4.2955,4.3015,4.306,4.3284,4.3329,4.3329,4.3329,4.3329,4.3329,4.3329,4.3329,4.3329,4.3329,4.3329,4.3329,4.3329,4.3329,0.0,0.0,0.0,0.0,4.3329,4.3329,4.3329,4.3329,4.3329,4.3329,4.3329,4.2701,4.2357,4.2357,4.1055,4.0397,4.0397,3.8614,3.7035,3.5695,3.4979,3.4108,3.3081,3.3081,3.3081,3.3081,3.3081,3.3081,3.3081,3.3081,3.3081,3.3081,3.3081,3.3081,3.3081,3.3081,3.3081,3.3081,3.3081,3.3081,3.3081,3.3081,3.3081,3.3081,3.3081,3.3081,3.324,3.3953,3.3641,3.3713,3.6174,3.6462,3.6526,3.7587,3.8069,3.8308,3.8308,3.8308,3.8546,3.9265,3.9424,3.9424,3.9424,3.9424,3.9424,3.9424,3.9424,3.9424,3.9424,3.9424,3.9424,3.9424,3.9104,3.813,3.6277,3.5894,3.4884,3.3154,3.3081,3.3081,3.3081,3.3081,3.3081,3.3081,3.3081,3.3081,3.3081,3.3458,3.3721,0.0,4.1713,4.2417,4.2656,4.3015,4.3329,4.3329,4.3329,4.3269,4.303,4.2985,4.291,4.2686,4.2626,4.2716,4.2955,4.2985,4.306,4.3299,4.3329,4.3329,4.3329,4.3329,4.3329,0.0,0.0,0.0,4.3329,4.3329,4.3329,4.3329,4.3329,4.3329,4.3329,4.2925,4.2701,4.2701,4.1639,4.0861,4.0382,3.9017,3.7266,3.521,3.521,3.4415,3.3081,3.3081,3.3081,3.3081,3.3081,3.3081,3.3081,3.3081,3.3081,3.3081,3.3081,3.3081,3.3081,3.3081,3.3081,3.3081,3.3081,3.3081,3.3081,3.3081,3.3081,3.3081,3.3081,3.3081,3.324,3.3953,3.3641,3.3713,3.6094,3.616,3.5987,3.7021,3.751,3.7829,3.7829,3.8069,3.862,3.9265,3.9424,3.9424,3.9424,3.9424,3.9424,3.9424,3.9424,3.9424,3.9424,3.9424,3.9424,3.9424,3.9031,3.8055,3.6277,3.5894,3.4884,3.3154,3.3081,3.3081,3.3081,3.3081,3.3081,3.3081,3.3081,3.3181,3.3382,3.3734,3.411,4.2013,4.2387,4.2551,4.318,4.3329,4.3329,4.3329,4.3314,4.3105,4.2491,4.2327,4.2117,0.0,0.0,4.1654,4.2312,4.2432,4.2686,4.3299,4.3389,4.3374,0.0,0.0,0.0,0.0,0.0,0.0,4.3329,0.0,4.3329,4.3329,4.3329,4.3329,4.3329,4.3329,4.3329,4.3329,4.2656,4.1654,4.0337,3.9709,3.8294,3.6277,3.6212,3.5116,3.3154,3.3167,3.3081,3.3081,3.3081,3.3081,3.3081,3.3081,3.3081,3.3081,3.3081,3.3081,3.3081,3.3081,3.3081,3.3081,3.3081,3.3081,3.3081,3.3081,3.3081,3.3081,3.3081,3.3081,3.3081,3.3154,3.3154,3.3398,3.4594,3.4828,3.5047,3.6053,3.7098,3.7829,3.7829,3.8708,3.9424,3.9424,3.9424,3.9424,3.9424,3.9424,3.9424,3.9424,3.9424,3.9424,3.9424,3.9424,3.9424,3.9424,3.8383,3.7343,3.6369,3.5292,3.4275,3.324,3.3154,3.3081,3.3081,3.3081,3.3081,3.3081,3.3106,3.3382,3.3897,3.396,3.455,4.2267,4.2716,4.3135,4.3284,4.3329,4.3329,4.3329,4.2955,4.2566,4.2387,4.1968,4.1579,0.0,0.0,0.0,4.2985,4.3494,0.0,4.4032,4.4062,0.0,0.0,0.0,4.3329,4.3329,4.3329,0.0,0.0,4.3329,4.3329,4.3329,4.3329,4.3329,4.3329,4.3329,4.3329,4.3329,4.2207,4.0965,3.9664,3.9499,3.8694,3.7343,3.6526,3.5507,3.4275,3.3484,3.3081,3.3081,3.3081,3.3081,3.3081,3.3081,3.3081,3.3081,3.3081,3.3081,3.3081,3.3081,3.3081,3.3081,3.3081,3.3081,3.3081,3.3081,3.3081,3.3081,3.3081,3.3081,3.3326,3.4108,3.3713,3.3797,3.6411,3.6383,3.6146,3.7175,3.7587,3.7829,3.7829,3.8708,3.9424,3.9424,3.9424,3.9424,3.9424,3.9424,3.9424,3.9424,3.9424,3.9424,3.9424,3.9424,3.9424,3.9424,3.8383,3.7663,3.742,3.5695,3.4594,3.4275,3.3556,3.3081,3.3081,3.3081,3.3081,3.3081,3.3483,3.3759,3.3922,3.4738,3.5278,4.2701,4.3045,4.3329,4.3329,4.3329,4.3254,4.297,4.2626,4.2192,4.1609,4.1205,0.0,0.0,0.0,0.0,0.0,0.0,0.0,4.4661,4.4751,4.4496,0.0,4.3763,0.0,4.3359,4.3329,4.3329,0.0,4.3329,4.3329,4.3329,4.3329,4.3329,4.3329,4.3329,4.3329,4.3329,4.2043,4.101,4.0277,3.9694,3.8855,3.7753,3.7175,3.6304,3.5359,0.0,3.4178,3.3797,3.3797,3.3556,3.3081,3.3081,3.3081,3.3081,3.3081,3.3081,3.3081,3.3081,3.3081,3.3081,3.3081,3.3081,3.3081,3.3081,3.3081,3.3081,3.3081,3.3484,3.3953,3.4511,3.4581,3.4884,3.671,3.6604,3.6369,3.6944,3.751,3.7919,3.8383,3.9017,3.9424,3.9424,3.9424,3.9424,3.9424,3.9424,3.9424,3.9424,3.9424,3.9424,3.9424,3.9424,3.9424,3.9424,3.8383,3.7829,3.7829,3.5855,3.4664,3.4664,3.3628,3.3081,3.3081,3.3081,3.3194,3.3432,3.3746,3.4148,3.4638,3.5253,3.5667,4.318,4.3329,4.3329,4.3329,4.3329,4.3165,4.2506,4.2374,4.1878,4.0651,0.0,0.0,3.9529,0.0,4.0935,4.2162,0.0,4.3898,4.5125,4.5289,4.508,4.4511,4.4362,4.4092,4.3524,4.3389,4.3329,4.3329,4.3329,4.3329,4.3329,4.3329,4.3329,4.3329,4.3329,4.3284,4.321,4.2073,4.1474,4.1369,4.0232,3.9195,3.824,3.8077,3.7471,3.6559,0.0,0.0,3.4897,3.4897,3.4345,3.3471,3.3471,3.3471,3.3471,3.3471,3.3398,3.3313,3.3471,3.3386,3.3313,3.3313,3.324,3.3154,3.3386,3.3386,3.3313,3.3471,3.4191,3.4897,3.4897,3.5507,3.6212,3.6369,3.6448,3.6448,3.6604,3.7343,3.8308,3.9192,3.9424,3.9424,3.9424,3.9424,3.9424,3.9424,3.9424,3.9424,3.9424,3.9424,3.9424,3.9424,3.9424,3.9424,3.9424,3.8383,3.7829,3.7994,3.6081,3.4979,3.5142,3.3953,3.3313,3.3313,3.3154,3.3345,3.3897,3.3972,3.4537,3.5542,3.5617,3.5906,4.3299,4.3329,4.3329,4.3329,4.3329,4.3165,4.2506,4.1938,0.0,0.0,0.0,3.9559,3.9439,4.0397,0.0,4.2237,0.0,0.0,0.0,0.0,4.5259,0.0,0.0,0.0,0.0,0.0,0.0,0.0,0.0,4.3329,4.3329,4.3329,4.3329,4.3329,4.3329,4.3075,4.2536,4.2312,4.1923,4.1384,4.1145,4.0965,4.0694,3.9252,3.8529,3.8253,3.6828,0.0,3.5974,3.5974,3.5814,3.5654,3.5654,3.5654,3.5654,3.5654,3.5129,3.4498,3.5346,3.5129,3.4428,3.4428,3.3797,3.3386,3.5102,3.5116,3.4581,3.5426,3.5814,3.5974,3.5974,3.6053,3.6448,3.7343,3.751,3.7753,3.862,3.9017,3.9177,3.9337,3.9424,3.9424,3.9424,3.9424,3.9424,3.9424,3.9424,3.9424,3.9424,3.9424,3.9424,3.9424,3.9424,3.9424,3.9424,3.8383,3.8144,3.9104,3.7098,3.6383,3.7204,3.5453,3.4428,3.4428,3.3556,3.3345,3.3897,3.4361,3.4914,3.5554,3.6006,3.627,4.3329,4.3329,4.3329,4.3329,4.3075,4.2656,4.1998,0.0,0.0,0.0,0.0,3.9424,3.9424,0.0,0.0,0.0,0.0,0.0,0.0,0.0,0.0,0.0,0.0,0.0,0.0,0.0,0.0,0.0,0.0,4.3329,4.3329,4.3329,4.3329,4.3329,4.3329,4.318,4.2865,4.2536,4.2207,4.1893,4.1549,4.1384,4.1369,4.0556,4.0165,4.0121,3.8899,0.0,3.7551,3.7148,3.6682,3.6198,3.6198,3.6198,3.6198,3.6198,3.6099,3.6076,3.6534,3.6673,3.662,3.7178,3.6185,3.487,3.5894,3.5894,3.5588,3.6039,3.6604,3.7021,3.7021,3.742,3.8052,3.8956,3.9119,3.9283,3.9771,3.9664,3.9424,3.9424,3.9424,3.9424,3.9424,3.9424,3.9424,3.9424,3.9424,3.9424,3.9424,3.9424,3.9424,3.9424,3.9424,3.9424,3.9424,3.8943,3.887,3.9337,3.789,3.7252,3.7753,3.5775,3.4809,3.5112,3.4063,3.3922,3.4751,3.5014,3.5429,3.5981,3.6245,3.6358,4.3329,4.3329,4.3329,4.3329,4.2851,4.2192,4.1534,4.0876,0.0,0.0,0.0,3.9424,3.9424,0.0,0.0,0.0,0.0,0.0,0.0,0.0,0.0,0.0,0.0,0.0,0.0,0.0,0.0,0.0,0.0,0.0,4.3329,4.3329,4.3329,4.3329,4.3329,4.3329,4.3329,4.2821,4.2566,4.2566,4.2043,4.1803,4.1788,4.1654,4.1594,4.1549,4.0891,0.0,0.0,3.8768,3.8064,3.731,3.731,3.731,3.731,3.731,3.7475,3.7749,3.8004,3.8313,3.8721,3.9794,3.8538,3.6678,3.7153,3.7153,3.6995,3.7231,3.7896,3.8551,3.8551,3.9195,3.9933,4.0307,4.0397,4.0367,4.0217,3.9783,3.9424,3.9424,3.9424,3.9424,3.9424,3.9424,3.9424,3.9424,3.9424,3.9424,3.9424,3.9424,3.9424,3.9424,3.9424,3.9424,3.9424,3.9424,3.9424,3.9424,3.862,3.8217,3.8347,3.6605,3.5762,3.6031,3.4973,3.4806,3.5542,3.5542,3.583,3.6358,3.6358,3.6358,4.3329,4.3329,4.3329,4.3329,4.2851,4.2192,4.1534,0.0,0.0,0.0,3.9424,3.9424,3.9424,0.0,0.0,0.0,0.0,0.0,0.0,0.0,0.0,0.0,0.0,0.0,0.0,0.0,0.0,0.0,0.0,0.0,4.3329,4.3329,4.3329,4.3329,4.3329,4.3329,4.3329,4.3269,4.324,4.324,4.318,4.315,4.3135,4.2551,4.2267,4.2237,4.1579,0.0,0.0,4.1053,4.1024,4.0948,4.0948,4.0948,4.0948,4.0948,4.0319,3.9708,4.0701,4.0407,3.9794,4.0882,3.9787,3.8375,4.0367,4.0275,3.97,4.0613,4.1024,4.1039,4.1039,4.1114,4.107,4.0531,4.0397,4.0232,3.9634,3.9454,3.9424,3.9424,3.9424,3.9424,3.9424,3.9424,3.9424,3.9424,3.9424,3.9424,3.9424,3.9424,3.9424,3.9424,3.9424,3.9424,3.9424,3.9424,3.9424,3.9424,3.9337,3.9533,4.0129,3.9015,3.8258,3.7869,3.6815,3.6028,3.5542,3.5542,3.583,3.6358,3.6358,3.6358,4.3329,4.3629,4.3823,4.3434,4.2536,4.1698,4.1444,0.0,0.0,3.9469,3.9424,3.9424,3.9424,3.9634,0.0,0.0,0.0,0.0,0.0,0.0,0.0,0.0,0.0,0.0,0.0,0.0,0.0,0.0,0.0,0.0,4.3329,4.3329,4.3329,4.3329,4.3329,4.3329,4.3329,4.3329,4.3329,4.3329,4.3329,4.3329,4.3329,4.306,4.294,4.291,4.2252,0.0,0.0,4.1549,4.1384,4.1384,4.1384,4.1384,4.1384,4.1384,4.1379,4.1459,4.1876,4.1974,4.1957,4.238,4.1957,4.1303,4.1364,4.1126,4.0882,4.1293,4.1384,4.1384,4.1384,4.1669,4.1908,4.1639,4.1579,4.1504,4.125,4.0876,4.0591,4.0591,4.0277,4.0008,4.0008,3.9679,3.9424,3.9424,3.9424,3.9424,3.9424,3.9424,3.9424,3.9424,3.9424,3.9424,3.9424,3.9424,3.9589,3.9993,4.0008,4.0307,4.0965,3.9993,3.947,3.9584,3.8587,3.7698,3.7078,3.7078,3.6839,3.6358,3.6358,3.6358,4.3284,4.3673,4.3913,4.3449,4.2342,4.1384,0.0,0.0,3.9424,3.9424,3.9424,3.9424,3.9424,3.9424,3.9783,0.0,0.0,0.0,0.0,0.0,0.0,0.0,0.0,0.0,0.0,0.0,0.0,0.0,0.0,0.0,0.0,4.3329,4.3329,4.3329,4.3329,4.3329,4.3329,4.3329,4.3329,4.3329,4.3329,4.3329,4.3329,4.3329,4.3329,4.3314,4.2851,0.0,0.0,4.2147,4.1953,4.1953,4.1953,4.1953,4.1953,4.1953,4.2252,4.2656,4.2656,4.294,4.3329,4.3329,4.3329,4.3165,4.2237,4.1953,4.1953,4.1953,4.1953,4.1953,4.1953,4.2297,4.2596,4.2402,4.2357,4.2312,4.2117,4.1713,4.1384,4.1384,4.101,4.0696,4.0696,4.0142,3.9709,3.9709,3.9544,3.9484,3.9694,3.9709,3.9783,3.9978,3.9828,3.9634,3.9439,3.9604,3.9903,4.0367,4.0591,4.0995,4.1639,4.0993,4.0706,4.091,4.0152,3.9429,3.8649,3.8289,3.7678,3.6883,3.6534,3.6445,4.3165,4.3344,4.3344,4.3329,4.2342,4.1384,0.0,4.0367,3.9424,3.9424,3.9424,3.9424,3.9424,3.9424,3.9634,4.0307,0.0,0.0,0.0,0.0,0.0,0.0,0.0,0.0,0.0,0.0,0.0,0.0,0.0,0.0,0.0,4.3329,4.3329,4.3329,4.3329,4.3329,4.3329,4.3329,4.3329,4.3329,4.3329,4.3329,4.3329,4.3329,4.3329,0.0,0.0,0.0,0.0,4.3314,4.3314,4.3314,4.3314,4.3314,4.3314,4.3314,4.3314,4.3329,4.3329,4.3329,4.3329,4.3329,4.3329,4.3329,4.3314,4.3314,4.3314,4.3314,4.3314,4.3314,4.3314,4.3329,4.3165,4.2506,4.2357,4.2177,4.1534,4.1384,4.1384,4.1384,4.1369,4.1369,4.1369,4.0831,4.0382,4.0382,3.9828,3.9649,4.0307,4.0382,4.0636,4.1294,4.0786,4.0127,3.9484,4.0023,4.0382,4.0397,4.101,4.1669,4.2327,4.2357,4.2139,4.1573,4.1573,4.0986,3.9899,3.8649,3.8107,3.8017,3.6883,3.6659,4.2058,4.2656,4.312,4.2222,4.1339,4.0711,4.0711,4.0038,3.9424,3.9424,3.9424,3.9424,3.9424,3.9424,3.9933,4.1489,4.1908,0.0,0.0,0.0,0.0,0.0,0.0,0.0,0.0,0.0,0.0,0.0,0.0,0.0,0.0,4.3329,4.3329,4.3329,4.3329,4.3329,4.3329,4.3329,4.3329,4.3329,4.3329,4.3329,4.3329,4.3329,4.3329,0.0,0.0,0.0,0.0,4.3329,4.3329,4.3329,4.3329,4.3329,4.3329,4.3329,4.3329,4.3329,4.3329,4.3329,4.3329,4.3329,4.3329,4.3329,4.3329,4.3329,4.3329,4.3329,4.3329,4.3329,4.3329,4.3329,4.3284,4.3075,4.303,4.297,4.2761,4.2716,4.2716,4.2716,4.2357,4.2058,4.2058,4.1504,4.107,4.107,4.0891,4.0831,4.104,4.107,4.1145,4.1354,4.119,4.0995,4.0771,4.0531,4.0786,4.1683,4.1938,4.2342,4.3,4.303,4.2947,4.2805,4.2725,4.2208,4.1085,3.9885,3.8682,3.7457,3.7102,3.7211,0.0,4.1983,4.2402,4.1594,4.0891,4.0397,4.0397,3.9888,3.9424,3.9424,3.9424,3.9424,3.9424,3.9424,3.9828,4.1055,4.1669,0.0,0.0,0.0,0.0,0.0,0.0,0.0,0.0,0.0,0.0,0.0,0.0,0.0,0.0,4.3329,4.3329,4.3329,4.3329,4.3329,4.3329,4.3329,4.3329,4.3329,4.3329,4.3329,4.3329,4.3329,4.3329,0.0,0.0,0.0,0.0,4.3329,4.3329,4.3329,4.3329,4.3329,4.3329,4.3329,4.3329,4.3329,4.3329,4.3329,4.3329,4.3329,4.3329,4.3329,4.3329,4.3329,4.3329,4.3329,4.3329,4.3329,4.3329,4.3329,4.3329,4.3329,4.3329,4.3329,4.3329,4.3329,4.3329,4.3329,4.3015,4.2731,4.2731,4.2177,4.1758,4.1758,4.1534,4.1474,4.1713,4.1758,4.1848,4.2087,4.1893,4.1848,4.2102,4.1519,4.1489,4.2312,4.2581,4.291,4.3314,4.3329,4.3329,4.3329,4.3329,4.2981,4.2208,4.0886,3.955,3.8223,3.7994,3.8002,0.0,4.1265,4.1294,4.125,4.0786,4.0337,4.0337,3.9858,0.0,3.9424,3.9424,3.9424,3.9484,3.9454,3.9469,3.9604,0.0,0.0,0.0,0.0,0.0,0.0,0.0,0.0,0.0,0.0,0.0,0.0,0.0,0.0,0.0,4.3359,4.3329,4.3329,4.3329,4.3329,4.3329,4.3329,4.3329,4.3329,4.3329,4.3329,4.3329,4.3329,0.0,0.0,0.0,0.0,0.0,4.3329,4.3329,4.3329,4.3329,4.3329,4.3329,4.3329,4.3329,4.3329,4.3329,4.3329,4.3329,4.3329,4.3329,4.3329,4.3329,4.3329,4.3329,4.3329,4.3329,4.3329,4.3329,4.3329,4.3329,4.3329,4.3329,4.3329,4.3329,4.3329,4.3329,4.3329,4.3329,4.3329,4.3329,4.2836,4.2432,4.2432,4.1908,4.1743,4.2357,4.2432,4.2671,4.3269,4.2791,4.2671,4.3284,4.2746,4.2387,4.2432,4.3,4.3329,4.3329,4.3329,4.3329,4.3329,4.3329,4.3265,4.323,4.1625,4.0545,4.0092,3.9363,3.9083,3.9843,0.0,4.0502,4.0008,3.9768,3.9649,0.0,0.0,0.0,0.0,0.0,0.0,0.0,0.0,0.0,0.0,0.0,0.0,0.0,0.0,0.0,0.0,0.0,0.0,0.0,0.0,0.0,0.0,0.0,0.0,0.0,4.3599,4.3329,4.3329,4.3329,4.3329,4.3329,4.3329,4.3329,4.3329,4.3329,4.3329,4.3329,4.3329,0.0,0.0,0.0,0.0,4.3329,4.3329,4.3329,4.3329,4.3329,4.3329,4.3329,4.3329,4.3329,4.3329,4.3329,4.3329,4.3329,4.3329,4.3329,4.3329,4.3329,4.3329,4.3329,4.3329,4.3329,4.3329,4.3329,4.3329,4.3329,4.3329,4.3329,4.3329,4.3329,4.3329,4.3329,4.3329,4.3329,4.3329,4.3329,4.321,4.3105,4.3105,4.297,4.2925,4.309,4.3105,4.3165,4.3314,4.3195,4.3165,4.3329,4.2746,4.2581,4.3075,4.324,4.3329,4.3329,4.3329,4.3329,4.3329,4.3329,4.3138,4.2742,4.2366,4.2125,4.2013,4.0861,4.0605,4.0569,4.0492,4.0307,3.9963,3.9873,3.9873,0.0,0.0,0.0,0.0,0.0,0.0,0.0,0.0,0.0,0.0,0.0,0.0,0.0,0.0,0.0,0.0,0.0,0.0,0.0,0.0,0.0,0.0,0.0,0.0,0.0,4.3973,4.3643,4.3344,4.3329,4.3329,4.3329,4.3329,4.3329,4.3329,4.3329,4.3329,4.3329,4.3329,4.3329,0.0,0.0,0.0,4.3329,4.3329,4.3329,4.3329,4.3329,4.3329,4.3329,4.3329,4.3329,4.3329,4.3329,4.3329,4.3329,4.3329,4.3329,4.3329,4.3329,4.3329,4.3329,4.3329,4.3329,4.3329,4.3329,4.3329,4.3329,4.3329,4.3329,4.3329,4.3329,4.3329,4.3329,4.3329,4.3329,4.3329,4.3329,4.3329,4.3329,4.3329,4.3329,4.3329,4.3329,4.3329,4.3329,4.3329,4.3329,4.3329,4.3329,4.3015,4.2955,4.3314,4.3329,4.3329,4.3329,4.3329,4.3329,4.3329,4.3629,4.3753,4.3862,4.3545,4.3553,4.3948,4.2629,4.2151,4.2125,4.1563,4.0898,4.0701,4.064,4.064,0.0,0.0,0.0,0.0,0.0,0.0,0.0,0.0,0.0,0.0,0.0,0.0,0.0,0.0,0.0,0.0,0.0,0.0,0.0,0.0,0.0,0.0,0.0,0.0,0.0,4.4709,4.4267,4.3566,4.3551,4.3488,4.3329,4.3329,4.3329,4.3329,4.3329,4.3329,4.3329,4.3329,4.3329,0.0,0.0,0.0,4.3329,4.3329,4.3329,4.3329,4.3329,4.3329,4.3329,4.3329,4.3329,4.3329,4.3329,4.3404,4.3479,4.3479,4.3479,4.3509,4.3599,4.3494,4.3359,4.3449,4.3404,4.3329,4.3329,4.3329,4.3329,4.3329,4.3329,4.3329,4.3329,4.3329,4.3329,4.3329,4.3329,4.3329,4.3329,4.3329,4.3329,4.3329,4.3329,4.3329,4.3329,4.3329,4.3329,4.3329,4.3329,4.3329,4.3329,4.3329,4.3329,4.3329,4.3329,4.3329,4.3329,4.3329,4.3389,4.3479,4.4032,4.4691,4.5454,4.4923,4.5066,4.5689,4.4349,4.3787,4.2767,4.3256,4.3257,4.2069,4.1767,4.1767,0.0,0.0,0.0,0.0,0.0,0.0,0.0,0.0,0.0,0.0,0.0,0.0,0.0,0.0,0.0,0.0,0.0,0.0,0.0,0.0,0.0,0.0,0.0,0.0,0.0,4.6554,4.5526,4.4586,4.4586,4.4143,4.3329,4.3329,4.3329,4.3329,4.3329,4.3329,4.3329,4.3329,4.3329,0.0,0.0,4.3329,4.3329,4.3329,4.3329,4.3329,4.3329,4.3329,4.3329,4.3329,4.3329,4.3329,4.3329,4.3703,4.4167,4.4167,4.4167,4.4272,4.4825,4.4212,4.3449,4.4003,4.3763,4.3329,4.3329,4.3329,4.3329,4.3329,4.3329,4.3329,4.3329,4.3329,4.3329,4.3329,4.3329,4.3329,4.3329,4.3329,4.3329,4.3329,4.3329,4.3329,4.3329,4.3329,4.3329,4.3329,4.3329,4.3329,4.3329,4.3329,4.3329,4.3329,4.3329,4.3329,4.3329,4.3329,4.3599,4.4152,4.4272,4.493,4.6172,4.6077,4.6379,4.7019,4.5689,4.5115,4.3806,4.4153,4.429,4.407,4.3862,0.0,0.0,0.0,0.0,0.0,0.0,0.0,0.0,0.0,0.0,0.0,0.0,0.0,0.0,0.0,0.0,0.0,0.0,0.0,0.0,0.0,0.0,0.0,0.0,0.0,0.0,0.0,4.6375,4.5577,4.5079,4.4586,4.4143,4.3551,4.3329,4.3329,4.3329,4.3329,4.3329,4.3329,4.3329,4.3329,0.0,4.3329,4.3329,4.3329,4.3329,4.3329,4.3329,4.3329,4.3329,4.3329,4.3554,4.3868,4.3868,4.4287,4.484,4.484,4.484,4.49,4.5214,4.487,4.4451,4.4751,4.4122,4.3329,4.3329,4.3329,4.3329,4.3329,4.3329,4.3329,4.3329,4.3329,4.3329,4.3329,4.3329,4.3329,4.3329,4.3329,4.3329,4.3329,4.3329,4.3329,4.3329,4.3329,4.3329,4.3329,4.3329,4.3329,4.3329,4.3329,4.3329,4.3329,4.3329,4.3329,4.3329,4.3673,4.4003,4.4302,4.502,4.5708,4.6322,4.6681,4.701,4.7309,4.6726,4.6447,4.479,4.484,4.4976,0.0,0.0,0.0,0.0,0.0,0.0,0.0,0.0,0.0,0.0,0.0,0.0,0.0,0.0,0.0,0.0,0.0,0.0,0.0,0.0,0.0,0.0,0.0,0.0,0.0,0.0,0.0,0.0,0.0,4.726,4.6555,4.585,4.5358,4.5153,4.4343,4.3756,4.3329,4.3329,4.3329,4.3329,4.3329,4.3329,4.3329,4.3329,4.3329,4.3329,4.3329,4.3329,4.3329,4.3329,4.3434,4.3569,4.3569,4.3988,4.4541,4.4541,4.4975,4.5529,4.5529,4.5529,4.5559,4.5723,4.5544,4.5334,4.5484,4.4691,4.3763,4.3599,4.3449,4.3329,4.3329,4.3329,4.3329,4.3329,4.3329,4.3329,4.3329,4.3329,4.3329,4.3329,4.3329,4.3329,4.3329,4.3329,4.3329,4.3329,4.3329,4.3329,4.3329,4.3329,4.3329,4.3329,4.3329,4.3404,4.3554,4.3419,4.3404,4.3554,4.4047,4.4466,4.4781,4.5798,4.6396,4.6561,4.7055,4.7309,4.7309,4.7309,4.7309,4.5432,4.5618,0.0,0.0,0.0,0.0,0.0,0.0,0.0,0.0,0.0,0.0,0.0,0.0,0.0,0.0,0.0,0.0,0.0,0.0,0.0,0.0,0.0,0.0,0.0,0.0,0.0,0.0,0.0,0.0,0.0,0.0,0.0,4.7523,4.744,4.6952,4.6119,4.6032,4.5122,4.3329,4.3329,4.3329,4.3329,4.3329,4.3329,4.3329,4.3329,4.3329,4.3329,4.3329,4.3329,4.3329,4.3329,4.3703,4.4242,4.4242,4.4661,4.5229,4.5229,4.5678,4.6247,4.6247,4.6247,4.6367,4.698,4.6292,4.5424,4.6067,4.5723,4.5005,4.4407,4.3793,4.3329,4.3329,4.3329,4.3329,4.3329,4.3329,4.3329,4.3329,4.3329,4.3329,4.3329,4.3329,4.3329,4.3329,4.3329,4.3329,4.3329,4.3329,4.3329,4.3329,4.3329,4.3329,4.3329,4.3329,4.3599,4.4212,4.3673,4.3599,4.4212,4.4287,4.49,4.6157,4.6277,4.6621,4.7234,4.7279,4.7309,4.7309,4.7309,4.7309,4.4925,4.501,0.0,0.0,0.0,0.0,0.0,0.0,0.0,0.0,0.0,0.0,0.0,0.0,0.0,0.0,0.0,0.0,0.0,0.0,0.0,0.0,0.0,0.0,0.0,0.0,0.0,0.0,0.0,0.0,0.0,0.0,0.0,4.8497,4.7868,4.744,4.7088,4.6454,4.5545,4.422,4.422,4.3927,4.3329,4.3329,4.3329,4.3329,4.3329,4.3329,4.3329,4.3329,4.3329,4.3374,4.3778,4.4092,4.4362,4.4766,4.5349,4.5933,4.5933,4.6381,4.6935,4.6935,4.6935,4.698,4.7234,4.695,4.6606,4.686,4.6456,4.5783,4.511,4.4736,4.4541,4.4541,4.4242,4.3943,4.3943,4.3629,4.3329,4.3329,4.3329,4.3329,4.3329,4.3329,4.3329,4.3329,4.3329,4.3479,4.3883,4.3584,4.3643,4.4466,4.4541,4.4392,4.3988,4.4317,4.4661,4.4915,4.4302,4.4242,4.49,4.5334,4.5798,4.6307,4.6726,4.7055,4.7309,4.7309,4.7309,4.7309,4.7309,4.7309,4.4587,4.4587,0.0,0.0,0.0,0.0,0.0,0.0,0.0,0.0,0.0,0.0,0.0,0.0,0.0,0.0,0.0,0.0,0.0,0.0,0.0,0.0,0.0,0.0,0.0,0.0,0.0,0.0,0.0,0.0,0.0,0.0,0.0,0.0,4.837,4.8015,4.8015,4.7373,4.6609,4.5722,4.5722,4.4856,4.3329,4.3329,4.3329,4.3329,4.3329,4.3329,4.3329,4.3329,4.3449,4.3688,4.4137,4.4571,4.5005,4.5454,4.6052,4.6636,4.6636,4.6935,4.7309,4.7309,4.7309,4.7309,4.7309,4.7309,4.7309,4.7309,4.698,4.6531,4.6052,4.5618,4.5289,4.5289,4.4945,4.4631,4.4631,4.4272,4.3958,4.3958,4.3958,4.3958,4.3958,4.3958,4.3958,4.3958,4.3958,4.4122,4.4571,4.4227,4.4302,4.52,4.5289,4.511,4.4661,4.5035,4.5394,4.5603,4.52,4.5155,4.5603,4.6082,4.6426,4.6636,4.707,4.7309,4.7309,4.7309,4.7309,4.7309,4.7309,4.7309,4.4587,0.0,0.0,0.0,0.0,0.0,0.0,0.0,0.0,0.0,0.0,0.0,0.0,0.0,0.0,0.0,0.0,0.0,0.0,0.0,0.0,0.0,0.0,0.0,0.0,0.0,0.0,0.0,0.0,0.0,0.0,0.0,0.0,0.0,4.9001,4.9001,4.9001,4.9001,4.8513,4.7589,4.7589,4.6103,4.3329,4.3329,4.3329,4.3329,4.3329,4.3329,4.3329,4.3344,4.3718,4.4317,4.4332,4.5155,4.6322,4.6337,4.6741,4.7309,4.7309,4.7309,4.7309,4.7309,4.7309,4.7309,4.7309,4.7309,4.7309,4.7309,4.7309,4.7309,4.7309,4.6307,4.5319,4.5319,4.5304,4.5304,4.5304,4.5289,4.5289,4.5289,4.5289,4.5289,4.5289,4.5289,4.5289,4.5289,4.5289,4.5289,4.5289,4.5304,4.5304,4.5289,4.5304,4.5304,4.5304,4.5304,4.5603,4.6292,4.6337,4.6337,4.6337,4.6337,4.6636,4.7294,4.7309,4.7309,4.7309,4.7309,4.7309,4.7309,4.7309,4.7309,0.0,0.0,0.0,0.0,0.0,0.0,0.0,0.0,0.0,0.0,0.0,0.0,0.0,0.0,0.0,0.0,0.0,0.0,0.0,0.0,0.0,0.0,0.0,0.0,0.0,0.0,0.0,0.0,0.0,0.0,0.0,0.0,0.0,0.0,4.9001,4.9001,4.9001,4.9001,4.8513,4.7589,4.7589,4.647,4.4373,4.4373,4.4004,4.3329,4.3329,4.3329,4.3374,4.3838,4.4137,4.4407,4.5364,4.5978,4.6381,4.6845,4.713,4.7309,4.7309,4.7309,4.7309,4.7309,4.7309,4.7309,4.7309,4.7309,4.7309,4.7309,4.7309,4.7309,4.7309,4.701,4.6711,4.6711,4.6352,4.6022,4.6022,4.5633,4.5289,4.5289,4.5289,4.5289,4.5289,4.5289,4.5289,4.5289,4.5289,4.5289,4.5289,4.6127,4.6352,4.5394,4.6142,4.6516,4.6052,4.6441,4.68,4.6995,4.701,4.701,4.701,4.701,4.7115,4.7309,4.7309,4.7309,4.7309,4.7309,4.7309,4.7309,4.7309,4.7309,0.0,0.0,0.0,0.0,0.0,0.0,0.0,0.0,0.0,0.0,0.0,0.0,0.0,0.0,0.0,0.0,0.0,0.0,0.0,0.0,0.0,0.0,0.0,0.0,0.0,0.0,0.0,0.0,0.0,0.0,0.0,0.0,0.0,0.0,4.9001,4.9001,4.9001,4.9001,4.8719,4.8161,4.8161,4.7389,4.5921,4.5504,4.4989,4.4403,4.4066,4.3708,4.3389,4.4047,4.4466,4.4811,4.5903,4.6486,4.677,4.716,4.7309,4.7309,4.7309,4.7309,4.7309,4.7309,4.7309,4.7309,4.7309,4.7309,4.7309,4.7309,4.7309,4.7309,4.7309,4.7309,4.7309,4.7309,4.6995,4.6711,4.6711,4.6381,4.6097,4.6097,4.6097,4.6097,4.6097,4.6097,4.6097,4.6097,4.6097,4.6097,4.6097,4.68,4.6995,4.6187,4.6815,4.7145,4.6756,4.707,4.7309,4.7309,4.7309,4.7309,4.7309,4.7309,4.7309,4.7309,4.7309,4.7309,4.7309,4.7309,4.7309,4.7309,4.7309,4.7309,0.0,0.0,0.0,0.0,0.0,0.0,0.0,0.0,0.0,0.0,0.0,0.0,0.0,0.0,0.0,0.0,0.0,0.0,0.0,0.0,0.0,0.0,0.0,0.0,0.0,0.0,0.0,0.0,0.0,0.0,0.0,0.0,0.0,4.9001,4.9001,4.9001,4.9001,4.9001,4.9001,0.0,4.9001,4.8576,4.7721,4.6747,4.6314,4.6173,4.5227,4.4328,4.3528,4.4122,4.4796,4.5454,4.6142,4.677,4.7309,4.7309,4.7309,4.7309,4.7309,4.7309,4.7309,4.7309,4.7309,4.7309,4.7309,4.7309,4.7309,4.7309,4.7309,4.7309,4.7309,4.7309,4.7309,4.7309,4.7309,4.7309,4.7309,4.7309,4.7309,4.7309,4.7309,4.7309,4.7309,4.7309,4.7309,4.7309,4.7309,4.7309,4.7309,4.7309,4.7309,4.7309,4.7309,4.7309,4.7309,4.7309,4.7309,4.7309,4.7309,4.7309,4.7309,4.7309,4.7309,4.7309,4.7309,4.7309,4.7309,4.7309,4.7309,4.7309,4.7309,4.7309,0.0,0.0,0.0,0.0,0.0,0.0,0.0,0.0,0.0,0.0,0.0,0.0,0.0,0.0,0.0,0.0,0.0,0.0,0.0,0.0,0.0,0.0,0.0,0.0,0.0,0.0,0.0,0.0,0.0,0.0,0.0,0.0,0.0,4.9001,4.9001,4.9001,4.9001,4.9001,4.9001,0.0,4.9001,4.8861,4.8656,4.7737,4.6884,4.6173,4.5227,4.4955,4.5156,4.5107,4.5484,4.6172,4.683,4.7174,4.7309,4.7309,4.7309,4.7309,4.7309,4.7309,4.7309,4.7309,4.7309,4.7309,4.7309,4.7309,4.7309,4.7309,4.7309,4.7309,4.7309,4.7309,4.7309,4.7309,4.7309,4.7309,4.7309,4.7309,4.7309,4.7309,4.7309,4.7309,4.7309,4.7309,4.7309,4.7309,4.7309,4.7309,4.7309,4.7309,4.7309,4.7309,4.7309,4.7309,4.7309,4.7309,4.7309,4.7309,4.7309,4.7309,4.7309,4.7309,4.7309,4.7309,4.7309,4.7309,4.7309,4.7309,4.7309,4.7309,4.7309,4.7309,0.0,0.0,0.0,0.0,0.0,0.0,0.0,0.0,0.0,0.0,0.0,0.0,0.0,0.0,0.0,0.0,0.0,0.0,0.0,0.0,0.0,0.0,0.0,0.0,0.0,0.0,0.0,0.0,0.0,0.0,0.0,4.9001,4.9001,4.9001,4.9001,4.9001,4.9001,4.9001,4.9001,4.9001,4.9001,4.9001,4.9001,4.8497,4.7737,4.6831,4.6699,4.6621,4.6516,4.6998,4.7493,4.7815,4.7965,4.7988,4.7988,4.7452,4.7309,4.7309,4.7309,4.7309,4.7309,4.7309,4.7309,4.7309,4.7309,4.7309,4.7309,4.7309,4.7309,4.7309,4.7309,4.7309,4.7309,4.7309,4.7309,4.7309,4.7309,4.7309,4.7309,4.7309,4.7309,4.7309,4.7309,4.7309,4.7309,4.7309,4.7309,4.7309,4.7309,4.7309,4.7309,4.7309,4.7309,4.7309,4.7309,4.7309,4.7309,4.7309,4.7309,4.7309,4.7309,4.7309,4.7309,4.7309,4.7309,4.7309,4.7309,4.7309,4.7309,4.7309,4.7623,4.7773,0.0,0.0,0.0,0.0,0.0,0.0,0.0,0.0,0.0,0.0,0.0,0.0,0.0,0.0,0.0,0.0,0.0,0.0,0.0,0.0,0.0,0.0,0.0,0.0,0.0,0.0,0.0,0.0,0.0,0.0,4.9001,4.9001,4.9001,4.9001,4.9001,4.9001,4.9001,4.9001,4.9001,4.9001,4.9001,4.9001,4.9001,4.9137,4.8694,4.7836,4.8447,4.8315,4.7806,4.893,4.9464,4.9565,4.922,4.8988,4.8677,4.7834,4.7452,4.7309,4.7309,4.7309,4.7309,4.7309,4.7309,4.7309,4.7309,4.7309,4.7309,4.7309,4.7309,4.7309,4.7309,4.7309,4.7309,4.7309,4.7309,4.7309,4.7309,4.7309,4.7309,4.7309,4.7309,4.7309,4.7309,4.7309,4.7309,4.7309,4.7309,4.7309,4.7309,4.7309,4.7309,4.7309,4.7309,4.7309,4.7309,4.7309,4.7309,4.7309,4.7309,4.7309,4.7309,4.7414,4.7474,4.7474,4.7369,4.7369,4.7474,4.7474,4.7534,4.7653,4.8192,4.8461,0.0,0.0,0.0,0.0,0.0,0.0,0.0,0.0,0.0,0.0,0.0,0.0,0.0,0.0,0.0,0.0,0.0,0.0,0.0,0.0,0.0,0.0,0.0,0.0,0.0,0.0,0.0,0.0,0.0,0.0,4.9001,4.9001,4.9001,4.9001,4.9001,4.9001,4.9001,4.9001,4.9001,4.9001,4.9001,4.9001,4.9018,4.9661,4.9531,4.8832,4.8729,4.897,4.9386,4.936,4.9753,5.0269,5.0211,4.9615,4.8743,4.8677,4.8072,4.7309,4.7309,4.7309,4.7309,4.7309,4.7309,4.7309,4.7309,4.7309,4.7309,4.7309,4.7309,4.7309,4.7309,4.7309,4.7309,4.7309,4.7309,4.7309,4.7309,4.7309,4.7309,4.7309,4.7309,4.7309,4.7309,4.7309,4.7309,4.7309,4.7309,4.7309,4.7309,4.7309,4.7309,4.7309,4.7309,4.7309,4.7309,4.7309,4.7309,4.7309,4.7309,4.7309,4.7309,4.7863,4.8162,4.8162,4.7593,4.7593,4.8162,4.8162,4.8446,4.9015,4.909,4.9134,0.0,0.0,0.0,0.0,0.0,0.0,0.0,0.0,0.0,0.0,0.0,0.0,0.0,0.0,0.0,0.0,0.0,0.0,0.0,0.0,0.0,0.0,0.0,0.0,0.0,0.0,0.0,0.0,0.0,4.9001,4.9001,4.9001,4.9001,4.9001,4.9001,4.9001,4.9001,4.9001,4.9001,4.9001,4.9001,4.9001,4.9035,4.9763,4.9915,4.9678,5.0406,5.0861,5.1212,5.1533,5.1888,5.2115,5.1467,5.0914,5.0365,4.9215,4.8527,4.8072,4.7538,4.7309,4.7309,4.7309,4.7309,4.7309,4.7309,4.7309,4.7309,4.7309,4.7309,4.7309,4.7309,4.7309,4.7399,4.7773,4.7863,4.7952,4.8327,4.7818,4.7309,4.7309,4.7309,4.7309,4.7309,4.7309,4.7309,4.7309,4.7309,4.7309,4.7309,4.7623,4.7863,4.7863,4.8192,4.8252,4.7878,4.8192,4.8252,4.7878,4.8192,4.8401,4.8401,4.8686,4.8835,4.8835,4.8551,4.8551,4.8835,4.8835,4.8985,4.9284,4.9643,4.9808,0.0,0.0,0.0,0.0,0.0,0.0,0.0,0.0,0.0,0.0,0.0,0.0,0.0,0.0,0.0,0.0,0.0,0.0,0.0,0.0,0.0,0.0,0.0,0.0,0.0,0.0,0.0,0.0,0.0,4.9001,4.9001,4.9001,4.9001,4.9001,4.9001,4.9001,4.9001,4.9001,4.9001,4.9001,4.9001,4.9103,4.9306,5.0033,5.0473,5.071,5.1826,5.23,5.2367,5.3179,5.3501,5.3433,5.2627,5.2153,5.1687,5.0133,4.9456,4.9069,4.8392,4.8088,4.8088,4.7764,4.7849,4.8003,4.7764,4.7679,4.7679,4.7679,4.7538,4.7309,4.7309,4.7309,4.7474,4.8132,4.8282,4.8461,4.9119,4.8356,4.7549,4.7549,4.7414,4.7354,4.7519,4.7549,4.7608,4.7773,4.7803,4.7803,4.7803,4.8237,4.8536,4.8536,4.897,4.9075,4.8581,4.8985,4.906,4.8566,4.9,4.9269,4.9269,4.9434,4.9508,4.9508,4.9673,4.9673,4.9508,4.9508,4.9598,4.9778,5.0257,5.0481,0.0,0.0,0.0,0.0,0.0,0.0,0.0,0.0,0.0,0.0,0.0,0.0,0.0,0.0,0.0,0.0,0.0,0.0,0.0,0.0,0.0,0.0,0.0,0.0,0.0,0.0,0.0,0.0,0.0,4.9001,4.9001,4.9001,4.9001,4.9001,4.9001,4.9001,4.9001,4.9001,4.9001,4.9001,4.9001,4.9373,5.005,5.0811,5.1539,5.2181,5.2266,5.23,5.2367,5.3179,5.3501,5.3501,5.3433,5.28,5.1921,5.176,5.1155,5.0336,5.0242,5.0258,5.0087,4.9069,4.9376,5.0009,4.9069,4.8743,4.8743,4.8743,4.8072,4.7309,4.7309,4.7309,4.7474,4.8132,4.8282,4.8461,4.9119,4.873,4.8237,4.8237,4.7728,4.7504,4.8132,4.8237,4.8446,4.9075,4.9164,4.9164,4.9164,4.9194,4.9224,4.9224,4.9239,4.9254,4.9224,4.9239,4.9254,4.9224,4.9239,4.9269,4.9269,4.9868,5.0182,5.0182,5.0795,5.081,5.0182,5.0182,5.0511,5.1109,5.1154,5.1169,0.0,0.0,0.0,0.0,0.0,0.0,0.0,0.0,0.0,0.0,0.0,0.0,0.0,0.0,0.0,0.0,0.0,0.0,0.0,0.0,0.0,0.0,0.0,0.0,0.0,0.0,0.0,0.0,0.0,0.0,4.9001,4.9001,4.9001,4.9001,4.9001,4.9001,4.9001,4.9001,4.9001,4.9001,4.9001,4.939,5.0118,5.0879,5.1606,5.2334,5.2858,5.3078,5.3095,5.3382,5.3501,5.3501,5.3501,5.3264,5.287,5.2153,5.1687,5.1229,5.0627,5.0397,5.0336,4.9931,5.0087,5.0416,5.0533,5.0501,5.0596,5.1135,5.0938,5.0543,4.9805,5.0142,5.0881,5.157,5.1987,5.2379,5.2629,5.1289,5.0174,5.0918,5.0881,5.0787,5.1038,5.1085,5.0913,5.0411,5.0371,5.0053,4.9344,4.9628,4.9898,4.9898,5.0272,5.0346,4.9927,5.0272,5.0346,4.9912,5.0287,5.0526,5.0526,5.075,5.087,5.087,5.1094,5.1109,5.087,5.087,5.099,5.1214,5.1214,5.1214,0.0,0.0,0.0,0.0,0.0,0.0,0.0,0.0,0.0,0.0,0.0,0.0,0.0,0.0,0.0,0.0,0.0,0.0,0.0,0.0,0.0,0.0,0.0,0.0,0.0,0.0,0.0,0.0,0.0,0.0,4.9001,4.9001,4.9001,4.9001,4.9001,4.9001,4.9001,4.9001,4.912,4.9373,4.9373,4.9881,5.0862,5.1352,5.1995,5.2739,5.3264,5.3501,5.3501,5.3501,5.3501,5.3501,5.3501,5.3501,5.3416,5.2714,5.247,5.2312,5.1631,5.141,5.1443,5.128,5.1528,5.1883,5.228,5.2398,5.2495,5.2997,5.2891,5.2412,5.1663,5.2166,5.3038,5.3502,5.4077,5.4672,5.5068,5.3382,5.1994,5.2764,5.2733,5.2653,5.2893,5.2925,5.2763,5.2225,5.2103,5.1779,5.0664,5.088,5.0985,5.0571,5.096,5.105,5.0601,5.0975,5.1035,5.0586,5.0975,5.1214,5.1214,5.1214,5.1214,5.1214,5.1214,5.1214,5.1214,5.1214,5.1214,5.1214,5.1214,5.1214,0.0,0.0,0.0,0.0,0.0,0.0,0.0,0.0,0.0,0.0,0.0,0.0,0.0,0.0,0.0,0.0,0.0,0.0,0.0,0.0,0.0,0.0,0.0,0.0,0.0,0.0,0.0,0.0,0.0,4.9035,4.9035,4.9018,4.9001,4.9001,4.9001,4.9001,4.9001,4.9018,4.939,5.0084,5.0101,5.0879,5.23,5.23,5.2739,5.3501,5.3501,5.3501,5.3501,5.3501,5.3501,5.3501,5.3501,5.3501,5.3501,5.3501,5.3501,5.3501,5.3501,5.3501,5.3467,5.3141,5.3766,5.4563,5.4286,5.4187,5.4187,5.4204,5.3502,5.2797,5.2797,5.3214,5.3646,5.3728,5.4257,5.4986,5.6047,5.4937,5.3728,5.3728,5.3182,5.2925,5.3616,5.3728,5.3969,5.456,5.4672,5.4253,5.3077,5.29,5.2485,5.1293,5.1214,5.1214,5.1214,5.1214,5.1214,5.1214,5.1214,5.1214,5.1214,5.1214,5.1214,5.1214,5.1214,5.1214,5.1214,5.1214,5.1214,5.1214,5.1214,5.1214,4.1339,0.0,0.0,0.0,0.0,0.0,0.0,0.0,0.0,0.0,0.0,0.0,0.0,0.0,0.0,0.0,0.0,0.0,0.0,0.0,0.0,0.0,0.0,0.0,0.0,0.0,0.0,0.0,4.9796,4.9796,4.9796,4.9289,4.9001,4.9001,4.9001,4.9001,4.9001,4.9526,4.9898,5.0101,5.0642,5.1403,5.23,5.23,5.2739,5.3501,5.3501,5.3501,5.3501,5.3501,5.3501,5.3501,5.3501,5.3501,5.3501,5.3501,5.3501,5.3501,5.3501,5.3501,5.3551,5.402,5.4342,5.4751,5.5787,5.6068,5.6186,5.6707,5.662,5.6454,5.6454,5.593,5.5673,5.6495,5.6829,5.7055,5.7389,5.7055,5.6679,5.6679,5.6588,5.6504,5.6646,5.6679,5.6485,5.5857,5.5794,5.5052,5.3149,5.29,5.2485,5.1293,5.1214,5.1214,5.1214,5.1214,5.1214,5.1214,5.1214,5.1214,5.1214,5.1214,5.1214,5.1214,5.1214,5.1214,5.1214,5.1214,5.1214,5.1214,5.1214,5.1214,0.0,0.0,0.0,0.0,0.0,0.0,0.0,4.7387,0.0,0.0,0.0,0.0,0.0,0.0,0.0,0.0,0.0,0.0,0.0,0.0,0.0,0.0,0.0,0.0,0.0,5.0033,5.0219,5.0541,5.0557,5.0422,5.0101,4.9407,4.9001,4.9001,4.9001,4.9154,4.9458,4.9881,5.0405,5.1014,5.1454,5.2063,5.2807,5.2807,5.3061,5.3501,5.3501,5.3501,5.3501,5.3501,5.3501,5.3501,5.3501,5.3501,5.3501,5.3501,5.3501,5.3551,5.3856,5.3957,5.4126,5.5175,5.5513,5.5733,5.69,5.7256,5.734,5.7763,5.7881,5.7881,5.7881,5.7389,5.7039,5.7718,5.7881,5.7881,5.7881,5.7881,5.7881,5.7881,5.7881,5.7881,5.7881,5.7881,5.7628,5.7039,5.687,5.6282,5.4473,5.4305,5.3897,5.2738,5.2649,5.2649,5.2649,5.2649,5.2395,5.1987,5.1896,5.1727,5.1214,5.1214,5.1214,5.1214,5.1214,5.1214,5.1214,5.1214,5.1214,5.1214,5.1214,5.1214,0.0,0.0,0.0,0.0,0.0,0.0,4.797,4.7573,4.7485,0.0,0.0,0.0,0.0,0.0,0.0,0.0,0.0,0.0,0.0,0.0,0.0,0.0,0.0,0.0,5.115,5.0676,5.0625,5.1285,5.1268,5.0896,5.0135,4.9475,4.912,4.912,4.9204,4.956,5.0202,5.0287,5.0997,5.23,5.2384,5.2807,5.3501,5.3501,5.3501,5.3501,5.3501,5.3501,5.3501,5.3501,5.3501,5.3501,5.3501,5.3501,5.3501,5.3501,5.3551,5.3704,5.4279,5.4583,5.4938,5.6258,5.6731,5.6934,5.7679,5.7881,5.7881,5.7881,5.7881,5.7881,5.7881,5.7881,5.7881,5.7881,5.7881,5.7881,5.7881,5.7881,5.7881,5.7881,5.7881,5.7881,5.7881,5.7881,5.7881,5.7881,5.7881,5.7463,5.636,5.6204,5.5794,5.4739,5.4589,5.4589,5.4589,5.4589,5.4168,5.3149,5.2989,5.2485,5.1479,5.1308,5.1214,5.1214,5.1214,5.1214,5.1214,5.1214,5.1214,5.1214,5.1214,5.1214,0.0,0.0,0.0,0.0,0.0,0.0,0.0,4.7048,4.7741,0.0,0.0,0.0,0.0,0.0,0.0,0.0,0.0,0.0,0.0,0.0,0.0,0.0,0.0,0.0,5.12,5.1623,5.1928,5.208,5.1555,5.0896,5.0135,4.9949,4.9881,4.9881,5.0473,5.0845,5.0997,5.1572,5.2012,5.2317,5.2959,5.3348,5.3501,5.3501,5.3501,5.3501,5.3501,5.3501,5.3501,5.3501,5.3501,5.3501,5.3501,5.3501,5.3501,5.3501,5.3873,5.4313,5.3873,5.4499,5.5547,5.5835,5.6325,5.6934,5.7679,5.7881,5.7881,5.7881,5.7881,5.7881,5.7881,5.7881,5.7881,5.7881,5.7881,5.7881,5.7881,5.7881,5.7881,5.7881,5.7881,5.7881,5.7881,5.7881,5.7881,5.7881,5.7881,5.7463,5.636,5.6204,5.5794,5.4739,5.4589,5.4589,5.4589,5.4589,5.4505,5.4253,5.3412,5.2827,5.2575,5.1727,5.1214,5.1214,5.1214,5.1214,5.1214,5.1214,5.1214,5.1214,5.1214,5.1214,0.0,0.0,0.0,4.4944,0.0,0.0,0.0,0.0,4.7808,4.931,0.0,0.0,0.0,0.0,0.0,0.0,0.0,0.0,0.0,0.0,0.0,0.0,0.0,0.0,5.2317,5.2334,5.2469,5.2875,5.2198,5.1437,5.0693,5.0659,5.0473,5.0101,5.0828,5.1403,5.1758,5.2131,5.2503,5.2909,5.3315,5.3501,5.3501,5.3501,5.3501,5.3501,5.3501,5.3501,5.3501,5.3501,5.3501,5.3501,5.3501,5.3501,5.3501,5.3501,5.3737,5.4093,5.4482,5.5091,5.5835,5.6562,5.7053,5.7408,5.778,5.7881,5.7881,5.7881,5.7881,5.7881,5.7881,5.7881,5.7881,5.7881,5.7881,5.7881,5.7881,5.7881,5.7881,5.7881,5.7881,5.7881,5.7881,5.7881,5.7881,5.7881,5.7881,5.7718,5.7131,5.7039,5.687,5.6315,5.6237,5.6237,5.6237,5.6237,5.5985,5.5393,5.4888,5.4052,5.2989,5.2305,5.1804,5.1214,5.1214,5.1214,5.1214,5.1214,5.1214,5.1214,5.1214,5.1214,0.0,0.0,0.0,0.0,0.0,4.6112,0.0,0.0,0.0,4.909,0.0,0.0,0.0,0.0,0.0,0.0,0.0,0.0,0.0,0.0,0.0,0.0,0.0,0.0,0.0,5.2942,5.2762,5.3433,5.2617,5.1854,5.1437,5.142,5.115,5.0524,5.1251,5.1944,5.2536,5.2536,5.2858,5.3501,5.3501,5.3501,5.3501,5.3501,5.3501,5.3501,5.3501,5.3501,5.3501,5.3501,5.3501,5.3501,5.3501,5.3501,5.3501,5.3501,5.3687,5.4076,5.5124,5.5784,5.6308,5.734,5.7763,5.7881,5.7881,5.7881,5.7881,5.7881,5.7881,5.7881,5.7881,5.7881,5.7881,5.7881,5.7881,5.7881,5.7881,5.7881,5.7881,5.7881,5.7881,5.7881,5.7881,5.7881,5.7881,5.7881,5.7881,5.7881,5.7881,5.7881,5.7881,5.7881,5.7881,5.7881,5.7881,5.7881,5.7537,5.6624,5.6282,5.5377,5.3656,5.3149,5.2485,5.1557,5.1293,5.1214,5.1214,5.1214,5.1214,5.1214,5.1214,5.1214,0.0,0.0,0.0,0.0,4.6353,0.0,0.0,0.0,4.8247,4.8434,0.0,0.0,0.0,0.0,0.0,0.0,0.0,0.0,0.0,0.0,0.0,0.0,0.0,0.0,0.0,5.3655,5.3269,5.3516,5.2124,5.1501,5.2114,5.2181,5.2147,5.2046,5.2824,5.3281,5.3365,5.3365,5.3416,5.3501,5.3501,5.3501,5.3501,5.3501,5.3501,5.3501,5.3501,5.3501,5.3501,5.3501,5.3501,5.3501,5.3501,5.3501,5.3501,5.3501,5.4346,5.5395,5.4888,5.6004,5.756,5.707,5.7357,5.7881,5.7881,5.7881,5.7881,5.7881,5.7881,5.7881,5.7881,5.7881,5.7881,5.7881,5.7881,5.7881,5.7881,5.7881,5.7881,5.7881,5.7881,5.7881,5.7881,5.7881,5.7881,5.7881,5.7881,5.7881,5.7881,5.7881,5.7881,5.7881,5.7881,5.7881,5.7881,5.7881,5.7808,5.7718,5.6778,5.6109,5.5873,5.3967,5.2827,5.2738,5.1727,5.1214,5.1214,5.1214,5.1214,5.1214,5.1214,5.1214,0.0,0.0,0.0,0.0,0.0,0.0,0.0,0.0,4.8306,0.0,0.0,0.0,0.0,0.0,0.0,0.0,0.0,0.0,0.0,0.0,0.0,0.0,0.0,0.0,0.0,0.0,0.0,0.0,5.2381,5.1682,5.1623,5.252,5.279,5.2317,5.3078,5.3501,5.3501,5.3501,5.3501,5.3501,5.3501,5.3501,5.3501,5.3501,5.3501,5.3501,5.3501,5.3501,5.3501,5.3501,5.3501,5.3501,5.3501,5.3501,5.3551,5.3974,5.4532,5.5141,5.5683,5.6478,5.7273,5.7391,5.7645,5.7881,5.7881,5.7881,5.7881,5.7881,5.7881,5.7881,5.7881,5.7881,5.7881,5.7881,5.7881,5.7881,5.7881,5.7881,5.7881,5.7881,5.7881,5.7881,5.7881,5.7881,5.7881,5.7881,5.7881,5.7881,5.7881,5.7881,5.7881,5.7881,5.7881,5.7881,5.7881,5.7881,5.7881,5.7881,5.687,5.6204,5.6204,5.4723,5.3913,5.3913,5.2738,5.2139,5.2139,5.1557,5.1214,5.1214,5.1214,5.1214,4.5933,0.0,0.0,0.0,0.0,0.0,0.0,0.0,0.0,0.0,0.0,0.0,0.0,0.0,0.0,0.0,0.0,0.0,0.0,0.0,0.0,0.0,0.0,0.0,0.0,0.0,0.0,0.0,0.0,5.1807,5.1821,5.2864,5.3175,5.2655,5.3196,5.3501,5.3501,5.3501,5.3501,5.3501,5.3501,5.3501,5.3501,5.3501,5.3501,5.3501,5.3501,5.3501,5.3501,5.3501,5.3501,5.3518,5.3721,5.3805,5.3873,5.4397,5.4718,5.5074,5.6359,5.6934,5.7188,5.7729,5.7881,5.7881,5.7881,5.7881,5.7881,5.7881,5.7881,5.7881,5.7881,5.7881,5.7881,5.7881,5.7881,5.7881,5.7881,5.7881,5.7881,5.7881,5.7881,5.7881,5.7881,5.7881,5.7881,5.7881,5.7881,5.7881,5.7881,5.7881,5.7881,5.7881,5.7881,5.7881,5.7881,5.7881,5.7881,5.7881,5.7131,5.6701,5.6701,5.5651,5.5068,5.5068,5.3913,5.3412,5.3324,5.223,5.1635,5.1635,5.1386,5.1214,0.0,0.0,0.0,4.6368,0.0,0.0,0.0,0.0,4.8306,0.0,0.0,0.0,0.0,0.0,0.0,0.0,0.0,0.0,0.0,0.0,0.0,0.0,0.0,0.0,0.0,0.0,0.0,0.0,0.0,0.0,5.3229,5.3376,5.3398,5.3433,5.3501,5.3501,5.3501,5.3501,5.3501,5.3501,5.3501,5.3501,5.3501,5.3501,5.3501,5.3501,5.3501,5.3501,5.3501,5.3501,5.3501,5.3568,5.4279,5.4549,5.4566,5.4583,5.5057,5.5784,5.6545,5.7256,5.7865,5.7881,5.7881,5.7881,5.7881,5.7881,5.7881,5.7881,5.7881,5.7881,5.7881,5.7881,5.7881,5.7881,5.7881,5.7881,5.7881,5.7881,5.7881,5.7881,5.7881,5.7881,5.7881,5.7881,5.7881,5.7881,5.7881,5.7881,5.7881,5.7881,5.7881,5.7881,5.7881,5.7881,5.7881,5.7881,5.7881,5.7881,5.7881,5.7881,5.7881,5.6778,5.6126,5.6126,5.5068,5.4589,5.4505,5.3412,5.2827,5.2812,5.1727,5.1214,0.0,0.0,4.7204,4.641,0.0,0.0,0.0,0.0,0.0,0.0,0.0,0.0,0.0,0.0,0.0,0.0,0.0,0.0,0.0,0.0,0.0,0.0,0.0,0.0,0.0,0.0,0.0,0.0,5.1958,0.0,0.0,5.3088,5.3435,5.3415,5.3462,5.3501,5.3501,5.3501,5.3501,5.3501,5.3501,5.3501,5.3501,5.3501,5.3501,5.3501,5.3501,5.3501,5.3501,5.3501,5.3788,5.4245,5.4499,5.4905,5.5395,5.5886,5.6207,5.6528,5.7273,5.7679,5.7881,5.7881,5.7881,5.7881,5.7881,5.7881,5.7881,5.7881,5.7881,5.7881,5.7881,5.7881,5.7881,5.7881,5.7881,5.7881,5.7881,5.7881,5.7881,5.7881,5.7881,5.7881,5.7881,5.7881,5.7881,5.7881,5.7881,5.7881,5.7881,5.7881,5.7881,5.7881,5.7881,5.7881,5.7881,5.7881,5.7881,5.7881,5.7881,5.7881,5.7881,5.7537,5.7297,5.7297,5.622,5.5634,5.5634,5.4573,5.3999,5.3999,5.2812,5.1896,4.7715,4.7715,0.0,4.6735,4.7411,0.0,4.7297,0.0,0.0,0.0,0.0,0.0,0.0,0.0,0.0,0.0,0.0,0.0,0.0,0.0,0.0,0.0,0.0,0.0,0.0,0.0,5.2066,5.2481,0.0,0.0,0.0,0.0,5.3982,5.342,5.3994,5.3994,5.3501,5.3783,5.3783,5.3501,5.3501,5.3501,5.3501,5.3501,5.3501,5.3501,5.3501,5.3501,5.3518,5.3788,5.416,5.4634,5.5175,5.5666,5.6156,5.663,5.6968,5.7256,5.7729,5.7881,5.7881,5.7881,5.7881,5.7881,5.7881,5.7881,5.7881,5.7881,5.7881,5.7881,5.7881,5.7881,5.7881,5.7881,5.7881,5.7881,5.7881,5.7881,5.7881,5.7881,5.7881,5.7881,5.7881,5.7881,5.7881,5.7881,5.7881,5.7881,5.7881,5.7881,5.7881,5.7881,5.7881,5.7881,5.7881,5.7881,5.7881,5.7881,5.7881,5.7881,5.7881,5.7881,5.7881,5.7881,5.7206,5.6794,5.6794,5.5714,5.515,5.515,5.3569,5.2485]},{"header":{"parameterUnit":"m.s-1","parameterCategory":1,"la1":30.6,"la2":29.2853,"lo1":-89.7004,"lo2":-87.6739,"dy":0.0162,"dx":0.0183,"nx":112,"ny":82,"refTime":"2025-04-07T12:00:00:Z","depth":0,"parameterNumber":3,"parameterNumberName":"V-component_of_WINDS"},"data":[0.0,0.0,0.0,0.0,0.0,0.0,0.0,0.0,0.0,0.0,0.0,0.0,0.0,0.0,0.0,0.0,0.0,0.0,0.0,0.0,0.0,0.0,0.0,0.0,0.0,0.0,0.0,0.0,0.0,0.0,0.0,0.0,0.0,0.0,0.0,0.0,0.0,0.0,0.0,0.0,0.0,0.0,0.0,0.0,0.0,0.0,0.0,0.0,0.0,0.0,0.0,0.0,0.0,0.0,0.0,0.0,0.0,0.0,0.0,0.0,0.0,0.0,0.0,0.0,0.0,0.0,0.0,0.0,0.0,0.0,0.0,0.0,0.0,0.0,0.0,0.0,0.0,0.0,0.0,0.0,0.0,0.0,0.0,0.0,0.0,0.0,0.0,0.0,0.0,0.0,0.0,-3.1687,-3.2503,-3.3081,-3.3081,-3.2993,-3.2503,-3.1461,0.0,0.0,0.0,0.0,0.0,0.0,0.0,0.0,0.0,0.0,0.0,0.0,0.0,0.0,0.0,0.0,0.0,0.0,0.0,0.0,0.0,0.0,0.0,0.0,0.0,0.0,0.0,0.0,0.0,0.0,0.0,0.0,0.0,0.0,0.0,0.0,0.0,0.0,0.0,0.0,0.0,0.0,0.0,0.0,0.0,0.0,0.0,0.0,0.0,0.0,0.0,0.0,0.0,0.0,0.0,0.0,0.0,0.0,0.0,0.0,0.0,0.0,0.0,0.0,0.0,0.0,0.0,0.0,0.0,0.0,0.0,0.0,0.0,0.0,0.0,0.0,0.0,0.0,0.0,0.0,0.0,0.0,0.0,0.0,0.0,0.0,0.0,0.0,0.0,0.0,0.0,0.0,0.0,0.0,0.0,0.0,0.0,0.0,0.0,0.0,0.0,0.0,0.0,0.0,-3.1851,-3.2729,-3.298,-3.3081,-3.3081,-3.2629,-3.2064,-3.1436,0.0,0.0,0.0,0.0,0.0,0.0,0.0,0.0,0.0,0.0,0.0,0.0,0.0,0.0,0.0,0.0,0.0,0.0,0.0,0.0,0.0,0.0,0.0,0.0,0.0,0.0,0.0,0.0,0.0,0.0,0.0,0.0,0.0,0.0,0.0,0.0,0.0,0.0,0.0,0.0,0.0,0.0,0.0,0.0,0.0,0.0,0.0,0.0,0.0,0.0,0.0,0.0,0.0,0.0,0.0,0.0,0.0,0.0,0.0,0.0,0.0,0.0,0.0,0.0,0.0,0.0,0.0,0.0,0.0,0.0,0.0,0.0,0.0,0.0,0.0,0.0,0.0,0.0,0.0,0.0,0.0,0.0,0.0,0.0,0.0,0.0,0.0,0.0,0.0,0.0,0.0,0.0,0.0,0.0,0.0,0.0,0.0,0.0,0.0,0.0,0.0,0.0,0.0,-3.1273,-3.1825,-3.2955,-3.3081,-3.3081,-3.3081,-3.283,-3.2315,-3.1449,-3.1386,0.0,0.0,0.0,0.0,0.0,0.0,0.0,0.0,0.0,0.0,0.0,0.0,0.0,0.0,0.0,0.0,0.0,0.0,0.0,0.0,0.0,0.0,0.0,0.0,0.0,0.0,0.0,0.0,0.0,0.0,0.0,0.0,0.0,0.0,0.0,0.0,0.0,0.0,0.0,0.0,0.0,0.0,0.0,0.0,0.0,0.0,0.0,0.0,0.0,0.0,0.0,0.0,0.0,0.0,0.0,0.0,0.0,0.0,0.0,0.0,0.0,0.0,0.0,0.0,0.0,0.0,0.0,0.0,0.0,0.0,0.0,0.0,0.0,0.0,0.0,0.0,0.0,0.0,0.0,0.0,0.0,0.0,0.0,0.0,0.0,0.0,0.0,0.0,0.0,0.0,0.0,0.0,0.0,0.0,0.0,0.0,0.0,0.0,0.0,0.0,0.0,0.0,-3.18,-3.2114,-3.298,-3.3081,-3.3081,-3.3081,-3.2955,-3.2453,-3.1449,-3.1273,0.0,0.0,0.0,0.0,0.0,0.0,0.0,0.0,0.0,0.0,0.0,0.0,0.0,0.0,0.0,0.0,0.0,0.0,0.0,0.0,0.0,0.0,0.0,0.0,0.0,0.0,0.0,0.0,0.0,0.0,0.0,0.0,0.0,0.0,0.0,0.0,0.0,0.0,0.0,0.0,0.0,0.0,0.0,0.0,0.0,0.0,0.0,0.0,0.0,0.0,0.0,0.0,0.0,0.0,0.0,0.0,0.0,0.0,0.0,0.0,0.0,0.0,0.0,0.0,0.0,0.0,0.0,0.0,0.0,0.0,0.0,0.0,0.0,0.0,0.0,0.0,0.0,0.0,0.0,0.0,0.0,0.0,0.0,0.0,0.0,0.0,0.0,0.0,0.0,0.0,0.0,0.0,0.0,0.0,0.0,0.0,0.0,0.0,0.0,0.0,0.0,0.0,-3.2039,-3.2993,-3.3068,-3.3081,-3.3081,-3.3081,-3.2591,-3.2014,-3.1436,-3.0934,0.0,0.0,0.0,0.0,0.0,0.0,0.0,0.0,0.0,0.0,0.0,0.0,0.0,0.0,0.0,0.0,0.0,0.0,0.0,0.0,0.0,0.0,0.0,0.0,0.0,0.0,0.0,0.0,0.0,0.0,0.0,0.0,0.0,0.0,0.0,0.0,0.0,0.0,0.0,0.0,0.0,0.0,0.0,0.0,0.0,0.0,0.0,0.0,0.0,0.0,0.0,0.0,0.0,0.0,0.0,0.0,0.0,0.0,0.0,0.0,0.0,0.0,0.0,0.0,0.0,0.0,0.0,0.0,0.0,0.0,0.0,0.0,0.0,0.0,0.0,0.0,0.0,0.0,0.0,0.0,0.0,0.0,0.0,0.0,0.0,0.0,0.0,0.0,0.0,0.0,0.0,0.0,0.0,0.0,0.0,0.0,0.0,0.0,0.0,0.0,0.0,0.0,-3.1738,-3.2679,0.0,-3.3081,-3.3081,-3.3081,-3.2554,-3.1838,-3.0959,0.0,0.0,0.0,0.0,0.0,0.0,0.0,0.0,0.0,0.0,0.0,0.0,0.0,0.0,0.0,0.0,0.0,0.0,0.0,0.0,0.0,0.0,0.0,0.0,0.0,0.0,0.0,0.0,0.0,0.0,0.0,0.0,0.0,0.0,0.0,0.0,0.0,0.0,0.0,0.0,0.0,0.0,0.0,0.0,0.0,0.0,0.0,0.0,0.0,0.0,0.0,0.0,0.0,0.0,0.0,0.0,0.0,0.0,0.0,0.0,0.0,0.0,0.0,0.0,0.0,0.0,0.0,0.0,0.0,0.0,0.0,0.0,0.0,0.0,0.0,0.0,0.0,0.0,0.0,0.0,0.0,0.0,0.0,0.0,0.0,0.0,0.0,0.0,0.0,0.0,0.0,0.0,0.0,0.0,0.0,0.0,0.0,0.0,0.0,0.0,0.0,0.0,-3.0256,-3.1599,-3.2641,0.0,-3.3081,-3.3081,-3.3081,-3.239,-3.1574,-3.067,0.0,0.0,0.0,0.0,0.0,0.0,0.0,0.0,0.0,0.0,0.0,0.0,0.0,0.0,0.0,0.0,0.0,0.0,0.0,0.0,0.0,0.0,0.0,0.0,0.0,0.0,0.0,0.0,0.0,0.0,0.0,0.0,0.0,0.0,0.0,0.0,0.0,0.0,0.0,0.0,0.0,0.0,0.0,0.0,0.0,0.0,0.0,0.0,0.0,0.0,0.0,0.0,0.0,0.0,0.0,0.0,0.0,0.0,0.0,0.0,0.0,0.0,0.0,0.0,0.0,0.0,0.0,0.0,0.0,0.0,0.0,0.0,0.0,0.0,0.0,0.0,0.0,0.0,0.0,0.0,0.0,0.0,0.0,0.0,0.0,0.0,0.0,0.0,0.0,0.0,0.0,0.0,0.0,0.0,0.0,0.0,0.0,0.0,0.0,0.0,0.0,0.0,-2.9792,-3.1712,-3.3081,-3.3081,-3.3081,-3.3081,-3.3081,-3.2039,-3.1173,0.0,0.0,0.0,0.0,0.0,0.0,0.0,0.0,0.0,0.0,0.0,0.0,0.0,0.0,0.0,0.0,0.0,0.0,0.0,0.0,0.0,0.0,0.0,0.0,0.0,0.0,0.0,0.0,0.0,0.0,0.0,0.0,0.0,0.0,0.0,0.0,0.0,0.0,0.0,0.0,0.0,0.0,0.0,0.0,0.0,0.0,0.0,0.0,0.0,0.0,0.0,0.0,0.0,0.0,0.0,0.0,0.0,0.0,0.0,0.0,0.0,0.0,0.0,0.0,0.0,0.0,0.0,0.0,0.0,0.0,0.0,0.0,0.0,0.0,0.0,0.0,0.0,0.0,0.0,0.0,0.0,0.0,0.0,0.0,0.0,0.0,0.0,0.0,0.0,0.0,0.0,0.0,0.0,0.0,0.0,0.0,0.0,0.0,0.0,0.0,0.0,0.0,0.0,-2.9792,-3.1712,-3.3081,-3.3081,-3.3081,-3.3081,-3.3081,-3.2039,-3.0997,-3.0093,0.0,0.0,0.0,0.0,0.0,0.0,0.0,0.0,0.0,0.0,0.0,0.0,0.0,0.0,0.0,0.0,0.0,0.0,0.0,0.0,0.0,0.0,0.0,0.0,0.0,0.0,0.0,0.0,0.0,0.0,0.0,0.0,0.0,0.0,0.0,0.0,0.0,0.0,0.0,0.0,0.0,0.0,0.0,0.0,0.0,0.0,0.0,0.0,0.0,0.0,0.0,0.0,0.0,0.0,0.0,0.0,0.0,0.0,0.0,0.0,0.0,0.0,0.0,0.0,0.0,0.0,0.0,0.0,0.0,0.0,0.0,0.0,0.0,0.0,0.0,0.0,0.0,0.0,0.0,0.0,0.0,0.0,0.0,0.0,0.0,0.0,0.0,0.0,0.0,0.0,0.0,0.0,0.0,0.0,0.0,0.0,0.0,0.0,0.0,0.0,0.0,0.0,-2.9792,-3.1712,-3.3081,-3.3081,-3.3081,-3.3081,-3.3081,-3.2039,-3.0934,-2.9867,0.0,0.0,0.0,0.0,0.0,0.0,0.0,0.0,0.0,0.0,0.0,0.0,0.0,0.0,0.0,0.0,0.0,0.0,0.0,0.0,0.0,0.0,0.0,0.0,0.0,0.0,0.0,0.0,0.0,0.0,0.0,0.0,0.0,0.0,0.0,0.0,0.0,0.0,0.0,0.0,0.0,0.0,0.0,0.0,0.0,0.0,0.0,0.0,0.0,0.0,0.0,0.0,0.0,0.0,0.0,0.0,0.0,0.0,0.0,0.0,0.0,0.0,0.0,0.0,0.0,0.0,0.0,0.0,0.0,0.0,0.0,0.0,0.0,0.0,0.0,0.0,0.0,0.0,0.0,0.0,0.0,0.0,0.0,0.0,0.0,0.0,0.0,0.0,0.0,0.0,0.0,0.0,0.0,0.0,0.0,0.0,0.0,0.0,0.0,0.0,0.0,0.0,-2.9792,-3.1712,-3.3081,-3.3081,-3.3081,-3.3056,-3.3006,-3.2014,-3.0934,-2.9867,0.0,0.0,0.0,0.0,0.0,0.0,0.0,0.0,0.0,0.0,0.0,0.0,0.0,0.0,0.0,0.0,0.0,0.0,0.0,0.0,0.0,0.0,0.0,0.0,0.0,0.0,0.0,0.0,0.0,0.0,0.0,0.0,0.0,0.0,0.0,0.0,0.0,0.0,0.0,0.0,0.0,0.0,0.0,0.0,0.0,0.0,0.0,0.0,0.0,0.0,0.0,0.0,0.0,0.0,0.0,0.0,0.0,0.0,0.0,0.0,-3.2164,0.0,0.0,0.0,0.0,0.0,0.0,0.0,0.0,0.0,0.0,0.0,0.0,0.0,0.0,0.0,0.0,0.0,0.0,0.0,0.0,0.0,0.0,0.0,0.0,0.0,0.0,0.0,0.0,0.0,0.0,0.0,0.0,0.0,0.0,0.0,0.0,0.0,0.0,0.0,0.0,0.0,-2.9792,-3.1712,-3.3081,-3.3081,-3.3081,-3.2893,-3.2441,-3.1775,-3.0934,-2.9867,-2.8624,0.0,0.0,0.0,0.0,0.0,0.0,0.0,0.0,0.0,0.0,0.0,0.0,0.0,0.0,0.0,0.0,0.0,0.0,0.0,0.0,0.0,0.0,0.0,0.0,0.0,0.0,0.0,0.0,0.0,0.0,0.0,0.0,0.0,0.0,0.0,0.0,0.0,0.0,0.0,0.0,0.0,0.0,0.0,0.0,0.0,0.0,0.0,0.0,0.0,0.0,0.0,0.0,0.0,0.0,0.0,0.0,0.0,0.0,0.0,0.0,-3.2541,0.0,0.0,0.0,0.0,0.0,0.0,0.0,0.0,0.0,0.0,0.0,0.0,0.0,0.0,0.0,0.0,0.0,0.0,0.0,0.0,0.0,0.0,0.0,0.0,0.0,0.0,0.0,0.0,0.0,0.0,0.0,0.0,0.0,0.0,0.0,0.0,0.0,0.0,0.0,0.0,-3.0156,-3.1876,-3.3081,-3.3081,-3.3081,-3.2842,-3.2265,-3.1712,-3.0934,-2.9867,-2.8725,0.0,0.0,0.0,0.0,0.0,0.0,0.0,0.0,0.0,0.0,0.0,0.0,0.0,0.0,0.0,0.0,0.0,0.0,0.0,0.0,0.0,0.0,0.0,0.0,0.0,0.0,0.0,0.0,0.0,0.0,0.0,0.0,0.0,0.0,0.0,0.0,0.0,0.0,0.0,0.0,0.0,0.0,0.0,0.0,0.0,0.0,0.0,0.0,0.0,0.0,0.0,0.0,0.0,-3.2365,-3.2365,-3.2365,-3.2365,-3.2365,-3.2365,-3.2365,-3.2641,-3.3081,0.0,0.0,0.0,0.0,0.0,0.0,0.0,0.0,0.0,0.0,0.0,0.0,0.0,0.0,0.0,0.0,0.0,0.0,0.0,0.0,0.0,0.0,0.0,0.0,0.0,-3.0419,-3.0369,0.0,0.0,0.0,0.0,0.0,0.0,0.0,0.0,0.0,0.0,0.0,0.0,-3.0545,-3.2051,-3.3081,-3.3081,-3.3081,-3.2805,-3.2127,-3.165,-3.0934,-2.9867,-2.8825,-2.7846,0.0,0.0,0.0,0.0,0.0,0.0,0.0,0.0,0.0,0.0,0.0,0.0,0.0,0.0,0.0,0.0,0.0,0.0,0.0,0.0,0.0,0.0,0.0,0.0,0.0,0.0,0.0,0.0,0.0,0.0,0.0,0.0,-3.3081,-3.3081,0.0,0.0,0.0,0.0,0.0,0.0,0.0,0.0,0.0,0.0,0.0,0.0,0.0,-3.2528,-3.2955,-3.2968,-3.2968,-3.2968,-3.2968,-3.2968,-3.2968,-3.2968,-3.2968,-3.2968,-3.2968,0.0,-3.3081,-3.3081,0.0,0.0,0.0,0.0,0.0,0.0,0.0,0.0,0.0,0.0,0.0,0.0,0.0,0.0,0.0,0.0,0.0,0.0,0.0,0.0,0.0,0.0,-3.1775,-3.1298,-3.1235,-3.1223,0.0,-3.0281,-2.9478,-2.8837,-2.8775,0.0,0.0,0.0,0.0,0.0,0.0,0.0,-3.0545,-3.2051,-3.3081,-3.3081,-3.3081,-3.2654,-3.1587,-3.1436,-3.0934,-2.9867,-2.9189,-2.875,-2.8612,-2.7872,0.0,0.0,0.0,0.0,0.0,0.0,0.0,0.0,0.0,0.0,0.0,0.0,0.0,0.0,0.0,0.0,0.0,0.0,0.0,0.0,0.0,0.0,0.0,0.0,0.0,0.0,0.0,0.0,0.0,-3.3081,-3.3081,-3.3081,-3.3081,-3.3081,0.0,0.0,0.0,0.0,0.0,0.0,0.0,0.0,0.0,-3.3068,-3.283,-3.2817,-3.3081,-3.3081,-3.3081,-3.3081,-3.3081,-3.3081,-3.3081,-3.3081,-3.3081,-3.3081,-3.3081,-3.3081,-3.3081,-3.3081,-3.3081,-3.3043,0.0,0.0,0.0,0.0,-3.1863,-3.1486,-3.2114,-3.2127,0.0,0.0,0.0,0.0,0.0,0.0,0.0,0.0,0.0,0.0,0.0,0.0,0.0,-3.2315,-3.234,-3.234,-3.234,-3.1976,-3.1286,0.0,-3.0118,-2.9842,-2.836,0.0,0.0,0.0,0.0,0.0,-3.1411,-3.2428,-3.3081,-3.3081,-3.3081,-3.2742,-3.1913,-3.1851,-3.1399,-3.0319,-3.0018,-2.9591,-2.895,-2.8575,-2.8131,0.0,0.0,0.0,0.0,0.0,0.0,0.0,0.0,0.0,0.0,0.0,0.0,0.0,0.0,0.0,0.0,0.0,0.0,0.0,0.0,0.0,0.0,0.0,0.0,0.0,0.0,0.0,0.0,-3.3206,-3.3232,-3.3093,-3.3206,-3.3232,0.0,0.0,0.0,0.0,0.0,0.0,-3.3081,-3.3081,-3.3081,-3.3081,-3.3081,-3.3081,-3.3081,-3.3081,-3.3081,-3.3081,-3.3081,-3.3081,-3.3081,-3.3081,-3.3081,-3.3081,-3.3081,-3.3081,-3.3081,-3.3081,-3.3081,-3.3031,-3.2604,-3.2441,-3.2441,-3.2441,-3.2177,-3.1938,-3.278,-3.2792,-3.2441,-3.2441,0.0,-3.1524,-3.1135,0.0,0.0,0.0,0.0,-3.1725,-3.229,-3.2441,-3.2541,-3.2968,-3.3081,-3.3081,-3.3081,-3.3081,-3.2667,0.0,-3.1336,-3.1035,-2.9252,0.0,0.0,0.0,0.0,-3.1148,-3.2089,-3.2717,-3.3081,-3.3081,-3.3081,-3.2842,-3.2265,-3.2215,-3.1813,-3.0871,-3.0809,-3.0511,-2.9961,-2.9869,-2.9666,-2.9295,0.0,0.0,0.0,0.0,0.0,0.0,0.0,0.0,0.0,0.0,0.0,0.0,0.0,0.0,0.0,0.0,0.0,0.0,0.0,0.0,0.0,0.0,0.0,0.0,0.0,0.0,0.0,0.0,0.0,-3.3144,-3.3533,0.0,0.0,0.0,0.0,-3.3081,-3.3081,-3.3081,-3.3081,-3.3081,-3.3081,-3.3081,-3.3081,-3.3081,-3.3081,-3.3081,-3.3081,-3.3081,-3.3081,-3.3081,-3.3081,-3.3081,-3.3081,-3.3081,-3.3081,-3.3081,-3.3081,-3.3081,-3.3081,-3.3081,-3.3043,-3.3031,-3.3031,-3.3031,-3.3018,-3.3006,-3.3056,-3.3056,-3.3031,-3.3031,-3.2641,-3.2164,-3.2139,-3.1763,0.0,0.0,-3.2177,-3.2303,-3.288,-3.3031,-3.3043,-3.3068,-3.3081,-3.3081,-3.3081,-3.3081,-3.2893,0.0,-3.2152,-3.1976,-3.1336,0.0,-3.0696,-3.1198,-3.1311,-3.1562,-3.2139,-3.2717,-3.3081,-3.3081,-3.3081,-3.2842,-3.2265,-3.2215,-3.1964,-3.1386,-3.1348,-3.1796,-3.2738,-3.2482,-3.2764,-3.3704,-3.2144,0.0,0.0,0.0,0.0,0.0,0.0,0.0,0.0,0.0,0.0,0.0,0.0,0.0,0.0,0.0,0.0,0.0,0.0,0.0,0.0,0.0,0.0,0.0,0.0,0.0,0.0,0.0,0.0,-3.3633,-3.4098,0.0,-3.4161,-3.4135,-3.4135,-3.4135,-3.4135,-3.4135,-3.4135,-3.4135,-3.4135,-3.4135,-3.3796,-3.3608,-3.3608,-3.3257,-3.3081,-3.3081,-3.3081,-3.3081,-3.3081,-3.3081,-3.3081,-3.3081,-3.3081,-3.3081,-3.3081,-3.3081,-3.3081,-3.3081,-3.3081,-3.3081,-3.3081,-3.3081,-3.3081,-3.3081,-3.3081,-3.3081,-3.3081,-3.3081,-3.293,-3.2767,-3.2767,-3.2629,-3.2516,-3.2717,-3.2767,-3.2817,-3.3018,-3.3081,-3.3081,-3.3081,-3.3081,-3.3081,-3.3081,-3.3081,-3.3018,-3.2805,-3.2767,-3.2478,-3.1549,-3.1537,-3.1587,-3.1411,-3.1687,-3.2127,-3.2692,-3.2955,-3.3081,-3.3081,-3.3081,-3.2993,-3.278,-3.2767,-3.2528,-3.1951,-3.1913,-3.223,-3.2961,-3.2475,-3.2718,-3.3959,-3.2614,-3.1615,0.0,0.0,0.0,0.0,0.0,0.0,0.0,0.0,0.0,0.0,0.0,0.0,0.0,0.0,0.0,0.0,0.0,0.0,0.0,0.0,0.0,0.0,0.0,0.0,0.0,0.0,-3.4173,-3.4173,-3.4663,-3.4926,-3.4738,-3.4726,-3.4726,-3.4726,-3.4726,-3.4726,-3.4726,-3.4726,-3.4726,-3.4726,-3.4374,-3.4085,-3.3897,-3.3533,-3.3257,-3.3081,-3.3081,-3.3081,-3.3081,-3.3471,-3.3641,-3.3628,-3.4024,-3.4178,-3.4178,-3.4178,-3.4178,-3.4095,-3.3398,-3.3081,-3.3081,-3.3081,-3.3081,-3.3081,-3.3081,-3.3081,-3.3081,-3.3081,-3.3081,-3.3081,-3.3081,-3.3081,-3.3081,-3.3081,-3.3081,-3.3081,-3.3081,-3.3081,-3.3081,-3.3081,-3.3081,-3.3081,-3.3081,-3.3081,-3.3081,-3.3081,-3.3081,-3.2842,-3.2089,-3.2265,-3.2378,-3.2014,-3.2265,-3.2641,-3.3031,-3.3081,-3.3081,-3.3081,-3.3081,-3.3081,-3.3081,-3.2893,-3.2616,-3.224,-3.2039,-3.2393,-3.3403,-3.28,-3.3239,-3.4797,-3.3375,-3.2353,-3.1795,0.0,0.0,0.0,0.0,0.0,0.0,0.0,0.0,0.0,0.0,0.0,0.0,0.0,0.0,0.0,0.0,0.0,0.0,0.0,0.0,0.0,0.0,0.0,-3.3897,-3.4399,-3.4751,-3.4751,-3.524,-3.5353,-3.4826,-3.4776,-3.4776,-3.4776,-3.4776,-3.4776,-3.4776,-3.4776,-3.4776,-3.4776,-3.4751,-3.4487,-3.3935,-3.3909,-3.3621,-3.3081,-3.3154,-3.3154,-3.3154,-3.4275,-3.4746,-3.4828,-3.5734,-3.6198,-3.6198,-3.6198,-3.6198,-3.5974,-3.4024,-3.3154,-3.3154,-3.3154,-3.3154,-3.3081,-3.3081,-3.3081,-3.3081,-3.3081,-3.3081,-3.3081,-3.3081,-3.3081,-3.3081,-3.3081,-3.3081,-3.3081,-3.3081,-3.3081,-3.3081,-3.3081,-3.3081,-3.3081,-3.3081,-3.3081,-3.3081,-3.3081,-3.3081,-3.3081,-3.3081,-3.3081,-3.3081,-3.3081,-3.3081,0.0,-3.3081,-3.3081,-3.3081,-3.3081,-3.3081,-3.3081,-3.3081,-3.2554,-3.2215,-3.2215,-3.1687,-3.2303,-3.4355,-3.385,-3.4413,-3.6477,-3.4562,-3.323,-3.2572,0.0,0.0,0.0,0.0,0.0,0.0,0.0,0.0,0.0,0.0,0.0,0.0,0.0,0.0,0.0,0.0,0.0,0.0,0.0,0.0,0.0,0.0,-3.3897,-3.3897,-3.4726,-3.5316,-3.5316,-3.5805,-3.6069,-3.5931,-3.5906,-3.5906,-3.5906,-3.5906,-3.5906,-3.5906,-3.5906,-3.5906,-3.5906,-3.5529,-3.5052,-3.45,-3.4098,-3.3621,-3.3081,-3.3869,-3.4275,-3.4262,-3.5359,-3.5814,-3.5814,-3.6053,-3.6198,-3.6198,-3.6198,-3.6198,-3.6119,-3.5574,-3.4884,-3.4275,-3.4275,-3.3797,-3.3081,-3.3081,-3.3081,-3.3081,-3.3081,-3.3081,-3.3081,-3.3081,-3.3081,-3.3081,-3.3081,-3.3081,-3.3081,-3.3081,-3.3081,-3.3081,-3.3081,-3.3081,-3.3081,-3.3081,-3.3081,-3.3081,-3.3081,-3.3081,-3.3081,-3.3081,-3.3081,-3.3081,-3.3081,-3.3081,0.0,-3.3081,-3.3081,-3.3081,-3.3081,-3.3081,-3.3081,-3.3081,-3.2554,-3.2215,-3.2215,-3.2303,-3.3251,-3.5065,-3.5184,-3.5623,-3.6492,-3.5474,-3.4622,0.0,0.0,0.0,0.0,0.0,0.0,0.0,0.0,0.0,0.0,0.0,0.0,0.0,0.0,0.0,0.0,0.0,0.0,0.0,0.0,0.0,0.0,-3.4437,-3.4587,-3.4587,-3.514,-3.5629,-3.5868,-3.6169,-3.6358,-3.6358,-3.6358,-3.6358,-3.6358,-3.6358,-3.6358,-3.6358,-3.6358,-3.6358,-3.6358,-3.6056,-3.5516,-3.4726,-3.4399,-3.3847,-3.3081,-3.4191,-3.4664,-3.4746,-3.6225,-3.6852,0.0,-3.7329,-3.7558,-3.7558,-3.7558,-3.7558,0.0,0.0,0.0,0.0,0.0,-3.4415,-3.3154,-3.3641,-3.3797,-3.3713,-3.324,-3.3398,-3.3713,-3.324,-3.3081,-3.3081,-3.3081,-3.3081,-3.324,-3.3641,-3.3484,-3.324,-3.3628,-3.3398,-3.3081,-3.3081,-3.3081,-3.3081,-3.3081,-3.3081,0.0,-3.3081,-3.3081,-3.3081,-3.3081,-3.3081,-3.3081,-3.3081,-3.3081,-3.3081,-3.3081,-3.3081,-3.3081,-3.3081,-3.2554,0.0,0.0,0.0,-3.3756,-3.5545,-3.6202,0.0,0.0,0.0,0.0,0.0,0.0,0.0,0.0,-3.516,-3.5609,0.0,0.0,0.0,0.0,0.0,0.0,0.0,0.0,0.0,0.0,0.0,0.0,0.0,0.0,0.0,0.0,-3.5228,-3.5567,-3.5629,-3.5642,-3.5818,-3.6307,-3.6358,-3.6358,-3.6358,-3.6358,-3.6358,-3.6358,-3.6358,-3.6358,-3.6358,0.0,0.0,0.0,0.0,-3.5768,-3.4726,-3.4663,-3.411,-3.3081,-3.4191,-3.4746,-3.4979,-3.688,-3.7829,-3.7994,-3.9017,-3.9424,-3.9424,-3.9424,-3.9424,-3.9177,-3.7161,-3.6369,-3.6369,-3.6277,-3.5034,-3.3543,-3.4498,0.0,0.0,-3.3797,-3.4108,-3.4664,-3.3713,-3.3471,-3.3471,-3.3471,-3.3398,-3.3471,-3.4428,-3.3869,-3.3313,-3.4275,-3.3797,-3.3081,-3.3081,-3.3081,-3.3081,-3.3081,-3.3081,-3.3081,-3.3081,-3.3081,-3.3081,-3.3081,-3.3081,-3.3081,-3.3081,-3.3081,-3.3081,-3.3081,0.0,0.0,-3.3081,-3.2554,-3.2593,-3.3524,-3.3384,-3.4162,-3.6158,-3.7138,-3.7599,-3.7524,-3.7524,-3.7524,-3.7524,-3.8108,-3.8123,-3.7614,-3.6402,-3.6432,0.0,0.0,0.0,0.0,0.0,0.0,0.0,0.0,0.0,0.0,0.0,0.0,0.0,0.0,0.0,-3.5303,-3.5386,-3.5705,-3.6144,-3.6207,-3.6245,-3.6358,-3.6358,-3.6358,-3.6358,-3.6358,-3.6358,-3.6358,-3.6358,-3.6358,-3.6358,-3.6358,0.0,-3.6358,-3.5931,-3.5391,-3.4726,-3.4274,-3.3721,-3.3081,0.0,0.0,-3.5974,-3.719,-3.8308,-3.9104,-3.9337,-3.9424,-3.9424,-3.9424,-3.9424,-3.9265,-3.7979,-3.751,-3.742,-3.6526,-3.5974,-3.5654,-3.5814,-3.5894,-3.5894,-3.5654,-3.5734,-3.5894,-3.5654,-3.5574,0.0,-3.5574,-3.5047,-3.4428,-3.4664,-3.3869,-3.3154,-3.3398,-3.324,-3.3081,-3.3081,-3.3081,-3.3081,-3.3081,-3.3081,-3.3081,-3.3081,-3.3081,-3.3081,-3.3081,-3.3081,-3.3081,-3.3081,-3.3081,-3.3081,-3.3081,-3.3081,-3.3081,-3.3081,-3.2554,-3.2286,-3.2523,-3.4073,-3.5845,-3.7816,-3.865,-3.8766,-3.8212,-3.8197,-3.8197,-3.8197,-3.8332,-3.8616,-3.9005,-3.8212,-3.7958,0.0,0.0,0.0,0.0,0.0,0.0,0.0,0.0,0.0,0.0,0.0,-3.4073,0.0,0.0,-3.5316,-3.5868,-3.5956,-3.6056,-3.632,-3.6358,-3.6358,-3.6358,-3.6358,-3.6358,-3.6358,-3.6358,-3.6358,-3.6358,-3.6358,-3.6358,-3.6358,-3.6358,-3.6358,-3.6358,-3.583,-3.5278,-3.4726,-3.4173,-3.3621,-3.3081,-3.4191,-3.521,-3.6212,-3.7343,-3.8383,-3.9424,-3.9424,-3.9424,-3.9424,-3.9424,-3.9424,-3.9337,-3.8782,-3.8308,-3.7829,-3.7814,-3.7084,-3.629,-3.6852,-3.7021,-3.693,-3.6369,-3.6526,-3.693,-3.6369,-3.5814,-3.5588,-3.6053,-3.5116,-3.4275,-3.5855,-3.5061,-3.4191,-3.5224,-3.4664,-3.3869,-3.3869,-3.3471,-3.3081,-3.3081,-3.3081,-3.3081,-3.3081,-3.3081,-3.3081,-3.3081,-3.3081,-3.3081,-3.3081,-3.3081,-3.3081,-3.3081,-3.3081,-3.3081,-3.3081,-3.3739,-3.4188,-3.4188,-3.6249,-3.7827,-3.8829,-3.923,-3.926,-3.8916,-3.8901,-3.8901,-3.8901,-3.8901,-3.908,-3.9409,-3.9065,-3.8901,0.0,0.0,0.0,0.0,0.0,0.0,0.0,0.0,-3.3395,-3.3947,-3.4148,-3.4487,-3.5378,-3.5642,-3.5843,-3.6282,-3.6358,-3.6358,-3.6358,-3.6358,-3.6358,-3.6358,-3.6358,-3.6358,-3.6358,-3.6358,-3.6358,-3.6358,-3.6358,-3.6358,-3.6358,-3.6358,-3.6358,-3.6358,-3.573,-3.5177,-3.4726,-3.4073,-3.352,-3.3081,-3.4191,-3.521,-3.6212,-3.7343,-3.8383,-3.9424,-3.9424,-3.9424,-3.9424,-3.9424,-3.9424,-3.9424,-3.9424,-3.887,-3.8234,-3.9104,-3.8294,-3.693,-3.7829,-3.8069,-3.7979,-3.7084,-3.742,-3.7979,-3.7084,-3.6225,-3.5775,-3.6604,-3.544,-3.4581,-3.7127,-3.6397,-3.5453,-3.7112,-3.6081,-3.4664,-3.4664,-3.3869,-3.3081,-3.3081,-3.3081,-3.3081,-3.3081,-3.3081,-3.3081,-3.3081,-3.3081,-3.3081,-3.3081,-3.3081,-3.3081,-3.3081,-3.3081,-3.3081,-3.3081,-3.4802,-3.5974,-3.6198,-3.8055,-3.9177,-3.9424,-3.9424,-3.9424,-3.9424,-3.9424,-3.9424,-3.9424,-3.9424,-3.9424,-3.9424,-3.9424,-3.9424,-3.3847,-3.3495,0.0,-3.3093,-3.3081,-3.3206,0.0,0.0,-3.396,-3.4512,-3.5014,-3.5403,-3.5516,-3.5943,-3.6282,-3.6358,-3.6358,-3.6358,-3.6358,-3.6358,-3.6358,-3.6358,-3.6358,-3.6358,-3.6358,-3.6358,-3.6358,-3.6358,-3.6358,-3.6358,-3.6358,-3.6358,-3.6358,-3.6358,-3.5353,-3.4788,-3.4726,-3.3684,-3.3131,-3.3081,-3.4191,-3.521,-3.6212,-3.7343,-3.8383,-3.9424,-3.9424,-3.9424,-3.9424,-3.9424,-3.9424,-3.9424,-3.9424,-3.9337,-3.9265,-3.9337,-3.9265,-3.909,-3.9177,-3.9192,-3.9177,-3.909,-3.9104,-3.9177,-3.909,-3.8943,-3.887,-3.9017,-3.8234,-3.7357,-3.7677,-3.6944,-3.6132,-3.629,-3.5521,-3.4664,-3.4664,-3.3869,-3.3081,-3.3081,-3.3081,-3.3081,-3.3081,-3.3081,-3.3081,-3.3081,-3.3081,-3.3081,-3.3081,-3.3081,-3.3081,-3.3081,-3.3081,-3.3081,-3.3081,-3.4191,-3.5278,-3.6119,-3.7343,-3.8383,-3.9337,-3.9424,-3.9424,-3.9424,-3.9424,-3.9424,-3.9424,-3.9424,-3.9424,-3.9424,-3.9424,-3.9424,-3.3985,0.0,0.0,0.0,-3.3796,-3.4098,-3.4324,-3.4374,-3.4537,-3.509,-3.5378,-3.5642,-3.5968,-3.6207,-3.6358,0.0,-3.6358,-3.6358,-3.6358,-3.6358,-3.6358,-3.6358,-3.6358,-3.6358,-3.6358,-3.6358,-3.6358,-3.6358,-3.6358,-3.6358,-3.6358,-3.6358,-3.6358,-3.6358,-3.529,-3.4726,-3.4726,-3.3633,-3.3081,-3.3081,-3.4191,-3.521,-3.6212,-3.7343,-3.8383,-3.9424,-3.9424,-3.9424,-3.9424,-3.9424,-3.9424,-3.9424,-3.9424,-3.9424,-3.9424,-3.9424,-3.9424,-3.9424,-3.9424,-3.9424,-3.9424,-3.9424,-3.9424,-3.9424,-3.9424,-3.8943,-3.862,-3.9192,-3.8204,-3.7175,-3.8383,-3.7904,-3.7098,-3.7098,-3.6304,-3.544,-3.4828,-3.3869,-3.3081,-3.3081,-3.3081,-3.3081,-3.3081,-3.3081,-3.3081,-3.3081,-3.3081,-3.3081,-3.3081,-3.3081,-3.3081,-3.3081,-3.3081,-3.3081,-3.3081,-3.4108,-3.5129,-3.6132,-3.719,-3.8308,-3.9337,-3.9424,-3.9424,-3.9424,-3.9424,-3.9424,-3.9424,-3.9424,-3.9424,-3.9424,-3.9424,-3.9424,-3.401,0.0,0.0,-3.4085,-3.4424,-3.4763,-3.4914,-3.4951,-3.5102,-3.5655,-3.5768,-3.5893,-3.6282,-3.6358,0.0,-3.6358,-3.6358,-3.6358,-3.6358,-3.6358,-3.6358,-3.6358,-3.6358,-3.6358,-3.6358,-3.6358,-3.6358,-3.6358,-3.6358,-3.6358,-3.6358,-3.6358,-3.6358,-3.6358,-3.5441,-3.4951,-3.4951,-3.3859,-3.3307,-3.3294,-3.4269,-3.5047,-3.5814,-3.719,-3.8383,-3.9424,-3.9424,-3.9424,-3.9424,-3.9424,-3.9424,-3.9424,-3.9424,-3.9424,-3.9424,-3.9424,-3.9424,-3.9424,-3.9424,-3.9424,-3.9424,-3.9424,-3.9424,-3.9424,-3.9424,-3.887,-3.8383,-3.9177,-3.8294,-3.7405,-3.9017,-3.8782,-3.8144,-3.7829,-3.7021,-3.5894,-3.4897,-3.3869,-3.3081,-3.3081,-3.3081,-3.3081,-3.3081,-3.3081,-3.3081,-3.3081,-3.3081,-3.3081,-3.3081,-3.3081,-3.3081,-3.3081,-3.3081,-3.3081,-3.3081,-3.4108,-3.5129,-3.6132,-3.719,-3.8308,-3.9337,-3.9424,-3.9424,-3.9424,-3.9424,-3.9424,-3.9424,-3.9424,-3.9424,-3.9424,-3.9424,-3.9514,0.0,0.0,-3.4022,-3.4562,-3.4713,-3.4864,-3.5403,-3.5516,-3.568,-3.6219,-3.6332,-3.6345,-3.6358,-3.6358,-3.6358,-3.6358,-3.6358,-3.6358,-3.6358,-3.6358,-3.6358,-3.6358,-3.6358,-3.6358,0.0,-3.6358,-3.6358,-3.6358,-3.6358,-3.6358,-3.6358,-3.6358,-3.6358,-3.6358,-3.5818,-3.5516,-3.5516,-3.4424,-3.3872,-3.3872,-3.4451,-3.4746,-3.4815,-3.688,-3.8383,-3.9424,-3.9424,-3.9424,-3.9424,-3.9424,-3.9424,-3.9424,-3.9424,-3.9424,-3.9424,-3.9424,-3.9424,-3.9424,-3.9424,-3.9424,-3.9424,-3.9424,-3.9424,-3.9424,-3.9424,-3.9352,-3.9337,-3.9424,-3.9337,-3.9337,-3.9352,-3.9352,-3.9104,-3.8069,-3.7021,-3.5894,-3.4897,-3.3869,-3.3081,-3.3081,-3.3081,-3.3081,-3.3081,-3.3081,-3.3081,-3.3081,-3.3081,-3.3081,-3.3081,-3.3081,-3.3081,-3.3081,-3.3081,-3.3081,-3.3081,-3.4108,-3.5129,-3.6132,-3.719,-3.8308,-3.9337,-3.9424,-3.9424,-3.9424,-3.9424,-3.9424,-3.9424,-3.9424,-3.9424,-3.9424,-3.9424,-3.9768,0.0,0.0,-3.5039,-3.5228,-3.5542,-3.5855,-3.6044,-3.6094,-3.6132,-3.632,-3.6358,-3.6358,-3.6358,-3.6358,-3.6358,-3.6358,-3.6358,-3.6358,-3.6358,-3.6358,-3.6358,-3.6358,-3.6358,0.0,0.0,0.0,0.0,-3.6358,-3.6358,-3.6358,-3.6358,-3.6358,-3.6358,-3.6358,-3.583,-3.5542,-3.5542,-3.4449,-3.3897,-3.3897,-3.4464,-3.5453,-3.6802,-3.751,-3.8383,-3.9424,-3.9424,-3.9424,-3.9424,-3.9424,-3.9424,-3.9424,-3.9424,-3.9424,-3.9424,-3.9424,-3.9424,-3.9424,-3.9424,-3.9424,-3.9424,-3.9424,-3.9424,-3.9424,-3.9424,-3.9424,-3.9424,-3.9424,-3.9424,-3.9265,-3.8546,-3.887,-3.8782,-3.6332,-3.5987,-3.5894,-3.4897,-3.4428,-3.4191,-3.4191,-3.4191,-3.3953,-3.324,-3.3081,-3.3081,-3.3081,-3.3081,-3.3081,-3.3081,-3.3081,-3.3081,-3.3081,-3.3081,-3.3081,-3.3081,-3.3398,-3.4332,-3.6119,-3.6526,-3.7572,-3.9337,-3.9424,-3.9424,-3.9424,-3.9424,-3.9424,-3.9424,-3.9424,-3.9424,-3.9424,-3.9873,-4.0187,0.0,-3.5002,-3.5592,-3.5793,-3.6094,-3.6358,-3.6358,-3.6358,-3.6307,-3.6107,-3.6069,-3.6006,-3.5818,-3.5768,-3.5843,-3.6044,-3.6069,-3.6132,-3.6332,-3.6358,-3.6358,-3.6358,-3.6358,-3.6358,0.0,0.0,0.0,-3.6358,-3.6358,-3.6358,-3.6358,-3.6358,-3.6358,-3.6358,-3.6019,-3.583,-3.583,-3.4939,-3.4286,-3.3884,-3.4067,-3.521,-3.7266,-3.7266,-3.8055,-3.9424,-3.9424,-3.9424,-3.9424,-3.9424,-3.9424,-3.9424,-3.9424,-3.9424,-3.9424,-3.9424,-3.9424,-3.9424,-3.9424,-3.9424,-3.9424,-3.9424,-3.9424,-3.9424,-3.9424,-3.9424,-3.9424,-3.9424,-3.9424,-3.9265,-3.8546,-3.887,-3.8782,-3.6411,-3.6318,-3.6462,-3.544,-3.4979,-3.4664,-3.4664,-3.4428,-3.3869,-3.324,-3.3081,-3.3081,-3.3081,-3.3081,-3.3081,-3.3081,-3.3081,-3.3081,-3.3081,-3.3081,-3.3081,-3.3081,-3.3484,-3.4415,-3.6119,-3.6526,-3.7572,-3.9337,-3.9424,-3.9424,-3.9424,-3.9424,-3.9424,-3.9424,-3.9424,-3.9544,-3.9783,-4.0202,-4.0651,-3.5253,-3.5567,-3.5705,-3.6232,-3.6358,-3.6358,-3.6358,-3.6345,-3.6169,-3.5655,-3.5516,-3.5341,0.0,0.0,-3.4951,-3.5504,-3.5604,-3.5818,-3.6332,-3.6408,-3.6395,0.0,0.0,0.0,0.0,0.0,0.0,-3.6358,0.0,-3.6358,-3.6358,-3.6358,-3.6358,-3.6358,-3.6358,-3.6358,-3.6358,-3.5793,-3.4951,-3.3847,-3.3319,-3.4178,-3.6119,-3.6212,-3.7329,-3.9337,-3.9352,-3.9424,-3.9424,-3.9424,-3.9424,-3.9424,-3.9424,-3.9424,-3.9424,-3.9424,-3.9424,-3.9424,-3.9424,-3.9424,-3.9424,-3.9424,-3.9424,-3.9424,-3.9424,-3.9424,-3.9424,-3.9424,-3.9424,-3.9424,-3.9337,-3.9337,-3.9104,-3.7919,-3.7677,-3.742,-3.6369,-3.5359,-3.4664,-3.4664,-3.3797,-3.3081,-3.3081,-3.3081,-3.3081,-3.3081,-3.3081,-3.3081,-3.3081,-3.3081,-3.3081,-3.3081,-3.3081,-3.3081,-3.3081,-3.4108,-3.5129,-3.6053,-3.719,-3.8234,-3.9265,-3.9337,-3.9424,-3.9424,-3.9424,-3.9424,-3.9424,-3.9454,-3.9783,-4.0397,-4.0472,-4.1175,-3.5466,-3.5843,-3.6194,-3.632,-3.6358,-3.6358,-3.6358,-3.6044,-3.5717,-3.5567,-3.5215,-3.4889,0.0,0.0,0.0,-3.6069,-3.6496,0.0,-3.6948,-3.6973,0.0,0.0,0.0,-3.6358,-3.6358,-3.6358,0.0,0.0,-3.6358,-3.6358,-3.6358,-3.6358,-3.6358,-3.6358,-3.6358,-3.6358,-3.6358,-3.5416,-3.4374,-3.3282,-3.3144,-3.3784,-3.5129,-3.5894,-3.693,-3.8234,-3.9031,-3.9424,-3.9424,-3.9424,-3.9424,-3.9424,-3.9424,-3.9424,-3.9424,-3.9424,-3.9424,-3.9424,-3.9424,-3.9424,-3.9424,-3.9424,-3.9424,-3.9424,-3.9424,-3.9424,-3.9424,-3.9424,-3.9424,-3.9192,-3.8383,-3.8782,-3.8708,-3.6094,-3.6067,-3.6304,-3.5278,-3.4897,-3.4664,-3.4664,-3.3797,-3.3081,-3.3081,-3.3081,-3.3081,-3.3081,-3.3081,-3.3081,-3.3081,-3.3081,-3.3081,-3.3081,-3.3081,-3.3081,-3.3081,-3.4108,-3.4815,-3.5047,-3.6802,-3.7919,-3.8234,-3.8943,-3.9424,-3.9424,-3.9424,-3.9424,-3.9424,-3.9903,-4.0232,-4.0427,-4.1399,-4.2043,-3.583,-3.6119,-3.6358,-3.6358,-3.6358,-3.6295,-3.6056,-3.5768,-3.5403,-3.4914,-3.4575,0.0,0.0,0.0,0.0,0.0,0.0,0.0,-3.7475,-3.755,-3.7337,0.0,-3.6722,0.0,-3.6383,-3.6358,-3.6358,0.0,-3.6358,-3.6358,-3.6358,-3.6358,-3.6358,-3.6358,-3.6358,-3.6358,-3.6358,-3.5278,-3.4412,-3.3796,-3.3307,-3.3628,-3.4746,-3.5278,-3.6146,-3.7098,0.0,-3.8294,-3.8708,-3.8708,-3.8943,-3.9424,-3.9424,-3.9424,-3.9424,-3.9424,-3.9424,-3.9424,-3.9424,-3.9424,-3.9424,-3.9424,-3.9424,-3.9424,-3.9424,-3.9424,-3.9424,-3.9424,-3.9031,-3.8546,-3.7994,-3.7904,-3.7572,-3.5762,-3.5814,-3.6053,-3.5521,-3.4979,-3.4594,-3.4108,-3.3471,-3.3081,-3.3081,-3.3081,-3.3081,-3.3081,-3.3081,-3.3081,-3.3081,-3.3081,-3.3081,-3.3081,-3.3081,-3.3081,-3.3081,-3.4108,-3.4664,-3.4664,-3.6646,-3.7829,-3.7829,-3.8855,-3.9424,-3.9424,-3.9424,-3.9559,-3.9843,-4.0217,-4.0696,-4.128,-4.2013,-4.2506,-3.6232,-3.6358,-3.6358,-3.6358,-3.6358,-3.6219,-3.5667,-3.5399,-3.514,-3.411,0.0,0.0,-3.3169,0.0,-3.4349,-3.5378,0.0,-3.6835,-3.7864,-3.8002,-3.7826,-3.7349,-3.7224,-3.6998,-3.6521,-3.6408,-3.6358,-3.6358,-3.6358,-3.6358,-3.6358,-3.6358,-3.6358,-3.6358,-3.6358,-3.632,-3.6257,-3.5303,-3.4801,-3.4713,-3.3759,-3.3773,-3.4734,-3.4739,-3.5249,-3.6084,0.0,0.0,-3.7587,-3.7587,-3.8144,-3.9017,-3.9017,-3.9017,-3.9017,-3.9017,-3.9104,-3.9177,-3.9017,-3.909,-3.9177,-3.9177,-3.9265,-3.9337,-3.909,-3.909,-3.9177,-3.9017,-3.8308,-3.7587,-3.7587,-3.693,-3.6212,-3.6053,-3.5974,-3.5974,-3.5814,-3.5129,-3.4191,-3.3326,-3.3081,-3.3081,-3.3081,-3.3081,-3.3081,-3.3081,-3.3081,-3.3081,-3.3081,-3.3081,-3.3081,-3.3081,-3.3081,-3.3081,-3.3081,-3.4108,-3.4664,-3.4511,-3.6397,-3.751,-3.7357,-3.8546,-3.9177,-3.9177,-3.9337,-3.9738,-4.0397,-4.0487,-4.116,-4.2357,-4.2447,-4.2791,-3.6332,-3.6358,-3.6358,-3.6358,-3.6358,-3.6219,-3.5667,-3.519,0.0,0.0,0.0,-3.3194,-3.3093,-3.3897,0.0,-3.5441,0.0,0.0,0.0,0.0,-3.7977,0.0,0.0,0.0,0.0,0.0,0.0,0.0,0.0,-3.6358,-3.6358,-3.6358,-3.6358,-3.6358,-3.6358,-3.6144,-3.5692,-3.5504,-3.5177,-3.4726,-3.4525,-3.4526,-3.4756,-3.5187,-3.546,-3.5672,-3.6033,0.0,-3.6448,-3.6448,-3.6604,-3.676,-3.676,-3.676,-3.676,-3.676,-3.7343,-3.7979,-3.7084,-3.7343,-3.8069,-3.8069,-3.8708,-3.909,-3.7315,-3.7329,-3.7904,-3.7007,-3.6604,-3.6448,-3.6448,-3.6369,-3.5974,-3.5129,-3.4979,-3.4746,-3.3869,-3.3471,-3.3313,-3.3154,-3.3081,-3.3081,-3.3081,-3.3081,-3.3081,-3.3081,-3.3081,-3.3081,-3.3081,-3.3081,-3.3081,-3.3081,-3.3081,-3.3081,-3.3081,-3.4108,-3.4345,-3.3398,-3.5359,-3.6067,-3.5305,-3.7035,-3.8069,-3.8069,-3.8943,-3.9738,-4.0397,-4.095,-4.1609,-4.2372,-4.291,-4.3225,-3.6358,-3.6358,-3.6358,-3.6358,-3.6144,-3.5793,-3.524,0.0,0.0,0.0,0.0,-3.3081,-3.3081,0.0,0.0,0.0,0.0,0.0,0.0,0.0,0.0,0.0,0.0,0.0,0.0,0.0,0.0,0.0,0.0,-3.6358,-3.6358,-3.6358,-3.6358,-3.6358,-3.6358,-3.6232,-3.5968,-3.5692,-3.5416,-3.5152,-3.4864,-3.4726,-3.4713,-3.4946,-3.5069,-3.503,-3.5025,0.0,-3.579,-3.5562,-3.5734,-3.6198,-3.6198,-3.6198,-3.6198,-3.6198,-3.6735,-3.7358,-3.6855,-3.7157,-3.7756,-3.7178,-3.7307,-3.7558,-3.6526,-3.6526,-3.6852,-3.6355,-3.5814,-3.544,-3.544,-3.5047,-3.4564,-3.4314,-3.4307,-3.4148,-3.3669,-3.3282,-3.3081,-3.3081,-3.3081,-3.3081,-3.3081,-3.3081,-3.3081,-3.3081,-3.3081,-3.3081,-3.3081,-3.3081,-3.3081,-3.3081,-3.3081,-3.3081,-3.3081,-3.3556,-3.3641,-3.3154,-3.4568,-3.5197,-3.4746,-3.6724,-3.7987,-3.8318,-3.9358,-4.0427,-4.1414,-4.1728,-4.2222,-4.288,-4.3195,-4.3329,-3.6358,-3.6358,-3.6358,-3.6358,-3.5956,-3.5403,-3.4851,-3.4299,0.0,0.0,0.0,-3.3081,-3.3081,0.0,0.0,0.0,0.0,0.0,0.0,0.0,0.0,0.0,0.0,0.0,0.0,0.0,0.0,0.0,0.0,0.0,-3.6358,-3.6358,-3.6358,-3.6358,-3.6358,-3.6358,-3.6358,-3.5931,-3.5717,-3.5717,-3.5278,-3.5077,-3.5064,-3.4951,-3.4901,-3.4864,-3.4311,0.0,0.0,-3.4907,-3.5186,-3.5873,-3.5873,-3.5873,-3.5873,-3.5873,-3.6348,-3.6934,-3.67,-3.6999,-3.7392,-3.6305,-3.6253,-3.6518,-3.6035,-3.6035,-3.6197,-3.5954,-3.5339,-3.4711,-3.4711,-3.4071,-3.3508,-3.3822,-3.3897,-3.3872,-3.3746,-3.3382,-3.3081,-3.3081,-3.3081,-3.3081,-3.3081,-3.3081,-3.3081,-3.3081,-3.3081,-3.3081,-3.3081,-3.3081,-3.3081,-3.3081,-3.3081,-3.3081,-3.3081,-3.3081,-3.3081,-3.3081,-3.3869,-3.441,-3.4528,-3.6287,-3.7685,-3.8639,-3.9704,-4.0933,-4.2357,-4.2357,-4.2701,-4.3329,-4.3329,-4.3329,-3.6358,-3.6358,-3.6358,-3.6358,-3.5956,-3.5403,-3.4851,0.0,0.0,0.0,-3.3081,-3.3081,-3.3081,0.0,0.0,0.0,0.0,0.0,0.0,0.0,0.0,0.0,0.0,0.0,0.0,0.0,0.0,0.0,0.0,0.0,-3.6358,-3.6358,-3.6358,-3.6358,-3.6358,-3.6358,-3.6358,-3.6307,-3.6282,-3.6282,-3.6232,-3.6207,-3.6194,-3.5705,-3.5466,-3.5441,-3.4889,0.0,0.0,-3.4754,-3.4729,-3.4819,-3.4819,-3.4819,-3.4819,-3.4819,-3.5515,-3.6226,-3.5226,-3.5592,-3.6305,-3.5226,-3.614,-3.7383,-3.5401,-3.5476,-3.6061,-3.5149,-3.4729,-3.4742,-3.4742,-3.4652,-3.4462,-3.401,-3.3897,-3.3759,-3.3257,-3.3106,-3.3081,-3.3081,-3.3081,-3.3081,-3.3081,-3.3081,-3.3081,-3.3081,-3.3081,-3.3081,-3.3081,-3.3081,-3.3081,-3.3081,-3.3081,-3.3081,-3.3081,-3.3081,-3.3081,-3.3081,-3.3154,-3.3467,-3.3972,-3.5129,-3.6464,-3.8034,-3.9136,-4.0543,-4.2357,-4.2357,-4.2701,-4.3329,-4.3329,-4.3329,-3.6358,-3.6609,-3.6772,-3.6445,-3.5692,-3.4989,-3.4776,0.0,0.0,-3.3119,-3.3081,-3.3081,-3.3081,-3.3257,0.0,0.0,0.0,0.0,0.0,0.0,0.0,0.0,0.0,0.0,0.0,0.0,0.0,0.0,0.0,0.0,-3.6358,-3.6358,-3.6358,-3.6358,-3.6358,-3.6358,-3.6358,-3.6358,-3.6358,-3.6358,-3.6358,-3.6358,-3.6358,-3.6132,-3.6031,-3.6006,-3.5454,0.0,0.0,-3.4864,-3.4726,-3.4726,-3.4726,-3.4726,-3.4726,-3.4726,-3.5185,-3.5723,-3.5294,-3.5691,-3.6312,-3.5877,-3.6312,-3.6702,-3.5173,-3.497,-3.5226,-3.4803,-3.4726,-3.4726,-3.4726,-3.4964,-3.5165,-3.4939,-3.4889,-3.4826,-3.4613,-3.4299,-3.406,-3.406,-3.3796,-3.3571,-3.3571,-3.3294,-3.3081,-3.3081,-3.3081,-3.3081,-3.3081,-3.3081,-3.3081,-3.3081,-3.3081,-3.3081,-3.3081,-3.3081,-3.3219,-3.3558,-3.3571,-3.3822,-3.4374,-3.5383,-3.6485,-3.7564,-3.8587,-4.0075,-4.1909,-4.1909,-4.2379,-4.3329,-4.3329,-4.3329,-3.632,-3.6646,-3.6847,-3.6458,-3.5529,-3.4726,0.0,0.0,-3.3081,-3.3081,-3.3081,-3.3081,-3.3081,-3.3081,-3.3382,0.0,0.0,0.0,0.0,0.0,0.0,0.0,0.0,0.0,0.0,0.0,0.0,0.0,0.0,0.0,0.0,-3.6358,-3.6358,-3.6358,-3.6358,-3.6358,-3.6358,-3.6358,-3.6358,-3.6358,-3.6358,-3.6358,-3.6358,-3.6358,-3.6358,-3.6345,-3.5956,0.0,0.0,-3.5366,-3.5203,-3.5203,-3.5203,-3.5203,-3.5203,-3.5203,-3.5454,-3.5793,-3.5793,-3.6031,-3.6358,-3.6358,-3.6358,-3.6219,-3.5441,-3.5203,-3.5203,-3.5203,-3.5203,-3.5203,-3.5203,-3.5491,-3.5742,-3.5579,-3.5542,-3.5504,-3.5341,-3.5002,-3.4726,-3.4726,-3.4412,-3.4148,-3.4148,-3.3684,-3.3319,-3.3319,-3.3181,-3.3131,-3.3307,-3.3319,-3.3382,-3.3545,-3.342,-3.3257,-3.3093,-3.3232,-3.3483,-3.3872,-3.406,-3.4399,-3.4939,-3.5635,-3.6491,-3.7487,-3.827,-3.9429,-4.1085,-4.142,-4.2029,-4.2805,-4.3155,-4.3434,-3.6219,-3.637,-3.637,-3.6358,-3.5529,-3.4726,0.0,-3.3872,-3.3081,-3.3081,-3.3081,-3.3081,-3.3081,-3.3081,-3.3257,-3.3822,0.0,0.0,0.0,0.0,0.0,0.0,0.0,0.0,0.0,0.0,0.0,0.0,0.0,0.0,0.0,-3.6358,-3.6358,-3.6358,-3.6358,-3.6358,-3.6358,-3.6358,-3.6358,-3.6358,-3.6358,-3.6358,-3.6358,-3.6358,-3.6358,0.0,0.0,0.0,0.0,-3.6345,-3.6345,-3.6345,-3.6345,-3.6345,-3.6345,-3.6345,-3.6345,-3.6358,-3.6358,-3.6358,-3.6358,-3.6358,-3.6358,-3.6358,-3.6345,-3.6345,-3.6345,-3.6345,-3.6345,-3.6345,-3.6345,-3.6358,-3.6219,-3.5667,-3.5542,-3.5391,-3.4851,-3.4726,-3.4726,-3.4726,-3.4713,-3.4713,-3.4713,-3.4261,-3.3884,-3.3884,-3.342,-3.3269,-3.3822,-3.3884,-3.4098,-3.465,-3.4223,-3.3671,-3.3131,-3.3583,-3.3884,-3.3897,-3.4412,-3.4964,-3.5516,-3.5542,-3.631,-3.8094,-3.8094,-3.8725,-3.9899,-4.1085,-4.1587,-4.167,-4.2805,-4.3688,-3.529,-3.5793,-3.6182,-3.5429,-3.4688,-3.4161,-3.4161,-3.3596,-3.3081,-3.3081,-3.3081,-3.3081,-3.3081,-3.3081,-3.3508,-3.4813,-3.5165,0.0,0.0,0.0,0.0,0.0,0.0,0.0,0.0,0.0,0.0,0.0,0.0,0.0,0.0,-3.6358,-3.6358,-3.6358,-3.6358,-3.6358,-3.6358,-3.6358,-3.6358,-3.6358,-3.6358,-3.6358,-3.6358,-3.6358,-3.6358,0.0,0.0,0.0,0.0,-3.6358,-3.6358,-3.6358,-3.6358,-3.6358,-3.6358,-3.6358,-3.6358,-3.6358,-3.6358,-3.6358,-3.6358,-3.6358,-3.6358,-3.6358,-3.6358,-3.6358,-3.6358,-3.6358,-3.6358,-3.6358,-3.6358,-3.6358,-3.632,-3.6144,-3.6107,-3.6056,-3.5881,-3.5843,-3.5843,-3.5843,-3.5542,-3.529,-3.529,-3.4826,-3.4462,-3.4462,-3.4311,-3.4261,-3.4437,-3.4462,-3.4525,-3.47,-3.4562,-3.4399,-3.4211,-3.401,-3.4223,-3.4977,-3.519,-3.5529,-3.6081,-3.6107,-3.6357,-3.6883,-3.6977,-3.7507,-3.8649,-3.9885,-4.1481,-4.3471,-4.3826,-4.4347,0.0,-3.5228,-3.5579,-3.4901,-3.4311,-3.3897,-3.3897,-3.347,-3.3081,-3.3081,-3.3081,-3.3081,-3.3081,-3.3081,-3.342,-3.4449,-3.4964,0.0,0.0,0.0,0.0,0.0,0.0,0.0,0.0,0.0,0.0,0.0,0.0,0.0,0.0,-3.6358,-3.6358,-3.6358,-3.6358,-3.6358,-3.6358,-3.6358,-3.6358,-3.6358,-3.6358,-3.6358,-3.6358,-3.6358,-3.6358,0.0,0.0,0.0,0.0,-3.6358,-3.6358,-3.6358,-3.6358,-3.6358,-3.6358,-3.6358,-3.6358,-3.6358,-3.6358,-3.6358,-3.6358,-3.6358,-3.6358,-3.6358,-3.6358,-3.6358,-3.6358,-3.6358,-3.6358,-3.6358,-3.6358,-3.6358,-3.6358,-3.6358,-3.6358,-3.6358,-3.6358,-3.6358,-3.6358,-3.6358,-3.6094,-3.5855,-3.5855,-3.5391,-3.5039,-3.5039,-3.4851,-3.4801,-3.5002,-3.5039,-3.5115,-3.5316,-3.5152,-3.5115,-3.5328,-3.4839,-3.4813,-3.5504,-3.573,-3.6006,-3.6345,-3.6358,-3.6358,-3.6358,-3.6358,-3.6709,-3.7507,-3.9311,-4.1495,-4.3971,-4.4682,-4.5289,0.0,-3.4625,-3.465,-3.4613,-3.4223,-3.3847,-3.3847,-3.3445,0.0,-3.3081,-3.3081,-3.3081,-3.3131,-3.3106,-3.3119,-3.3232,0.0,0.0,0.0,0.0,0.0,0.0,0.0,0.0,0.0,0.0,0.0,0.0,0.0,0.0,0.0,-3.6383,-3.6358,-3.6358,-3.6358,-3.6358,-3.6358,-3.6358,-3.6358,-3.6358,-3.6358,-3.6358,-3.6358,-3.6358,0.0,0.0,0.0,0.0,0.0,-3.6358,-3.6358,-3.6358,-3.6358,-3.6358,-3.6358,-3.6358,-3.6358,-3.6358,-3.6358,-3.6358,-3.6358,-3.6358,-3.6358,-3.6358,-3.6358,-3.6358,-3.6358,-3.6358,-3.6358,-3.6358,-3.6358,-3.6358,-3.6358,-3.6358,-3.6358,-3.6358,-3.6358,-3.6358,-3.6358,-3.6358,-3.6358,-3.6358,-3.6358,-3.5943,-3.5604,-3.5604,-3.5165,-3.5027,-3.5542,-3.5604,-3.5805,-3.6307,-3.5906,-3.5805,-3.632,-3.5868,-3.5567,-3.5604,-3.6081,-3.6358,-3.6358,-3.6358,-3.6358,-3.6358,-3.6358,-3.6465,-3.6597,-3.9328,-4.1621,-4.3371,-4.5282,-4.6167,-3.3432,0.0,-3.3985,-3.3571,-3.337,-3.3269,0.0,0.0,0.0,0.0,0.0,0.0,0.0,0.0,0.0,0.0,0.0,0.0,0.0,0.0,0.0,0.0,0.0,0.0,0.0,0.0,0.0,0.0,0.0,0.0,0.0,-3.6584,-3.6358,-3.6358,-3.6358,-3.6358,-3.6358,-3.6358,-3.6358,-3.6358,-3.6358,-3.6358,-3.6358,-3.6358,0.0,0.0,0.0,0.0,-3.6358,-3.6358,-3.6358,-3.6358,-3.6358,-3.6358,-3.6358,-3.6358,-3.6358,-3.6358,-3.6358,-3.6358,-3.6358,-3.6358,-3.6358,-3.6358,-3.6358,-3.6358,-3.6358,-3.6358,-3.6358,-3.6358,-3.6358,-3.6358,-3.6358,-3.6358,-3.6358,-3.6358,-3.6358,-3.6358,-3.6358,-3.6358,-3.6358,-3.6358,-3.6358,-3.6257,-3.6169,-3.6169,-3.6056,-3.6019,-3.6157,-3.6169,-3.6219,-3.6345,-3.6245,-3.6219,-3.6358,-3.5868,-3.573,-3.6144,-3.6282,-3.6358,-3.6358,-3.6358,-3.6358,-3.6358,-3.6358,-3.7006,-3.8316,-3.8992,-4.0502,-4.2753,-4.4203,-4.5097,-3.1412,-3.2644,-3.3822,-3.3533,-3.3458,-3.3458,0.0,0.0,0.0,0.0,0.0,0.0,0.0,0.0,0.0,0.0,0.0,0.0,0.0,0.0,0.0,0.0,0.0,0.0,0.0,0.0,0.0,0.0,0.0,0.0,0.0,-3.6897,-3.6621,-3.637,-3.6358,-3.6358,-3.6358,-3.6358,-3.6358,-3.6358,-3.6358,-3.6358,-3.6358,-3.6358,-3.6358,0.0,0.0,0.0,-3.6358,-3.6358,-3.6358,-3.6358,-3.6358,-3.6358,-3.6358,-3.6358,-3.6358,-3.6358,-3.6358,-3.6358,-3.6358,-3.6358,-3.6358,-3.6358,-3.6358,-3.6358,-3.6358,-3.6358,-3.6358,-3.6358,-3.6358,-3.6358,-3.6358,-3.6358,-3.6358,-3.6358,-3.6358,-3.6358,-3.6358,-3.6358,-3.6358,-3.6358,-3.6358,-3.6358,-3.6358,-3.6358,-3.6358,-3.6358,-3.6358,-3.6358,-3.6358,-3.6358,-3.6358,-3.6358,-3.6358,-3.6094,-3.6044,-3.6345,-3.6358,-3.6358,-3.6358,-3.6358,-3.6358,-3.6358,-3.6609,-3.7369,-3.8466,-3.938,-4.0613,-4.2071,-4.338,-4.4224,-2.9497,-3.1463,-3.3415,-3.3254,-3.3205,-3.3205,0.0,0.0,0.0,0.0,0.0,0.0,0.0,0.0,0.0,0.0,0.0,0.0,0.0,0.0,0.0,0.0,0.0,0.0,0.0,0.0,0.0,0.0,0.0,0.0,0.0,-3.6529,-3.6329,-3.6073,-3.6061,-3.6168,-3.6358,-3.6358,-3.6358,-3.6358,-3.6358,-3.6358,-3.6358,-3.6358,-3.6358,0.0,0.0,0.0,-3.6358,-3.6358,-3.6358,-3.6358,-3.6358,-3.6358,-3.6358,-3.6358,-3.6358,-3.6358,-3.6358,-3.642,-3.6483,-3.6483,-3.6483,-3.6508,-3.6584,-3.6496,-3.6383,-3.6458,-3.642,-3.6358,-3.6358,-3.6358,-3.6358,-3.6358,-3.6358,-3.6358,-3.6358,-3.6358,-3.6358,-3.6358,-3.6358,-3.6358,-3.6358,-3.6358,-3.6358,-3.6358,-3.6358,-3.6358,-3.6358,-3.6358,-3.6358,-3.6358,-3.6358,-3.6358,-3.6358,-3.6358,-3.6358,-3.6358,-3.6358,-3.6358,-3.6358,-3.6358,-3.6408,-3.6483,-3.6948,-3.75,-3.814,-3.9744,-4.0756,-4.1319,-4.2641,-4.3218,-2.9807,-3.0571,-3.1141,-3.0285,-3.0068,-3.0068,0.0,0.0,0.0,0.0,0.0,0.0,0.0,0.0,0.0,0.0,0.0,0.0,0.0,0.0,0.0,0.0,0.0,0.0,0.0,0.0,0.0,0.0,0.0,0.0,0.0,-3.3514,-3.3534,-3.4678,-3.4678,-3.5271,-3.6358,-3.6358,-3.6358,-3.6358,-3.6358,-3.6358,-3.6358,-3.6358,-3.6358,0.0,0.0,-3.6358,-3.6358,-3.6358,-3.6358,-3.6358,-3.6358,-3.6358,-3.6358,-3.6358,-3.6358,-3.6358,-3.6358,-3.6671,-3.7061,-3.7061,-3.7061,-3.7149,-3.7613,-3.7098,-3.6458,-3.6923,-3.6722,-3.6358,-3.6358,-3.6358,-3.6358,-3.6358,-3.6358,-3.6358,-3.6358,-3.6358,-3.6358,-3.6358,-3.6358,-3.6358,-3.6358,-3.6358,-3.6358,-3.6358,-3.6358,-3.6358,-3.6358,-3.6358,-3.6358,-3.6358,-3.6358,-3.6358,-3.6358,-3.6358,-3.6358,-3.6358,-3.6358,-3.6358,-3.6358,-3.6358,-3.6584,-3.7048,-3.7149,-3.7701,-3.8743,-3.9007,-3.9437,-3.9981,-4.1319,-4.1887,-2.7639,-2.7858,-2.808,-2.7806,-2.9169,0.0,0.0,0.0,0.0,0.0,0.0,0.0,0.0,0.0,0.0,0.0,0.0,0.0,0.0,0.0,0.0,0.0,0.0,0.0,0.0,0.0,0.0,0.0,0.0,0.0,0.0,0.0,-3.2926,-3.3266,-3.397,-3.4678,-3.5271,-3.6061,-3.6358,-3.6358,-3.6358,-3.6358,-3.6358,-3.6358,-3.6358,-3.6358,0.0,-3.6358,-3.6358,-3.6358,-3.6358,-3.6358,-3.6358,-3.6358,-3.6358,-3.6358,-3.6546,-3.681,-3.681,-3.7161,-3.7626,-3.7626,-3.7626,-3.7676,-3.7939,-3.7651,-3.7299,-3.755,-3.7023,-3.6358,-3.6358,-3.6358,-3.6358,-3.6358,-3.6358,-3.6358,-3.6358,-3.6358,-3.6358,-3.6358,-3.6358,-3.6358,-3.6358,-3.6358,-3.6358,-3.6358,-3.6358,-3.6358,-3.6358,-3.6358,-3.6358,-3.6358,-3.6358,-3.6358,-3.6358,-3.6358,-3.6358,-3.6358,-3.6358,-3.6358,-3.6358,-3.6646,-3.6923,-3.7174,-3.7776,-3.8354,-3.8868,-3.917,-3.9446,-3.9697,-4.0262,-4.0554,-2.5859,-2.5889,-2.5967,0.0,0.0,0.0,0.0,0.0,0.0,0.0,0.0,0.0,0.0,0.0,0.0,0.0,0.0,0.0,0.0,0.0,0.0,0.0,0.0,0.0,0.0,0.0,0.0,0.0,0.0,0.0,0.0,0.0,-3.2027,-3.1847,-3.2855,-3.3563,-3.3871,-3.4957,-3.575,-3.6358,-3.6358,-3.6358,-3.6358,-3.6358,-3.6358,-3.6358,-3.6358,-3.6358,-3.6358,-3.6358,-3.6358,-3.6358,-3.6358,-3.6445,-3.6558,-3.6558,-3.691,-3.7374,-3.7374,-3.7739,-3.8203,-3.8203,-3.8203,-3.8228,-3.8366,-3.8216,-3.804,-3.8165,-3.75,-3.6722,-3.6584,-3.6458,-3.6358,-3.6358,-3.6358,-3.6358,-3.6358,-3.6358,-3.6358,-3.6358,-3.6358,-3.6358,-3.6358,-3.6358,-3.6358,-3.6358,-3.6358,-3.6358,-3.6358,-3.6358,-3.6358,-3.6358,-3.6358,-3.6358,-3.6358,-3.6358,-3.642,-3.6546,-3.6433,-3.642,-3.6546,-3.696,-3.7312,-3.7575,-3.8429,-3.8931,-3.9069,-3.9484,-3.9697,-3.9697,-3.9697,-3.9697,-2.623,-2.6338,0.0,0.0,0.0,0.0,0.0,0.0,0.0,0.0,0.0,0.0,0.0,0.0,0.0,0.0,0.0,0.0,0.0,0.0,0.0,0.0,0.0,0.0,0.0,0.0,0.0,0.0,0.0,0.0,0.0,0.0,0.0,-3.0421,-3.0514,-3.1224,-3.2443,-3.2532,-3.3848,-3.6358,-3.6358,-3.6358,-3.6358,-3.6358,-3.6358,-3.6358,-3.6358,-3.6358,-3.6358,-3.6358,-3.6358,-3.6358,-3.6358,-3.6671,-3.7123,-3.7123,-3.7475,-3.7952,-3.7952,-3.8329,-3.8806,-3.8806,-3.8806,-3.8906,-3.9421,-3.8843,-3.8115,-3.8655,-3.8366,-3.7764,-3.7262,-3.6747,-3.6358,-3.6358,-3.6358,-3.6358,-3.6358,-3.6358,-3.6358,-3.6358,-3.6358,-3.6358,-3.6358,-3.6358,-3.6358,-3.6358,-3.6358,-3.6358,-3.6358,-3.6358,-3.6358,-3.6358,-3.6358,-3.6358,-3.6358,-3.6358,-3.6584,-3.7098,-3.6646,-3.6584,-3.7098,-3.7161,-3.7676,-3.873,-3.8831,-3.912,-3.9634,-3.9672,-3.9697,-3.9697,-3.9697,-3.9697,-2.5937,-2.5986,0.0,0.0,0.0,0.0,0.0,0.0,0.0,0.0,0.0,0.0,0.0,0.0,0.0,0.0,0.0,0.0,0.0,0.0,0.0,0.0,0.0,0.0,0.0,0.0,0.0,0.0,0.0,0.0,0.0,0.0,0.0,-2.8996,-2.9911,-3.0514,-3.1019,-3.1927,-3.3243,-3.5174,-3.5174,-3.5571,-3.6358,-3.6358,-3.6358,-3.6358,-3.6358,-3.6358,-3.6358,-3.6358,-3.6358,-3.6395,-3.6734,-3.6998,-3.7224,-3.7563,-3.8052,-3.8542,-3.8542,-3.8919,-3.9383,-3.9383,-3.9383,-3.9421,-3.9634,-3.9396,-3.9107,-3.932,-3.8981,-3.8417,-3.7852,-3.7538,-3.7374,-3.7374,-3.7123,-3.6872,-3.6872,-3.6609,-3.6358,-3.6358,-3.6358,-3.6358,-3.6358,-3.6358,-3.6358,-3.6358,-3.6358,-3.6483,-3.6822,-3.6571,-3.6621,-3.7312,-3.7374,-3.7249,-3.691,-3.7186,-3.7475,-3.7688,-3.7174,-3.7123,-3.7676,-3.804,-3.8429,-3.8856,-3.9207,-3.9484,-3.9697,-3.9697,-3.9697,-3.9697,-3.9697,-3.9697,-2.5742,-2.5742,0.0,0.0,0.0,0.0,0.0,0.0,0.0,0.0,0.0,0.0,0.0,0.0,0.0,0.0,0.0,0.0,0.0,0.0,0.0,0.0,0.0,0.0,0.0,0.0,0.0,0.0,0.0,0.0,0.0,0.0,0.0,0.0,-2.9207,-2.9713,-2.9713,-3.0618,-3.1735,-3.3066,-3.3066,-3.4264,-3.6358,-3.6358,-3.6358,-3.6358,-3.6358,-3.6358,-3.6358,-3.6358,-3.6458,-3.6659,-3.7036,-3.74,-3.7764,-3.814,-3.8642,-3.9132,-3.9132,-3.9383,-3.9697,-3.9697,-3.9697,-3.9697,-3.9697,-3.9697,-3.9697,-3.9697,-3.9421,-3.9044,-3.8642,-3.8278,-3.8002,-3.8002,-3.7713,-3.745,-3.745,-3.7149,-3.6885,-3.6885,-3.6885,-3.6885,-3.6885,-3.6885,-3.6885,-3.6885,-3.6885,-3.7023,-3.74,-3.7111,-3.7174,-3.7927,-3.8002,-3.7852,-3.7475,-3.7789,-3.809,-3.8266,-3.7927,-3.7889,-3.8266,-3.8668,-3.8956,-3.9132,-3.9496,-3.9697,-3.9697,-3.9697,-3.9697,-3.9697,-3.9697,-3.9697,-2.5742,0.0,0.0,0.0,0.0,0.0,0.0,0.0,0.0,0.0,0.0,0.0,0.0,0.0,0.0,0.0,0.0,0.0,0.0,0.0,0.0,0.0,0.0,0.0,0.0,0.0,0.0,0.0,0.0,0.0,0.0,0.0,0.0,0.0,-2.8291,-2.8291,-2.8291,-2.8291,-2.9006,-3.0317,-3.0317,-3.2431,-3.6358,-3.6358,-3.6358,-3.6358,-3.6358,-3.6358,-3.6358,-3.637,-3.6684,-3.7186,-3.7199,-3.7889,-3.8868,-3.8881,-3.922,-3.9697,-3.9697,-3.9697,-3.9697,-3.9697,-3.9697,-3.9697,-3.9697,-3.9697,-3.9697,-3.9697,-3.9697,-3.9697,-3.9697,-3.8856,-3.8027,-3.8027,-3.8015,-3.8015,-3.8015,-3.8002,-3.8002,-3.8002,-3.8002,-3.8002,-3.8002,-3.8002,-3.8002,-3.8002,-3.8002,-3.8002,-3.8002,-3.8015,-3.8015,-3.8002,-3.8015,-3.8015,-3.8015,-3.8015,-3.8266,-3.8843,-3.8881,-3.8881,-3.8881,-3.8881,-3.9132,-3.9685,-3.9697,-3.9697,-3.9697,-3.9697,-3.9697,-3.9697,-3.9697,-3.9697,0.0,0.0,0.0,0.0,0.0,0.0,0.0,0.0,0.0,0.0,0.0,0.0,0.0,0.0,0.0,0.0,0.0,0.0,0.0,0.0,0.0,0.0,0.0,0.0,0.0,0.0,0.0,0.0,0.0,0.0,0.0,0.0,0.0,0.0,-2.8291,-2.8291,-2.8291,-2.8291,-2.9006,-3.0317,-3.0317,-3.1938,-3.4981,-3.4981,-3.5475,-3.6358,-3.6358,-3.6358,-3.6395,-3.6784,-3.7036,-3.7262,-3.8065,-3.858,-3.8919,-3.9308,-3.9546,-3.9697,-3.9697,-3.9697,-3.9697,-3.9697,-3.9697,-3.9697,-3.9697,-3.9697,-3.9697,-3.9697,-3.9697,-3.9697,-3.9697,-3.9446,-3.9195,-3.9195,-3.8894,-3.8617,-3.8617,-3.8291,-3.8002,-3.8002,-3.8002,-3.8002,-3.8002,-3.8002,-3.8002,-3.8002,-3.8002,-3.8002,-3.8002,-3.8705,-3.8894,-3.809,-3.8718,-3.9032,-3.8642,-3.8969,-3.927,-3.9433,-3.9446,-3.9446,-3.9446,-3.9446,-3.9534,-3.9697,-3.9697,-3.9697,-3.9697,-3.9697,-3.9697,-3.9697,-3.9697,-3.9697,0.0,0.0,0.0,0.0,0.0,0.0,0.0,0.0,0.0,0.0,0.0,0.0,0.0,0.0,0.0,0.0,0.0,0.0,0.0,0.0,0.0,0.0,0.0,0.0,0.0,0.0,0.0,0.0,0.0,0.0,0.0,0.0,0.0,0.0,-2.8291,-2.8291,-2.8291,-2.8291,-2.8698,-2.9513,-2.9513,-3.0628,-3.2755,-3.3365,-3.4056,-3.4848,-3.5367,-3.587,-3.6408,-3.696,-3.7312,-3.76,-3.8517,-3.9007,-3.9245,-3.9572,-3.9697,-3.9697,-3.9697,-3.9697,-3.9697,-3.9697,-3.9697,-3.9697,-3.9697,-3.9697,-3.9697,-3.9697,-3.9697,-3.9697,-3.9697,-3.9697,-3.9697,-3.9697,-3.9433,-3.9195,-3.9195,-3.8919,-3.868,-3.868,-3.868,-3.868,-3.868,-3.868,-3.868,-3.868,-3.868,-3.868,-3.868,-3.927,-3.9433,-3.8755,-3.9283,-3.9559,-3.9233,-3.9496,-3.9697,-3.9697,-3.9697,-3.9697,-3.9697,-3.9697,-3.9697,-3.9697,-3.9697,-3.9697,-3.9697,-3.9697,-3.9697,-3.9697,-3.9697,-3.9697,0.0,0.0,0.0,0.0,0.0,0.0,0.0,0.0,0.0,0.0,0.0,0.0,0.0,0.0,0.0,0.0,0.0,0.0,0.0,0.0,0.0,0.0,0.0,0.0,0.0,0.0,0.0,0.0,0.0,0.0,0.0,0.0,0.0,-2.8291,-2.8291,-2.8291,-2.8291,-2.8291,-2.8291,0.0,-2.8291,-2.89,-3.011,-3.1531,-3.2129,-3.2331,-3.3773,-3.5102,-3.6363,-3.7023,-3.7588,-3.814,-3.8718,-3.9245,-3.9697,-3.9697,-3.9697,-3.9697,-3.9697,-3.9697,-3.9697,-3.9697,-3.9697,-3.9697,-3.9697,-3.9697,-3.9697,-3.9697,-3.9697,-3.9697,-3.9697,-3.9697,-3.9697,-3.9697,-3.9697,-3.9697,-3.9697,-3.9697,-3.9697,-3.9697,-3.9697,-3.9697,-3.9697,-3.9697,-3.9697,-3.9697,-3.9697,-3.9697,-3.9697,-3.9697,-3.9697,-3.9697,-3.9697,-3.9697,-3.9697,-3.9697,-3.9697,-3.9697,-3.9697,-3.9697,-3.9697,-3.9697,-3.9697,-3.9697,-3.9697,-3.9697,-3.9697,-3.9697,-3.9697,-3.9697,-3.9697,-3.9697,0.0,0.0,0.0,0.0,0.0,0.0,0.0,0.0,0.0,0.0,0.0,0.0,0.0,0.0,0.0,0.0,0.0,0.0,0.0,0.0,0.0,0.0,0.0,0.0,0.0,0.0,0.0,0.0,0.0,0.0,0.0,0.0,0.0,-2.8291,-2.8291,-2.8291,-2.8291,-2.8291,-2.8291,0.0,-2.8291,-2.8495,-2.8804,-3.012,-3.1327,-3.2331,-3.3773,-3.4808,-3.5598,-3.7183,-3.8165,-3.8743,-3.9295,-3.9584,-3.9697,-3.9697,-3.9697,-3.9697,-3.9697,-3.9697,-3.9697,-3.9697,-3.9697,-3.9697,-3.9697,-3.9697,-3.9697,-3.9697,-3.9697,-3.9697,-3.9697,-3.9697,-3.9697,-3.9697,-3.9697,-3.9697,-3.9697,-3.9697,-3.9697,-3.9697,-3.9697,-3.9697,-3.9697,-3.9697,-3.9697,-3.9697,-3.9697,-3.9697,-3.9697,-3.9697,-3.9697,-3.9697,-3.9697,-3.9697,-3.9697,-3.9697,-3.9697,-3.9697,-3.9697,-3.9697,-3.9697,-3.9697,-3.9697,-3.9697,-3.9697,-3.9697,-3.9697,-3.9697,-3.9697,-3.9697,-3.9697,-3.9697,0.0,0.0,0.0,0.0,0.0,0.0,0.0,0.0,0.0,0.0,0.0,0.0,0.0,0.0,0.0,0.0,0.0,0.0,0.0,0.0,0.0,0.0,0.0,0.0,0.0,0.0,0.0,0.0,0.0,0.0,0.0,-2.8291,-2.8291,-2.8291,-2.8291,-2.8291,-2.8291,-2.8291,-2.8291,-2.8291,-2.8291,-2.8291,-2.8291,-2.8996,-3.012,-3.144,-3.2396,-3.3254,-3.4263,-3.5738,-3.6442,-3.6856,-3.8153,-3.8687,-3.8687,-3.9465,-3.9697,-3.9697,-3.9697,-3.9697,-3.9697,-3.9697,-3.9697,-3.9697,-3.9697,-3.9697,-3.9697,-3.9697,-3.9697,-3.9697,-3.9697,-3.9697,-3.9697,-3.9697,-3.9697,-3.9697,-3.9697,-3.9697,-3.9697,-3.9697,-3.9697,-3.9697,-3.9697,-3.9697,-3.9697,-3.9697,-3.9697,-3.9697,-3.9697,-3.9697,-3.9697,-3.9697,-3.9697,-3.9697,-3.9697,-3.9697,-3.9697,-3.9697,-3.9697,-3.9697,-3.9697,-3.9697,-3.9697,-3.9697,-3.9697,-3.9697,-3.9697,-3.9697,-3.9697,-3.9697,-3.9961,-4.0086,0.0,0.0,0.0,0.0,0.0,0.0,0.0,0.0,0.0,0.0,0.0,0.0,0.0,0.0,0.0,0.0,0.0,0.0,0.0,0.0,0.0,0.0,0.0,0.0,0.0,0.0,0.0,0.0,0.0,0.0,-2.8291,-2.8291,-2.8291,-2.8291,-2.8291,-2.8291,-2.8291,-2.8291,-2.8291,-2.8291,-2.8291,-2.8291,-2.8291,-2.8369,-2.897,-3.0037,-3.0716,-3.1677,-3.2856,-3.3944,-3.4475,-3.4706,-3.6421,-3.7252,-3.769,-3.8908,-3.9465,-3.9697,-3.9697,-3.9697,-3.9697,-3.9697,-3.9697,-3.9697,-3.9697,-3.9697,-3.9697,-3.9697,-3.9697,-3.9697,-3.9697,-3.9697,-3.9697,-3.9697,-3.9697,-3.9697,-3.9697,-3.9697,-3.9697,-3.9697,-3.9697,-3.9697,-3.9697,-3.9697,-3.9697,-3.9697,-3.9697,-3.9697,-3.9697,-3.9697,-3.9697,-3.9697,-3.9697,-3.9697,-3.9697,-3.9697,-3.9697,-3.9697,-3.9697,-3.9697,-3.9697,-3.9785,-3.9835,-3.9835,-3.9747,-3.9747,-3.9835,-3.9835,-3.9885,-3.9986,-4.0438,-4.0664,0.0,0.0,0.0,0.0,0.0,0.0,0.0,0.0,0.0,0.0,0.0,0.0,0.0,0.0,0.0,0.0,0.0,0.0,0.0,0.0,0.0,0.0,0.0,0.0,0.0,0.0,0.0,0.0,0.0,0.0,-2.8291,-2.8291,-2.8291,-2.8291,-2.8291,-2.8291,-2.8291,-2.8291,-2.8291,-2.8291,-2.8291,-2.8291,-2.8301,-2.8672,-2.8741,-2.8621,-3.0302,-3.1348,-3.2072,-3.3766,-3.4676,-3.5199,-3.5485,-3.6379,-3.7571,-3.769,-3.8582,-3.9697,-3.9697,-3.9697,-3.9697,-3.9697,-3.9697,-3.9697,-3.9697,-3.9697,-3.9697,-3.9697,-3.9697,-3.9697,-3.9697,-3.9697,-3.9697,-3.9697,-3.9697,-3.9697,-3.9697,-3.9697,-3.9697,-3.9697,-3.9697,-3.9697,-3.9697,-3.9697,-3.9697,-3.9697,-3.9697,-3.9697,-3.9697,-3.9697,-3.9697,-3.9697,-3.9697,-3.9697,-3.9697,-3.9697,-3.9697,-3.9697,-3.9697,-3.9697,-3.9697,-4.0162,-4.0413,-4.0413,-3.9936,-3.9936,-4.0413,-4.0413,-4.0651,-4.1128,-4.1191,-4.1229,0.0,0.0,0.0,0.0,0.0,0.0,0.0,0.0,0.0,0.0,0.0,0.0,0.0,0.0,0.0,0.0,0.0,0.0,0.0,0.0,0.0,0.0,0.0,0.0,0.0,0.0,0.0,0.0,0.0,-2.8291,-2.8291,-2.8291,-2.8291,-2.8291,-2.8291,-2.8291,-2.8291,-2.8291,-2.8291,-2.8291,-2.8291,-2.8291,-2.831,-2.873,-2.8818,-2.8682,-2.9988,-3.0711,-3.0923,-3.2045,-3.2581,-3.2882,-3.3744,-3.4504,-3.5266,-3.6918,-3.7914,-3.8582,-3.9362,-3.9697,-3.9697,-3.9697,-3.9697,-3.9697,-3.9697,-3.9697,-3.9697,-3.9697,-3.9697,-3.9697,-3.9697,-3.9697,-3.9772,-4.0086,-4.0162,-4.0237,-4.0551,-4.0124,-3.9697,-3.9697,-3.9697,-3.9697,-3.9697,-3.9697,-3.9697,-3.9697,-3.9697,-3.9697,-3.9697,-3.9961,-4.0162,-4.0162,-4.0438,-4.0488,-4.0174,-4.0438,-4.0488,-4.0174,-4.0438,-4.0614,-4.0614,-4.0852,-4.0978,-4.0978,-4.0739,-4.0739,-4.0978,-4.0978,-4.1103,-4.1354,-4.1656,-4.1794,0.0,0.0,0.0,0.0,0.0,0.0,0.0,0.0,0.0,0.0,0.0,0.0,0.0,0.0,0.0,0.0,0.0,0.0,0.0,0.0,0.0,0.0,0.0,0.0,0.0,0.0,0.0,0.0,0.0,-2.8291,-2.8291,-2.8291,-2.8291,-2.8291,-2.8291,-2.8291,-2.8291,-2.8291,-2.8291,-2.8291,-2.8291,-2.835,-2.8467,-2.8887,-2.9141,-2.9277,-2.9922,-3.0195,-3.0234,-3.0703,-3.0889,-3.1005,-3.2092,-3.2747,-3.3406,-3.5595,-3.6595,-3.7145,-3.8149,-3.8594,-3.8594,-3.9025,-3.8921,-3.8699,-3.9025,-3.9129,-3.9129,-3.9129,-3.9362,-3.9697,-3.9697,-3.9697,-3.9835,-4.0388,-4.0513,-4.0664,-4.1216,-4.0576,-3.9898,-3.9898,-3.9785,-3.9735,-3.9873,-3.9898,-3.9948,-4.0086,-4.0111,-4.0111,-4.0111,-4.0475,-4.0727,-4.0727,-4.1091,-4.1178,-4.0764,-4.1103,-4.1166,-4.0752,-4.1116,-4.1342,-4.1342,-4.148,-4.1543,-4.1543,-4.1681,-4.1681,-4.1543,-4.1543,-4.1618,-4.1769,-4.217,-4.2359,0.0,0.0,0.0,0.0,0.0,0.0,0.0,0.0,0.0,0.0,0.0,0.0,0.0,0.0,0.0,0.0,0.0,0.0,0.0,0.0,0.0,0.0,0.0,0.0,0.0,0.0,0.0,0.0,0.0,-2.8291,-2.8291,-2.8291,-2.8291,-2.8291,-2.8291,-2.8291,-2.8291,-2.8291,-2.8291,-2.8291,-2.8291,-2.8506,-2.8896,-2.9336,-2.9756,-3.0127,-3.0176,-3.0195,-3.0234,-3.0703,-3.0889,-3.0889,-3.1005,-3.1883,-3.3077,-3.3293,-3.4181,-3.5409,-3.5508,-3.5519,-3.5727,-3.7145,-3.6703,-3.5836,-3.7145,-3.7571,-3.7571,-3.7571,-3.8582,-3.9697,-3.9697,-3.9697,-3.9835,-4.0388,-4.0513,-4.0664,-4.1216,-4.089,-4.0475,-4.0475,-4.0049,-3.986,-4.0388,-4.0475,-4.0651,-4.1178,-4.1254,-4.1254,-4.1254,-4.1279,-4.1304,-4.1304,-4.1317,-4.1329,-4.1304,-4.1317,-4.1329,-4.1304,-4.1317,-4.1342,-4.1342,-4.1844,-4.2108,-4.2108,-4.2622,-4.2635,-4.2108,-4.2108,-4.2384,-4.2886,-4.2924,-4.2936,0.0,0.0,0.0,0.0,0.0,0.0,0.0,0.0,0.0,0.0,0.0,0.0,0.0,0.0,0.0,0.0,0.0,0.0,0.0,0.0,0.0,0.0,0.0,0.0,0.0,0.0,0.0,0.0,0.0,0.0,-2.8291,-2.8291,-2.8291,-2.8291,-2.8291,-2.8291,-2.8291,-2.8291,-2.8291,-2.8291,-2.8291,-2.8516,-2.8935,-2.9375,-2.9795,-3.0215,-3.0518,-3.0644,-3.0654,-3.082,-3.0889,-3.0889,-3.0889,-3.1218,-3.1767,-3.2747,-3.3406,-3.4069,-3.4958,-3.5288,-3.5409,-3.5945,-3.5727,-3.5466,-3.6211,-3.6523,-3.6592,-3.6812,-3.7349,-3.7915,-3.8912,-3.8476,-3.7822,-3.8335,-3.8821,-3.9113,-3.93,-3.9355,-3.92,-3.8196,-3.7822,-3.7752,-3.7938,-3.7973,-3.8366,-3.9563,-3.9709,-4.0171,-4.1222,-4.1643,-4.1869,-4.1869,-4.2183,-4.2246,-4.1894,-4.2183,-4.2246,-4.1882,-4.2195,-4.2396,-4.2396,-4.2585,-4.2685,-4.2685,-4.2873,-4.2886,-4.2685,-4.2685,-4.2785,-4.2974,-4.2974,-4.2974,0.0,0.0,0.0,0.0,0.0,0.0,0.0,0.0,0.0,0.0,0.0,0.0,0.0,0.0,0.0,0.0,0.0,0.0,0.0,0.0,0.0,0.0,0.0,0.0,0.0,0.0,0.0,0.0,0.0,0.0,-2.8291,-2.8291,-2.8291,-2.8291,-2.8291,-2.8291,-2.8291,-2.8291,-2.8359,-2.8506,-2.8506,-2.8799,-2.9365,-2.9648,-3.0019,-3.0449,-3.0752,-3.0889,-3.0889,-3.0889,-3.0889,-3.0889,-3.0889,-3.0889,-3.0995,-3.1988,-3.2311,-3.253,-3.3529,-3.3866,-3.3888,-3.4589,-3.443,-3.4178,-3.5098,-3.5343,-3.5408,-3.5747,-3.6181,-3.687,-3.7881,-3.7554,-3.6965,-3.7289,-3.7865,-3.8104,-3.7495,-3.7901,-3.8123,-3.7118,-3.6753,-3.6697,-3.6865,-3.6887,-3.7289,-3.8468,-3.8731,-3.9196,-4.0844,-4.1386,-4.1843,-4.2434,-4.276,-4.2836,-4.2459,-4.2773,-4.2823,-4.2446,-4.2773,-4.2974,-4.2974,-4.2974,-4.2974,-4.2974,-4.2974,-4.2974,-4.2974,-4.2974,-4.2974,-4.2974,-4.2974,-4.2974,0.0,0.0,0.0,0.0,0.0,0.0,0.0,0.0,0.0,0.0,0.0,0.0,0.0,0.0,0.0,0.0,0.0,0.0,0.0,0.0,0.0,0.0,0.0,0.0,0.0,0.0,0.0,0.0,0.0,-2.831,-2.831,-2.8301,-2.8291,-2.8291,-2.8291,-2.8291,-2.8291,-2.8301,-2.8516,-2.8916,-2.8926,-2.9375,-3.0195,-3.0195,-3.0449,-3.0889,-3.0889,-3.0889,-3.0889,-3.0889,-3.0889,-3.0889,-3.0889,-3.0889,-3.0889,-3.0889,-3.0889,-3.0889,-3.0889,-3.0889,-3.1181,-3.3045,-3.2626,-3.182,-3.3757,-3.4355,-3.4355,-3.4365,-3.5412,-3.6456,-3.6456,-3.6916,-3.7389,-3.7272,-3.764,-3.7615,-3.6051,-3.6535,-3.7272,-3.7272,-3.6894,-3.6716,-3.7194,-3.7272,-3.7439,-3.8026,-3.8104,-3.8698,-4.0361,-4.0592,-4.1191,-4.2849,-4.2974,-4.2974,-4.2974,-4.2974,-4.2974,-4.2974,-4.2974,-4.2974,-4.2974,-4.2974,-4.2974,-4.2974,-4.2974,-4.2974,-4.2974,-4.2974,-4.2974,-4.2974,-4.2974,-4.2974,-2.3867,0.0,0.0,0.0,0.0,0.0,0.0,0.0,0.0,0.0,0.0,0.0,0.0,0.0,0.0,0.0,0.0,0.0,0.0,0.0,0.0,0.0,0.0,0.0,0.0,0.0,0.0,0.0,-2.875,-2.875,-2.875,-2.8457,-2.8291,-2.8291,-2.8291,-2.8291,-2.8291,-2.8594,-2.8809,-2.8926,-2.9238,-2.9678,-3.0195,-3.0195,-3.0449,-3.0889,-3.0889,-3.0889,-3.0889,-3.0889,-3.0889,-3.0889,-3.0889,-3.0889,-3.0889,-3.0889,-3.0889,-3.0889,-3.0889,-3.0889,-3.1074,-3.182,-3.185,-3.177,-3.2861,-3.3192,-3.3261,-3.357,-3.4021,-3.4257,-3.4257,-3.5289,-3.5982,-3.479,-3.4655,-3.4622,-3.4143,-3.4282,-3.4563,-3.4563,-3.4338,-3.4288,-3.4543,-3.4563,-3.4954,-3.6274,-3.6406,-3.7484,-4.0233,-4.0592,-4.1191,-4.2849,-4.2974,-4.2974,-4.2974,-4.2974,-4.2974,-4.2974,-4.2974,-4.2974,-4.2974,-4.2974,-4.2974,-4.2974,-4.2974,-4.2974,-4.2974,-4.2974,-4.2974,-4.2974,-4.2974,-4.2974,0.0,0.0,0.0,0.0,0.0,0.0,0.0,-2.4145,0.0,0.0,0.0,0.0,0.0,0.0,0.0,0.0,0.0,0.0,0.0,0.0,0.0,0.0,0.0,0.0,0.0,-2.8887,-2.8994,-2.918,-2.9189,-2.9111,-2.8926,-2.8525,-2.8291,-2.8291,-2.8291,-2.8379,-2.8555,-2.8799,-2.9101,-2.9453,-2.9707,-3.0059,-3.0488,-3.0488,-3.0635,-3.0889,-3.0889,-3.0889,-3.0889,-3.0889,-3.0889,-3.0889,-3.0889,-3.0889,-3.0889,-3.0889,-3.0889,-3.0918,-3.1094,-3.1152,-3.125,-3.1855,-3.2051,-3.2178,-3.2851,-3.3057,-3.3105,-3.335,-3.3418,-3.3418,-3.3418,-3.4143,-3.4612,-3.366,-3.3418,-3.3418,-3.3418,-3.3418,-3.3418,-3.3418,-3.3418,-3.3418,-3.3418,-3.3418,-3.3776,-3.4612,-3.485,-3.5683,-3.832,-3.8557,-3.9159,-4.0834,-4.0949,-4.0949,-4.0949,-4.0949,-4.1305,-4.1911,-4.2024,-4.2263,-4.2974,-4.2974,-4.2974,-4.2974,-4.2974,-4.2974,-4.2974,-4.2974,-4.2974,-4.2974,-4.2974,-4.2974,0.0,0.0,0.0,0.0,0.0,0.0,-2.3009,-2.3203,-2.316,0.0,0.0,0.0,0.0,0.0,0.0,0.0,0.0,0.0,0.0,0.0,0.0,0.0,0.0,0.0,-2.9531,-2.9258,-2.9228,-2.9609,-2.96,-2.9385,-2.8945,-2.8564,-2.8359,-2.8359,-2.8408,-2.8613,-2.8984,-2.9033,-2.9443,-3.0195,-3.0244,-3.0488,-3.0889,-3.0889,-3.0889,-3.0889,-3.0889,-3.0889,-3.0889,-3.0889,-3.0889,-3.0889,-3.0889,-3.0889,-3.0889,-3.0889,-3.0918,-3.1006,-3.1338,-3.1514,-3.1719,-3.248,-3.2754,-3.2871,-3.3301,-3.3418,-3.3418,-3.3418,-3.3418,-3.3418,-3.3418,-3.3418,-3.3418,-3.3418,-3.3418,-3.3418,-3.3418,-3.3418,-3.3418,-3.3418,-3.3418,-3.3418,-3.3418,-3.3418,-3.3418,-3.3418,-3.3418,-3.4017,-3.556,-3.5806,-3.6406,-3.7974,-3.8223,-3.8223,-3.8223,-3.8223,-3.8817,-4.0233,-4.0476,-4.1191,-4.2625,-4.2862,-4.2974,-4.2974,-4.2974,-4.2974,-4.2974,-4.2974,-4.2974,-4.2974,-4.2974,-4.2974,0.0,0.0,0.0,0.0,0.0,0.0,0.0,-2.1194,-2.0142,0.0,0.0,0.0,0.0,0.0,0.0,0.0,0.0,0.0,0.0,0.0,0.0,0.0,0.0,0.0,-2.956,-2.9805,-2.998,-3.0068,-2.9766,-2.9385,-2.8945,-2.8838,-2.8799,-2.8799,-2.9141,-2.9355,-2.9443,-2.9775,-3.0029,-3.0205,-3.0576,-3.0801,-3.0889,-3.0889,-3.0889,-3.0889,-3.0889,-3.0889,-3.0889,-3.0889,-3.0889,-3.0889,-3.0889,-3.0889,-3.0889,-3.0889,-3.1103,-3.1357,-3.1103,-3.1465,-3.207,-3.2236,-3.2519,-3.2871,-3.3301,-3.3418,-3.3418,-3.3418,-3.3418,-3.3418,-3.3418,-3.3418,-3.3418,-3.3418,-3.3418,-3.3418,-3.3418,-3.3418,-3.3418,-3.3418,-3.3418,-3.3418,-3.3418,-3.3418,-3.3418,-3.3418,-3.3418,-3.4017,-3.556,-3.5806,-3.6406,-3.7974,-3.8223,-3.8223,-3.8223,-3.8223,-3.8342,-3.8698,-3.9884,-4.0719,-4.1076,-4.2263,-4.2974,-4.2974,-4.2974,-4.2974,-4.2974,-4.2974,-4.2974,-4.2974,-4.2974,-4.2974,0.0,0.0,0.0,-2.4913,0.0,0.0,0.0,0.0,-1.9316,-1.8191,0.0,0.0,0.0,0.0,0.0,0.0,0.0,0.0,0.0,0.0,0.0,0.0,0.0,0.0,-3.0205,-3.0215,-3.0293,-3.0527,-3.0137,-2.9697,-2.9268,-2.9248,-2.9141,-2.8926,-2.9346,-2.9678,-2.9883,-3.0098,-3.0312,-3.0547,-3.0781,-3.0889,-3.0889,-3.0889,-3.0889,-3.0889,-3.0889,-3.0889,-3.0889,-3.0889,-3.0889,-3.0889,-3.0889,-3.0889,-3.0889,-3.0889,-3.1025,-3.123,-3.1455,-3.1807,-3.2236,-3.2656,-3.2939,-3.3144,-3.3359,-3.3418,-3.3418,-3.3418,-3.3418,-3.3418,-3.3418,-3.3418,-3.3418,-3.3418,-3.3418,-3.3418,-3.3418,-3.3418,-3.3418,-3.3418,-3.3418,-3.3418,-3.3418,-3.3418,-3.3418,-3.3418,-3.3418,-3.366,-3.4497,-3.4612,-3.485,-3.5704,-3.5827,-3.5827,-3.5827,-3.5827,-3.6184,-3.7013,-3.7723,-3.8912,-4.0476,-4.1419,-4.2137,-4.2974,-4.2974,-4.2974,-4.2974,-4.2974,-4.2974,-4.2974,-4.2974,-4.2974,0.0,0.0,0.0,0.0,0.0,-2.2366,0.0,0.0,0.0,-1.811,0.0,0.0,0.0,0.0,0.0,0.0,0.0,0.0,0.0,0.0,0.0,0.0,0.0,0.0,0.0,-2.9498,-2.97,-3.085,-3.0073,-2.9637,-2.9697,-2.9687,-2.9531,-2.917,-2.959,-2.999,-3.0332,-3.0332,-3.0518,-3.0889,-3.0889,-3.0889,-3.0889,-3.0889,-3.0889,-3.0889,-3.0889,-3.0889,-3.0889,-3.0889,-3.0889,-3.0889,-3.0889,-3.0889,-3.0889,-3.0889,-3.0996,-3.1221,-3.1826,-3.2207,-3.251,-3.3105,-3.335,-3.3418,-3.3418,-3.3418,-3.3418,-3.3418,-3.3418,-3.3418,-3.3418,-3.3418,-3.3418,-3.3418,-3.3418,-3.3418,-3.3418,-3.3418,-3.3418,-3.3418,-3.3418,-3.3418,-3.3418,-3.3418,-3.3418,-3.3418,-3.3418,-3.3418,-3.3418,-3.3418,-3.3418,-3.3418,-3.3418,-3.3418,-3.3418,-3.3418,-3.3892,-3.5211,-3.5683,-3.7002,-3.9522,-4.0233,-4.1191,-4.25,-4.2849,-4.2974,-4.2974,-4.2974,-4.2974,-4.2974,-4.2974,-4.2974,0.0,0.0,0.0,0.0,-2.1862,0.0,0.0,0.0,-1.7799,-1.7629,0.0,0.0,0.0,0.0,0.0,0.0,0.0,0.0,0.0,0.0,0.0,0.0,0.0,0.0,0.0,-2.588,-2.7142,-3.0587,-2.8596,-2.8108,-3.0088,-3.0127,-3.0107,-3.0049,-3.0498,-3.0762,-3.081,-3.081,-3.084,-3.0889,-3.0889,-3.0889,-3.0889,-3.0889,-3.0889,-3.0889,-3.0889,-3.0889,-3.0889,-3.0889,-3.0889,-3.0889,-3.0889,-3.0889,-3.0889,-3.0889,-3.1377,-3.1982,-3.1689,-3.2334,-3.3232,-3.2949,-3.3115,-3.3418,-3.3418,-3.3418,-3.3418,-3.3418,-3.3418,-3.3418,-3.3418,-3.3418,-3.3418,-3.3418,-3.3418,-3.3418,-3.3418,-3.3418,-3.3418,-3.3418,-3.3418,-3.3418,-3.3418,-3.3418,-3.3418,-3.3418,-3.3418,-3.3418,-3.3418,-3.3418,-3.3418,-3.3418,-3.3418,-3.3418,-3.3418,-3.3418,-3.3544,-3.366,-3.4964,-3.5918,-3.6284,-3.903,-4.0719,-4.0834,-4.2263,-4.2974,-4.2974,-4.2974,-4.2974,-4.2974,-4.2974,-4.2974,0.0,0.0,0.0,0.0,0.0,0.0,0.0,0.0,-1.7582,0.0,0.0,0.0,0.0,0.0,0.0,0.0,0.0,0.0,0.0,0.0,0.0,0.0,0.0,0.0,0.0,0.0,0.0,0.0,-2.7998,-2.8061,-2.9805,-3.0322,-3.0478,-3.0205,-3.0644,-3.0889,-3.0889,-3.0889,-3.0889,-3.0889,-3.0889,-3.0889,-3.0889,-3.0889,-3.0889,-3.0889,-3.0889,-3.0889,-3.0889,-3.0889,-3.0889,-3.0889,-3.0889,-3.0889,-3.0918,-3.1162,-3.1484,-3.1836,-3.2148,-3.2607,-3.3066,-3.3135,-3.3281,-3.3418,-3.3418,-3.3418,-3.3418,-3.3418,-3.3418,-3.3418,-3.3418,-3.3418,-3.3418,-3.3418,-3.3418,-3.3418,-3.3418,-3.3418,-3.3418,-3.3418,-3.3418,-3.3418,-3.3418,-3.3418,-3.3418,-3.3418,-3.3418,-3.3418,-3.3418,-3.3418,-3.3418,-3.3418,-3.3418,-3.3418,-3.3418,-3.3418,-3.3418,-3.3418,-3.485,-3.5806,-3.5806,-3.7963,-3.917,-3.917,-4.0834,-4.1659,-4.1659,-4.25,-4.2974,-4.2974,-4.2974,-4.2974,-2.2776,0.0,0.0,0.0,0.0,0.0,0.0,0.0,0.0,0.0,0.0,0.0,0.0,0.0,0.0,0.0,0.0,0.0,0.0,0.0,0.0,0.0,0.0,0.0,0.0,0.0,0.0,0.0,0.0,-2.6825,-2.9021,-2.9757,-3.0238,-3.04,-3.0713,-3.0889,-3.0889,-3.0889,-3.0889,-3.0889,-3.0889,-3.0889,-3.0889,-3.0889,-3.0889,-3.0889,-3.0889,-3.0889,-3.0889,-3.0889,-3.0889,-3.0898,-3.1016,-3.1064,-3.1103,-3.1406,-3.1592,-3.1797,-3.2539,-3.2871,-3.3018,-3.333,-3.3418,-3.3418,-3.3418,-3.3418,-3.3418,-3.3418,-3.3418,-3.3418,-3.3418,-3.3418,-3.3418,-3.3418,-3.3418,-3.3418,-3.3418,-3.3418,-3.3418,-3.3418,-3.3418,-3.3418,-3.3418,-3.3418,-3.3418,-3.3418,-3.3418,-3.3418,-3.3418,-3.3418,-3.3418,-3.3418,-3.3418,-3.3418,-3.3418,-3.3418,-3.3418,-3.3418,-3.4497,-3.5088,-3.5088,-3.666,-3.7495,-3.7495,-3.917,-3.9884,-4.0001,-4.1545,-4.2375,-4.2375,-4.2737,-4.2974,0.0,0.0,0.0,-1.9325,0.0,0.0,0.0,0.0,-1.7582,0.0,0.0,0.0,0.0,0.0,0.0,0.0,0.0,0.0,0.0,0.0,0.0,0.0,0.0,0.0,0.0,0.0,0.0,0.0,0.0,0.0,-2.7857,-2.8082,-2.8993,-3.085,-3.0889,-3.0889,-3.0889,-3.0889,-3.0889,-3.0889,-3.0889,-3.0889,-3.0889,-3.0889,-3.0889,-3.0889,-3.0889,-3.0889,-3.0889,-3.0889,-3.0889,-3.0928,-3.1338,-3.1494,-3.1504,-3.1514,-3.1787,-3.2207,-3.2646,-3.3057,-3.3408,-3.3418,-3.3418,-3.3418,-3.3418,-3.3418,-3.3418,-3.3418,-3.3418,-3.3418,-3.3418,-3.3418,-3.3418,-3.3418,-3.3418,-3.3418,-3.3418,-3.3418,-3.3418,-3.3418,-3.3418,-3.3418,-3.3418,-3.3418,-3.3418,-3.3418,-3.3418,-3.3418,-3.3418,-3.3418,-3.3418,-3.3418,-3.3418,-3.3418,-3.3418,-3.3418,-3.3418,-3.3418,-3.3418,-3.3418,-3.3418,-3.4964,-3.5928,-3.5928,-3.7495,-3.8223,-3.8342,-3.9884,-4.0719,-4.0707,-4.2263,-4.2974,0.0,0.0,-1.9553,-1.9224,0.0,0.0,0.0,0.0,0.0,0.0,0.0,0.0,0.0,0.0,0.0,0.0,0.0,0.0,0.0,0.0,0.0,0.0,0.0,0.0,0.0,0.0,0.0,0.0,-2.2055,0.0,0.0,-2.7196,-2.8263,-2.9002,-3.0247,-3.0889,-3.0889,-3.0889,-3.0889,-3.0889,-3.0889,-3.0889,-3.0889,-3.0889,-3.0889,-3.0889,-3.0889,-3.0889,-3.0889,-3.0889,-3.1055,-3.1318,-3.1465,-3.1699,-3.1982,-3.2266,-3.2451,-3.2637,-3.3066,-3.3301,-3.3418,-3.3418,-3.3418,-3.3418,-3.3418,-3.3418,-3.3418,-3.3418,-3.3418,-3.3418,-3.3418,-3.3418,-3.3418,-3.3418,-3.3418,-3.3418,-3.3418,-3.3418,-3.3418,-3.3418,-3.3418,-3.3418,-3.3418,-3.3418,-3.3418,-3.3418,-3.3418,-3.3418,-3.3418,-3.3418,-3.3418,-3.3418,-3.3418,-3.3418,-3.3418,-3.3418,-3.3418,-3.3418,-3.3418,-3.3418,-3.3418,-3.3892,-3.4258,-3.4258,-3.5816,-3.6649,-3.6649,-3.8212,-3.9053,-3.9053,-4.0707,-4.2024,-1.8916,-1.8916,0.0,-1.8527,-1.8081,0.0,-1.7215,0.0,0.0,0.0,0.0,0.0,0.0,0.0,0.0,0.0,0.0,0.0,0.0,0.0,0.0,0.0,0.0,0.0,0.0,0.0,-1.9467,-2.0673,0.0,0.0,0.0,0.0,-2.6767,-2.7957,-2.8709,-2.9776,-3.0889,-3.0274,-3.0274,-3.0889,-3.0889,-3.0889,-3.0889,-3.0889,-3.0889,-3.0889,-3.0889,-3.0889,-3.0898,-3.1055,-3.1269,-3.1543,-3.1855,-3.2139,-3.2422,-3.2695,-3.2891,-3.3057,-3.333,-3.3418,-3.3418,-3.3418,-3.3418,-3.3418,-3.3418,-3.3418,-3.3418,-3.3418,-3.3418,-3.3418,-3.3418,-3.3418,-3.3418,-3.3418,-3.3418,-3.3418,-3.3418,-3.3418,-3.3418,-3.3418,-3.3418,-3.3418,-3.3418,-3.3418,-3.3418,-3.3418,-3.3418,-3.3418,-3.3418,-3.3418,-3.3418,-3.3418,-3.3418,-3.3418,-3.3418,-3.3418,-3.3418,-3.3418,-3.3418,-3.3418,-3.3418,-3.3418,-3.3418,-3.3418,-3.4373,-3.4974,-3.4974,-3.6528,-3.7374,-3.7374,-3.9639,-4.1191]}]]